Date StartTime U_cm/s V_cm/s W_cm/s Ustd_cm/s Vstd_cm/s Wstd_cm/s Uvar_(cm/s)^2 Vvar_(cm/s)^2 Wvar_(cm/s)^2 KE_(m/s)^2 TurbulentKE_(m/s)^2 HorizWindSpeed_cm/s FrictionSpeec_cm/s DragCoef SpeedOfSound_m/s SonicTemperature_C Pressure_mb 
12/29/2014  00:00:00     -441.084      -63.444      -14.399      157.189      132.109       83.349    24708.321    17452.827     6947.019       12.394        2.455      445.624       88.848        0.040      334.313        4.200      862.690
12/29/2014  00:01:00     -429.574      -34.241      -26.672      163.219      104.254       72.474    26640.519    10868.907     5252.448       11.458        2.138      430.936       78.779        0.033      334.305        4.187      862.718
12/29/2014  00:02:00     -377.567      -58.782      -18.609      159.259      136.250       73.820    25363.291    18564.174     5449.371        9.786        2.469      382.115       73.246        0.037      334.271        4.131      862.687
12/29/2014  00:03:00     -403.917      -63.278      -10.010      169.470      123.422       71.853    28720.160    15233.089     5162.921       10.817        2.456      408.844       73.305        0.032      334.245        4.086      862.650
12/29/2014  00:04:00     -479.675      -43.640      -37.692      166.154      157.367       77.470    27607.013    24764.380     6001.677       14.588        2.919      481.656       76.090        0.025      334.300        4.179      862.652
12/29/2014  00:05:00     -387.537     -131.696      -24.638      206.455      144.132       87.601    42623.677    20774.153     7674.002       11.959        3.554      409.303       93.703        0.052      334.303        4.182      862.655
12/29/2014  00:06:00     -468.306     -118.501      -18.091      165.047      119.596       85.898    27240.391    14303.245     7378.490       14.129        2.446      483.066       76.268        0.025      334.292        4.165      862.653
12/29/2014  00:07:00     -400.944      -29.553      -19.348      206.000       94.719       80.966    42435.830     8971.696     6555.478       10.997        2.898      402.032       96.428        0.058      334.300        4.179      862.632
12/29/2014  00:08:00     -369.684      -52.176      -32.048      155.484      127.475       73.668    24175.403    16249.999     5426.967        9.312        2.293      373.348       77.336        0.043      334.264        4.117      862.600
12/29/2014  00:09:00     -313.192      -76.276      -12.462      154.835      134.080       69.765    23973.930    17977.356     4867.174        7.543        2.341      322.347       69.755        0.047      334.242        4.080      862.565
12/29/2014  00:10:00     -500.633      -96.549      -33.304      154.313      135.453       72.804    23812.511    18347.612     5300.482       15.425        2.373      509.858       75.595        0.022      334.335        4.236      862.567
12/29/2014  00:11:00     -342.604      -55.314      -10.795      164.230      134.807       78.292    26971.588    18173.054     6129.589        8.590        2.564      347.040       87.454        0.064      334.326        4.222      862.588
12/29/2014  00:12:00     -410.464      -34.768      -31.185      202.440      122.533       91.688    40981.772    15014.231     8406.780       11.752        3.220      411.934      106.176        0.066      334.368        4.292      862.592
12/29/2014  00:13:00     -373.895      -66.075      -35.408      158.545      111.543       68.795    25136.537    12441.861     4732.733        9.386        2.116      379.689       63.161        0.028      334.359        4.276      862.563
12/29/2014  00:14:00     -374.000      -60.375      -23.337      148.614      112.619       65.058    22085.993    12682.983     4232.491        9.153        1.950      378.842       63.439        0.028      334.301        4.182      862.534
12/29/2014  00:15:00     -505.269      -88.745      -25.189      168.719      136.336       85.023    28466.047    18587.502     7228.989       15.903        2.714      513.004       81.166        0.025      334.341        4.246      862.515
12/29/2014  00:16:00     -310.516     -101.524      -15.831      108.082      137.157       67.180    11681.737    18812.154     4513.117        7.099        1.750      326.691       53.974        0.027      334.272        4.131      862.503
12/29/2014  00:17:00     -381.934      -70.711      -31.091      205.768      159.419       84.201    42340.668    25414.576     7089.725       11.333        3.742      388.425      101.795        0.069      334.300        4.179      862.516
12/29/2014  00:18:00     -508.313      -58.883      -29.503      147.657      122.971       84.667    21802.555    15121.985     7168.552       15.340        2.205      511.712       73.143        0.020      334.366        4.288      862.511
12/29/2014  00:19:00     -384.784      -98.128      -19.259      131.367      117.623       67.736    17257.380    13835.257     4588.202        9.686        1.784      397.100       67.258        0.029      334.310        4.195      862.510
12/29/2014  00:20:00     -316.468      -79.970        3.369      176.596      129.922       73.332    31186.234    16879.793     5377.542        7.999        2.672      326.416       78.625        0.058      334.293        4.168      862.532
12/29/2014  00:21:00     -415.242      -42.753      -21.323      174.126      125.910       80.965    30319.748    15853.304     6555.400       11.371        2.636      417.437       89.923        0.046      334.341        4.246      862.545
12/29/2014  00:22:00     -244.549      -70.067       -0.343      132.291      118.977       75.574    17500.948    14155.444     5711.367        5.103        1.868      254.388       78.070        0.094      334.283        4.150      862.550
12/29/2014  00:23:00     -276.606      -78.774       -1.703      124.951      136.900       57.470    15612.726    18741.632     3302.847        6.018        1.883      287.604       51.067        0.032      334.281        4.147      862.554
12/29/2014  00:24:00     -369.434      -79.569      -12.482      163.712      122.672       71.797    26801.770    15048.360     5154.804        9.498        2.350      377.906       82.148        0.047      334.258        4.108      862.548
12/29/2014  00:25:00     -345.175      -46.128      -25.285      111.366      117.921       60.992    12402.349    13905.407     3720.044        7.596        1.501      348.244       52.266        0.023      334.246        4.088      862.522
12/29/2014  00:26:00     -314.093      -76.889      -15.949      160.137      117.907       74.402    25643.917    13902.126     5535.643        7.494        2.254      323.367       74.107        0.053      334.239        4.076      862.529
12/29/2014  00:27:00     -269.944      -68.044       -7.022      164.781      121.458       75.484    27152.637    14752.125     5697.828        6.257        2.380      278.388       90.154        0.105      334.257        4.107      862.551
12/29/2014  00:28:00     -239.161     -103.104       -6.652      150.669      137.305       72.661    22701.093    18852.583     5279.564        5.734        2.342      260.439       78.366        0.091      334.193        4.001      862.558
12/29/2014  00:29:00     -289.463     -145.668       -3.919      147.465      112.605       76.374    21745.866    12679.908     5832.924        7.263        2.013      324.050       83.561        0.066      334.207        4.024      862.560
12/29/2014  00:30:00     -412.613     -116.314      -16.078      173.826      148.310       80.302    30215.512    21995.995     6448.373       12.134        2.933      428.694       84.322        0.039      334.323        4.216      862.555
12/29/2014  00:31:00     -404.676     -106.203      -20.311      158.022      119.331       67.013    24970.849    14239.970     4490.789       10.957        2.185      418.380       74.251        0.031      334.350        4.261      862.512
12/29/2014  00:32:00     -353.240      -50.245        0.061      163.358      117.514       65.452    26685.771    13809.556     4283.906        8.603        2.239      356.796       75.913        0.045      334.376        4.304      862.479
12/29/2014  00:33:00     -405.953      -89.748      -29.147      266.372      151.192       91.407    70953.885    22859.102     8355.235       13.791        5.108      415.756      108.095        0.068      334.314        4.201      862.456
12/29/2014  00:34:00     -361.512     -106.707        3.704      214.161      174.102       90.539    45864.796    30311.658     8197.248       11.322        4.219      376.931      105.066        0.078      334.342        4.247      862.500
12/29/2014  00:35:00     -309.002     -102.103       -7.824      191.156      147.340       82.491    36540.786    21709.017     6804.732        8.550        3.253      325.434       89.211        0.075      334.337        4.240      862.511
12/29/2014  00:36:00     -336.600      -53.371      -20.383      104.086      114.139       58.780    10833.936    13027.757     3455.090        7.193        1.366      340.805       53.902        0.025      334.361        4.282      862.485
12/29/2014  00:37:00     -327.164      -45.811      -26.899      140.385      107.637       62.656    19707.820    11585.661     3925.742        7.253        1.761      330.356       59.771        0.033      334.385        4.320      862.475
12/29/2014  00:38:00     -274.105      -72.939       -7.829      138.277       84.809       53.523    19120.525     7192.495     2864.688        5.484        1.459      283.644       61.667        0.047      334.283        4.150      862.486
12/29/2014  00:39:00     -290.409      -62.677       -0.656      151.917      100.376       66.580    23078.706    10075.316     4432.904        6.292        1.879      297.096       75.959        0.065      334.188        3.993      862.483
12/29/2014  00:40:00     -392.883      -76.582      -34.590      133.312       95.975       59.068    17772.144     9211.273     3488.988        9.594        1.524      400.277       52.485        0.017      334.269        4.127      862.477
12/29/2014  00:41:00     -268.542     -100.392      -13.595      171.825      115.363       73.304    29523.833    13308.688     5373.523        6.528        2.410      286.694       92.039        0.103      334.246        4.090      862.446
12/29/2014  00:42:00     -224.988      -61.212        0.397      159.595       94.833       67.423    25470.603     8993.310     4545.826        4.668        1.950      233.166       78.320        0.113      334.263        4.117      862.416
12/29/2014  00:43:00     -225.496      -93.782       10.285      220.586      139.440       88.564    48658.139    19443.480     7843.585        6.783        3.797      244.220      102.894        0.178      334.299        4.178      862.374
12/29/2014  00:44:00     -361.677      -50.288      -22.635      185.579      122.562       72.975    34439.408    15021.435     5325.319        9.431        2.739      365.156       91.459        0.063      334.467        4.456      862.392
12/29/2014  00:45:00     -352.294      -49.437      -17.753      155.027      106.292       75.002    24033.277    11297.943     5625.281        8.391        2.048      355.746       71.875        0.041      334.457        4.438      862.417
12/29/2014  00:46:00     -368.354      -77.437      -11.292      177.791      143.839       86.534    31609.732    20689.547     7488.052       10.079        2.989      376.406       99.018        0.069      334.495        4.501      862.437
12/29/2014  00:47:00     -339.475     -127.576       -5.404      170.993      121.441       66.608    29238.506    14747.991     4436.662        8.998        2.421      362.656       78.662        0.047      334.484        4.484      862.460
12/29/2014  00:48:00     -329.708      -85.526      -16.282      167.075       96.376       59.511    27914.071     9288.358     3541.600        7.851        2.037      340.620       73.739        0.047      334.477        4.472      862.455
12/29/2014  00:49:00     -295.156      -51.749      -13.249      138.233       94.656       63.089    19108.433     8959.808     3980.234        6.100        1.602      299.658       63.790        0.045      334.489        4.492      862.452
12/29/2014  00:50:00     -338.872      -55.107      -19.614      154.299      102.165       61.505    23808.218    10437.707     3782.907        7.813        1.901      343.324       54.322        0.025      334.460        4.443      862.476
12/29/2014  00:51:00     -326.768      -39.301       -9.333      173.372      115.671       74.303    30057.818    13379.862     5520.977        7.867        2.448      329.123       87.539        0.071      334.430        4.395      862.504
12/29/2014  00:52:00     -360.605      -84.606       -2.755      153.981      118.643       67.453    23710.258    14076.225     4549.884        8.976        2.117      370.398       69.166        0.035      334.452        4.432      862.521
12/29/2014  00:53:00     -270.290      -68.158      -14.121      127.376      100.349       58.044    16224.577    10069.984     3369.075        5.378        1.483      278.751       62.247        0.050      334.356        4.271      862.499
12/29/2014  00:54:00     -268.855      -53.902      -12.338      152.673      118.010       56.421    23309.186    13926.269     3183.353        5.787        2.021      274.205       62.864        0.053      334.345        4.253      862.484
12/29/2014  00:55:00     -317.337      -34.208      -23.373      136.536       80.490       61.680    18641.952     6478.678     3804.386        6.567        1.446      319.176       67.583        0.045      334.425        4.386      862.484
12/29/2014  00:56:00     -339.536      -33.972      -10.683      132.765      124.498       68.832    17626.473    15499.640     4737.868        7.720        1.893      341.231       68.896        0.041      334.405        4.352      862.522
12/29/2014  00:57:00     -340.584     -115.404       -8.979      175.633      139.090       72.484    30846.848    19346.044     5253.920        9.241        2.772      359.604       83.359        0.054      334.387        4.323      862.510
12/29/2014  00:58:00     -387.725      -62.241      -31.211      166.354      132.179       71.693    27673.581    17471.414     5139.841       10.272        2.514      392.689       78.271        0.040      334.372        4.298      862.476
12/29/2014  00:59:00     -355.296       -7.419      -28.124      153.722      108.071       67.785    23630.363    11679.345     4594.840        8.348        1.995      355.374       70.990        0.040      334.323        4.217      862.466
12/29/2014  01:00:00     -330.106      -67.959      -19.601      126.689      102.895       68.692    16050.118    10587.279     4718.633        7.266        1.568      337.029       70.410        0.044      334.282        4.147      862.463
12/29/2014  01:01:00     -353.904      -93.198      -13.403      130.927      105.849       65.238    17141.966    11203.925     4255.956        8.335        1.630      365.970       60.010        0.027      334.258        4.108      862.451
12/29/2014  01:02:00     -349.150     -113.191      -11.132      161.813      128.275       72.048    26183.453    16454.443     5190.913        9.133        2.391      367.040       71.558        0.038      334.273        4.132      862.454
12/29/2014  01:03:00     -297.842      -24.905      -14.152      157.350      136.601       65.799    24758.902    18659.919     4329.545        6.863        2.387      298.882       75.474        0.064      334.317        4.208      862.457
12/29/2014  01:04:00     -355.578      -50.803      -17.900      134.185      120.083       53.709    18005.692    14419.899     2884.707        8.232        1.766      359.189       57.644        0.026      334.341        4.247      862.430
12/29/2014  01:05:00     -334.661      -16.667      -15.097      121.798      126.033       55.376    14834.676    15884.294     3066.456        7.314        1.689      335.075       54.227        0.026      334.362        4.280      862.413
12/29/2014  01:06:00     -434.792      -97.834      -24.107      121.891      119.043       63.679    14857.475    14171.216     4054.999       11.613        1.654      445.663       61.962        0.019      334.340        4.244      862.418
12/29/2014  01:07:00     -411.380      -82.310      -20.448      131.501      110.501       66.432    17292.431    12210.453     4413.191       10.516        1.696      419.534       56.435        0.018      334.322        4.216      862.415
12/29/2014  01:08:00     -380.185      -62.069      -10.947      126.589      120.742       62.140    16024.720    14578.690     3861.342        9.148        1.723      385.219       57.549        0.022      334.341        4.247      862.421
12/29/2014  01:09:00     -311.325      -61.040      -17.875      139.210      113.054       58.073    19379.410    12781.280     3372.515        6.824        1.777      317.252       58.143        0.034      334.285        4.155      862.407
12/29/2014  01:10:00     -351.074      -72.620      -20.449      117.194      117.623       67.378    13734.446    13835.142     4539.799        8.052        1.605      358.506       63.053        0.031      334.237        4.073      862.417
12/29/2014  01:11:00     -354.743     -116.693      -25.260      130.766      108.515       54.746    17099.745    11775.489     2997.106        8.598        1.594      373.443       54.668        0.021      334.257        4.107      862.444
12/29/2014  01:12:00     -415.154      -53.977      -16.029      144.493      112.435       65.638    20878.121    12641.632     4308.314       10.667        1.891      418.648       71.426        0.029      334.282        4.147      862.456
12/29/2014  01:13:00     -343.777      -37.216      -21.929      136.387      124.714       60.218    18601.294    15553.620     3626.228        7.891        1.889      345.785       59.438        0.030      334.300        4.179      862.469
12/29/2014  01:14:00     -343.294      -54.806      -26.904      130.424      114.538       52.906    17010.514    13118.960     2799.042        7.725        1.646      347.641       52.736        0.023      334.236        4.072      862.432
12/29/2014  01:15:00     -290.989      -65.734        6.043      134.179      106.168       58.921    18004.028    11271.611     3471.692        6.088        1.637      298.321       59.705        0.040      334.254        4.101      862.396
12/29/2014  01:16:00     -305.937      -37.946      -13.460      143.089      102.965       60.801    20474.541    10601.884     3696.708        6.499        1.739      308.281       62.641        0.041      334.244        4.083      862.403
12/29/2014  01:17:00     -337.962      -20.614      -31.017      133.988       94.863       61.877    17952.774     8998.895     3828.770        7.319        1.539      338.590       64.340        0.036      334.292        4.166      862.400
12/29/2014  01:18:00     -253.367      -81.782       -8.553      123.236       97.385       56.790    15187.069     9483.805     3225.129        4.942        1.395      266.238       50.321        0.036      334.226        4.054      862.389
12/29/2014  01:19:00     -339.455      -23.907      -25.025      158.382      117.938       66.082    25085.016    13909.408     4366.819        7.989        2.168      340.296       83.680        0.060      334.216        4.039      862.432
12/29/2014  01:20:00     -342.268      -73.791       -6.068      140.461      107.606       55.531    19729.241    11578.993     3083.643        7.850        1.720      350.132       61.567        0.031      334.183        3.983      862.450
12/29/2014  01:21:00     -351.274      -53.000      -24.267      128.638      121.970       75.923    16547.815    14876.795     5764.228        8.198        1.859      355.250       66.191        0.035      334.183        3.983      862.452
12/29/2014  01:22:00     -335.817      -69.297      -19.596      135.534      103.499       57.586    18369.362    10712.122     3316.183        7.517        1.620      342.893       57.727        0.028      334.132        3.898      862.455
12/29/2014  01:23:00     -439.069      -18.580      -27.527      135.613      122.882       63.915    18390.994    15099.875     4085.072       11.572        1.879      439.462       73.611        0.028      334.135        3.905      862.441
12/29/2014  01:24:00     -281.954      -27.584      -17.493      145.526       94.132       64.766    21177.867     8860.743     4194.665        5.739        1.712      283.300       74.110        0.068      334.065        3.788      862.425
12/29/2014  01:25:00     -330.817      -91.641      -39.329      105.010       78.257       49.685    11027.189     6124.224     2468.630        6.950        0.981      343.276       52.007        0.023      334.029        3.730      862.427
12/29/2014  01:26:00     -246.062      -68.083      -12.810      129.096      116.964       57.643    16665.662    13680.549     3322.724        4.950        1.683      255.307       65.022        0.065      334.071        3.797      862.434
12/29/2014  01:27:00     -287.699     -113.142      -28.518      134.725      106.283       60.002    18150.799    11296.168     3600.261        6.471        1.652      309.147       49.713        0.026      334.172        3.965      862.457
12/29/2014  01:28:00     -306.396      -44.978       -8.138      113.473      113.480       56.447    12876.162    12877.734     3186.294        6.245        1.447      309.679       58.167        0.035      334.170        3.962      862.431
12/29/2014  01:29:00     -219.102      -39.864       -3.178      134.379       99.948       57.086    18057.582     9989.591     3258.841        4.045        1.565      222.699       64.982        0.085      334.151        3.930      862.409
12/29/2014  01:30:00     -196.165      -74.760      -18.605      111.353       88.516       50.620    12399.521     7835.148     2562.358        3.360        1.140      209.929       55.616        0.070      334.117        3.872      862.432
12/29/2014  01:31:00     -281.782      -92.665       -7.191      145.215      107.764       56.654    21087.278    11612.985     3209.710        6.197        1.795      296.627       59.233        0.040      334.094        3.836      862.472
12/29/2014  01:32:00     -265.084      -77.843      -13.623      114.101      111.713       53.564    13018.984    12479.896     2869.066        5.244        1.418      276.277       52.981        0.037      334.078        3.808      862.479
12/29/2014  01:33:00     -261.058      -45.726      -18.002      129.203       86.806       49.149    16693.384     7535.234     2415.605        4.860        1.332      265.032       56.819        0.046      334.098        3.842      862.470
12/29/2014  01:34:00     -335.119      -29.017      -13.910      124.977      135.065       64.784    15619.198    18242.500     4196.904        7.569        1.903      336.372       62.028        0.034      334.178        3.976      862.485
12/29/2014  01:35:00     -308.572      -76.019      -25.882      144.201      105.243       51.536    20793.905    11076.102     2655.960        6.809        1.726      317.798       57.365        0.033      334.164        3.952      862.501
12/29/2014  01:36:00     -299.519      -41.268      -25.217      105.291       89.149       45.742    11086.270     7947.526     2092.333        5.658        1.056      302.349       34.149        0.013      334.227        4.056      862.507
12/29/2014  01:37:00     -341.415      -22.450      -17.370      142.774       90.096       64.577    20384.378     8117.323     4170.233        7.501        1.634      342.152       73.488        0.046      334.217        4.041      862.503
12/29/2014  01:38:00     -310.160        0.189      -10.187      114.474      113.749       59.299    13104.269    12938.760     3516.423        6.293        1.478      310.160       56.987        0.034      334.246        4.087      862.529
12/29/2014  01:39:00     -324.147      -55.587      -10.861      136.650      115.358       56.367    18673.171    13307.369     3177.288        7.171        1.758      328.879       57.458        0.031      334.282        4.147      862.541
12/29/2014  01:40:00     -254.377      -32.756       -7.624      162.431       99.375       56.680    26383.960     9875.423     3212.608        5.265        1.974      256.477       78.144        0.093      334.152        3.934      862.593
12/29/2014  01:41:00     -229.913      -48.103      -18.601      117.918       87.161       48.341    13904.703     7597.053     2336.843        3.967        1.192      234.892       52.260        0.050      334.186        3.989      862.580
12/29/2014  01:42:00     -301.618      -91.758       -2.453      117.758      102.808       69.844    13867.008    10569.458     4878.168        6.435        1.466      315.267       73.884        0.055      334.187        3.991      862.588
12/29/2014  01:43:00     -306.359      -57.925      -15.235      115.824      119.335       59.006    13415.148    14240.787     3481.652        6.428        1.557      311.787       51.392        0.027      334.199        4.011      862.591
12/29/2014  01:44:00     -327.215       57.259      -39.104      103.427       91.974       54.727    10697.054     8459.259     2995.050        6.701        1.108      332.187       42.154        0.016      334.294        4.167      862.566
12/29/2014  01:45:00     -310.332      -65.842      -15.324      111.715       95.173       60.896    12480.240     9057.967     3708.277        6.306        1.262      317.240       59.140        0.035      334.172        3.966      862.558
12/29/2014  01:46:00     -269.758      -61.403      -13.386       98.948       93.465       57.841     9790.801     8735.735     3345.574        4.929        1.094      276.658       48.981        0.031      334.161        3.947      862.572
12/29/2014  01:47:00     -332.009      -93.344      -32.662      100.188      100.834       58.926    10037.716    10167.539     3472.283        7.184        1.184      344.881       44.840        0.017      334.165        3.953      862.579
12/29/2014  01:48:00     -208.194      -81.716      -10.500      120.671       88.428       54.631    14561.405     7819.473     2984.554        3.774        1.268      223.657       54.043        0.058      334.123        3.882      862.585
12/29/2014  01:49:00     -274.778      -62.568      -12.434      108.004       84.943       53.469    11664.945     7215.351     2858.896        5.065        1.087      281.811       50.814        0.033      334.048        3.761      862.601
12/29/2014  01:50:00     -248.118      -68.657       -7.295      144.463       81.066       60.310    20869.651     6571.634     3637.305        4.870        1.554      257.441       66.574        0.067      334.023        3.720      862.609
12/29/2014  01:51:00     -237.802      -39.420       -4.889      124.860       83.922       47.789    15590.034     7042.972     2283.808        4.152        1.246      241.047       50.612        0.044      334.073        3.803      862.593
12/29/2014  01:52:00     -252.414       -1.551      -22.585      116.439       85.179       50.426    13557.964     7255.541     2542.801        4.379        1.168      252.419       35.892        0.020      334.136        3.906      862.561
12/29/2014  01:53:00     -232.821      -82.492       -3.360       79.675      102.740       54.680     6348.036    10555.461     2989.884        4.045        0.995      247.003       38.313        0.024      334.065        3.789      862.522
12/29/2014  01:54:00      -92.143      -56.418       -3.486       99.649       44.128       42.777     9929.998     1947.322     1829.902        1.269        0.685      108.043       48.825        0.204      334.085        3.824      862.545
12/29/2014  01:55:00     -178.030      -18.215        1.421      102.032       71.745       42.918    10410.532     5147.340     1841.919        2.471        0.870      178.959       46.614        0.068      334.008        3.695      862.564
12/29/2014  01:56:00     -137.972      -24.286       -4.647       65.690       51.336       31.235     4315.192     2635.365      975.647        1.379        0.396      140.093       27.831        0.039      333.928        3.564      862.572
12/29/2014  01:57:00      -70.189       -9.912        1.302       43.724       39.249       21.992     1911.799     1540.474      483.643        0.448        0.197       70.886       21.258        0.090      333.882        3.488      862.573
12/29/2014  01:58:00        9.974       22.927       15.176       34.860       42.609       26.309     1215.194     1815.507      692.143        0.229        0.186       25.003       16.692        0.446      333.882        3.490      862.571
12/29/2014  01:59:00       35.490        3.673       38.175       48.147       69.348       38.769     2318.119     4809.091     1503.022        0.568        0.432       35.680       35.495        0.990      333.932        3.571      862.568
12/29/2014  02:00:00        0.484      -22.411       24.956       34.658       56.286       34.105     1201.201     3168.098     1163.132        0.333        0.277       22.416       32.832        2.145      333.878        3.483      862.561
12/29/2014  02:01:00      -47.108      -32.167       -4.999       34.504       37.774       21.636     1190.492     1426.903      468.106        0.318        0.154       57.043        8.701        0.023      333.891        3.505      862.563
12/29/2014  02:02:00       -5.945       16.910       48.398       21.731       58.316       41.020      472.230     3400.703     1682.601        0.411        0.278       17.924       43.471        5.882      333.196        2.355      862.526
12/29/2014  02:03:00       29.954       24.887       46.115       47.312       53.692       30.766     2238.425     2882.857      946.526        0.485        0.303       38.944       28.322        0.529      332.771        1.652      862.496
12/29/2014  02:04:00       52.503      -33.681       11.535       44.170       52.728       34.352     1951.008     2780.269     1180.074        0.497        0.296       62.377       43.634        0.489      332.588        1.348      862.529
12/29/2014  02:05:00       76.578      -27.290       18.198       57.543       55.377       46.206     3311.174     3066.601     2134.953        0.772        0.426       81.295       50.710        0.389      332.473        1.159      862.526
12/29/2014  02:06:00       35.391       14.106       29.547       59.645       43.954       39.164     3557.477     1931.929     1533.812        0.467        0.351       38.098       43.476        1.302      332.422        1.075      862.518
12/29/2014  02:07:00       37.475      -24.028       18.025       40.192       56.300       28.563     1615.405     3169.698      815.834        0.395        0.280       44.516       32.789        0.543      332.312        0.892      862.536
12/29/2014  02:08:00       47.870      -50.740       12.106       44.453       59.394       44.526     1976.108     3527.593     1982.580        0.625        0.374       69.757       40.782        0.342      332.360        0.974      862.547
12/29/2014  02:09:00       24.379       -6.344       29.223       48.735       63.760       50.215     2375.115     4065.364     2521.591        0.522        0.448       25.191       51.256        4.140      332.354        0.961      862.569
12/29/2014  02:10:00       12.083      -15.711       29.051       30.103       43.935       35.507      906.219     1930.246     1260.748        0.267        0.205       19.820       34.010        2.944      332.372        0.992      862.603
12/29/2014  02:11:00       15.267      -25.374        6.961       31.062       40.682       27.066      964.823     1655.042      732.562        0.214        0.168       29.613       25.391        0.735      332.487        1.180      862.623
12/29/2014  02:12:00       14.700      -28.241       24.892       34.798       64.107       32.802     1210.929     4109.675     1075.978        0.401        0.320       31.838       39.414        1.533      332.374        0.995      862.651
12/29/2014  02:13:00       -5.284        7.571       51.426       16.530       30.499       16.803      273.249      930.213      282.352        0.211        0.074        9.232       16.519        3.202      332.309        0.889      862.648
12/29/2014  02:14:00      -24.585       19.209       64.143       20.464       40.242       30.853      418.772     1619.456      951.894        0.404        0.150       31.200       27.452        0.774      332.309        0.889      862.640
12/29/2014  02:15:00      -10.131      -33.635       41.865       50.328       87.512       52.435     2532.882     7658.375     2749.430        0.796        0.647       35.128       40.010        1.297      332.262        0.810      862.609
12/29/2014  02:16:00        6.373      -43.263       50.352       41.308      102.072       67.566     1706.324    10418.644     4565.107        1.057        0.835       43.730       76.217        3.038      332.280        0.840      862.595
12/29/2014  02:17:00      -39.937      -45.361        3.275       52.950       46.593       26.621     2803.652     2170.882      708.692        0.467        0.284       60.436       17.527        0.084      332.426        1.080      862.632
12/29/2014  02:18:00      -87.937      -71.972       -4.508       52.940       68.394       25.094     2802.682     4677.780      629.688        1.052        0.406      113.635       20.841        0.034      332.440        1.103      862.658
12/29/2014  02:19:00      -33.917     -162.504        2.181       44.209       32.157       25.095     1954.419     1034.088      629.749        1.559        0.181      166.006       13.623        0.007      332.937        1.924      862.649
12/29/2014  02:20:00      -56.284     -126.371        0.234       29.840       59.071       19.998      890.403     3489.406      399.905        1.196        0.239      138.338        7.493        0.003      333.246        2.436      862.610
12/29/2014  02:21:00       12.873       31.015       20.260       20.911       17.885       18.987      437.263      319.874      360.511        0.133        0.056       33.580       14.557        0.188      332.750        1.616      862.564
12/29/2014  02:22:00       11.572       -7.039       11.281       33.218       37.353       18.932     1103.420     1395.278      358.440        0.158        0.143       13.545       22.919        2.863      332.567        1.313      862.594
12/29/2014  02:23:00       -7.006       17.857       25.313       58.305       33.399       21.480     3399.449     1115.495      461.397        0.299        0.249       19.182       31.128        2.634      332.444        1.109      862.613
12/29/2014  02:24:00       32.206       41.778       -9.870       28.454       27.430       18.488      809.634      752.383      341.797        0.239        0.095       52.751        6.910        0.017      332.418        1.067      862.587
12/29/2014  02:25:00       84.667       48.279        3.354       27.495       25.588       24.279      756.002      654.755      589.448        0.576        0.100       97.465       12.926        0.018      332.093        0.532      862.599
12/29/2014  02:26:00       77.002       41.347       41.248       39.607       43.328       32.412     1568.686     1877.311     1050.547        0.692        0.225       87.401       26.374        0.091      332.062        0.481      862.618
12/29/2014  02:27:00       50.503      -35.781       10.125       39.717       55.579       39.583     1577.409     3088.984     1566.827        0.508        0.312       61.894       39.914        0.416      332.118        0.574      862.635
12/29/2014  02:28:00       93.179      -60.933        7.188       77.497       71.827       60.157     6005.780     5159.136     3618.849        1.361        0.739      111.333       51.686        0.216      332.086        0.519      862.632
12/29/2014  02:29:00      135.632     -158.917      -12.783       49.500       37.221       26.472     2450.281     1385.420      700.746        2.417        0.227      208.928       27.187        0.017      332.185        0.680      862.617
12/29/2014  02:30:00       82.020     -140.474      -26.440       47.198       38.726       25.724     2227.665     1499.700      661.719        1.577        0.219      162.666       19.490        0.014      332.258        0.803      862.619
12/29/2014  02:31:00       24.615      -71.345      -17.637       46.208       41.257       38.190     2135.158     1702.143     1458.476        0.565        0.265       75.471       28.268        0.140      332.275        0.831      862.632
12/29/2014  02:32:00      -14.852      -35.443        3.202       23.572       30.255       17.980      555.630      915.363      323.282        0.164        0.090       38.428       14.266        0.138      332.269        0.820      862.628
12/29/2014  02:33:00        4.945       42.926       81.187       48.709       52.697       41.585     2372.539     2777.012     1729.274        0.767        0.344       43.210       39.239        0.825      332.044        0.451      862.578
12/29/2014  02:34:00       11.832       50.062       68.203       39.257       43.149       37.786     1541.097     1861.825     1427.763        0.606        0.242       51.441       30.843        0.359      332.009        0.394      862.569
12/29/2014  02:35:00        8.221       48.761       81.850       42.170       88.885       55.335     1778.330     7900.582     3061.970        1.094        0.637       49.449       67.429        1.859      331.998        0.375      862.563
12/29/2014  02:36:00       42.739     -105.477       -3.331       52.580       31.259       21.416     2764.690      977.131      458.649        0.858        0.210      113.806       20.278        0.032      332.135        0.601      862.587
12/29/2014  02:37:00       77.332     -125.830       -9.716       60.954       35.441       31.886     3715.359     1256.052     1016.722        1.395        0.299      147.693       20.516        0.019      332.212        0.729      862.612
12/29/2014  02:38:00       26.030      -57.143        0.790       59.484       44.058       30.482     3538.346     1941.122      929.182        0.517        0.320       62.793       26.249        0.175      332.119        0.575      862.630
12/29/2014  02:39:00       -5.809      -39.875       -8.169       30.022       18.887       18.611      901.341      356.716      346.363        0.165        0.080       40.296        7.393        0.034      332.182        0.678      862.667
12/29/2014  02:40:00       55.049      -66.728        9.225       38.601       53.380       32.101     1490.056     2849.404     1030.455        0.647        0.268       86.504       33.745        0.152      332.212        0.728      862.703
12/29/2014  02:41:00        7.196        5.492       34.041       21.414       34.372       22.350      458.554     1181.462      499.524        0.169        0.107        9.053       23.768        6.893      332.059        0.476      862.724
12/29/2014  02:42:00       -8.299        7.341       46.534       12.927       30.116       18.441      167.109      906.990      340.072        0.185        0.071       11.079       18.290        2.725      332.023        0.417      862.703
12/29/2014  02:43:00       13.676      -24.508       26.429       36.901       43.058       27.768     1361.710     1853.948      771.076        0.274        0.199       28.066       25.623        0.833      332.026        0.420      862.706
12/29/2014  02:44:00       33.317       -2.258       23.363       43.354       34.543       29.571     1879.541     1193.207      874.463        0.280        0.197       33.393       27.615        0.684      331.953        0.300      862.704
12/29/2014  02:45:00       17.009       10.524       50.491       46.660       61.222       46.289     2177.157     3748.126     2142.666        0.551        0.403       20.002       45.444        5.162      331.873        0.168      862.696
12/29/2014  02:46:00       82.699     -113.615      -33.996       48.972       64.734       29.644     2398.217     4190.513      878.770        1.418        0.373      140.525       28.460        0.041      331.929        0.260      862.677
12/29/2014  02:47:00       32.018      -34.866       15.578       41.796       47.736       41.413     1746.899     2278.724     1715.062        0.411        0.287       47.337       34.199        0.522      331.876        0.174      862.675
12/29/2014  02:48:00       50.143      -34.463       13.934       39.677       42.503       44.608     1574.291     1806.519     1989.848        0.463        0.269       60.844       26.102        0.184      331.855        0.139      862.653
12/29/2014  02:49:00       90.206      -75.629       12.051       55.877       76.932       45.201     3122.227     5918.463     2043.097        1.254        0.554      117.716       52.162        0.196      331.888        0.192      862.598
12/29/2014  02:50:00      127.703      -97.017        7.035       52.058       49.090       35.001     2710.076     2409.784     1225.045        1.606        0.317      160.375       33.804        0.044      331.880        0.180      862.577
12/29/2014  02:51:00       37.695      -61.662        8.103       31.150       46.716       22.986      970.348     2182.415      528.362        0.448        0.184       72.271       25.137        0.121      331.968        0.325      862.649
12/29/2014  02:52:00      -15.257       -0.661       14.812       15.520       18.447       14.401      240.855      340.297      207.395        0.062        0.039       15.271       11.121        0.530      331.879        0.179      862.689
12/29/2014  02:53:00      -33.460      -18.329       -0.711       18.037       18.649       11.252      325.345      347.774      126.615        0.113        0.040       38.152        7.732        0.041      331.863        0.152      862.686
12/29/2014  02:54:00      -42.565      -11.123       -0.976       13.198       11.991        8.625      174.198      143.782       74.386        0.116        0.020       43.994        6.791        0.024      331.836        0.109      862.677
12/29/2014  02:55:00       -8.969       15.078       16.289       13.398       32.168       18.077      179.512     1034.809      326.764        0.106        0.077       17.544       21.549        1.509      331.821        0.082      862.689
12/29/2014  02:56:00       -7.386       -7.914       33.230       33.778       28.538       13.165     1140.958      814.399      173.306        0.167        0.106       10.825       12.001        1.229      331.822        0.086      862.672
12/29/2014  02:57:00      -11.156       -5.496       -4.290       17.807       29.499       14.302      317.097      870.172      204.548        0.078        0.070       12.436       13.704        1.214      331.893        0.201      862.675
12/29/2014  02:58:00        3.325      -64.778       -5.659       20.795       46.438       20.033      432.415     2156.455      401.302        0.361        0.150       64.863        8.047        0.015      331.904        0.219      862.665
12/29/2014  02:59:00        8.897       -3.045       24.419       17.883       42.720       29.738      319.789     1825.041      884.330        0.186        0.151        9.404       26.719        8.073      331.874        0.171      862.610
12/29/2014  03:00:00       11.634       25.057       58.724       31.904       34.120       23.349     1017.839     1164.165      545.163        0.347        0.136       27.626       21.302        0.595      331.865        0.156      862.567
12/29/2014  03:01:00       11.157       12.722       43.629       23.652       26.487       25.565      559.398      701.548      653.583        0.205        0.096       16.921       20.889        1.524      331.933        0.267      862.564
12/29/2014  03:02:00       49.501        5.522       28.073       44.273       35.170       30.069     1960.106     1236.915      904.145        0.368        0.205       49.808       34.039        0.467      331.925        0.256      862.571
12/29/2014  03:03:00       43.116       -0.857       21.280       31.876       18.493       18.636     1016.090      341.977      347.310        0.201        0.085       43.124        7.650        0.031      331.932        0.265      862.567
12/29/2014  03:04:00       65.471       26.386        8.848       25.727       20.221       17.661      661.874      408.897      311.909        0.322        0.069       70.588       16.093        0.052      331.895        0.205      862.546
12/29/2014  03:05:00       11.174       22.345       33.237       16.389       17.434       12.090      268.599      303.956      146.161        0.122        0.036       24.983        7.114        0.081      331.777        0.010      862.530
12/29/2014  03:06:00       23.366       21.596       18.955       18.051       15.125       14.098      325.848      228.753      198.742        0.106        0.038       31.818       10.288        0.105      331.756       -0.024      862.510
12/29/2014  03:07:00       72.354       72.880        7.712       26.137       23.932       17.987      683.149      572.743      323.514        0.609        0.079      102.696       11.264        0.012      331.643       -0.210      862.482
12/29/2014  03:08:00       39.327       53.775       -2.150       31.321       27.415       19.396      981.007      751.596      376.220        0.328        0.105       66.621       13.185        0.039      331.557       -0.351      862.480
12/29/2014  03:09:00       46.517       29.771        3.081       29.347       23.494       21.741      861.233      551.989      472.679        0.247        0.094       55.228       15.242        0.076      331.507       -0.434      862.479
12/29/2014  03:10:00       48.313       20.611       -4.377       22.361       17.269       13.444      500.018      298.223      180.741        0.188        0.049       52.526       11.012        0.044      331.706       -0.106      862.487
12/29/2014  03:11:00       -6.464      -11.258       -3.507       18.564       13.870        9.913      344.619      192.377       98.277        0.041        0.032       12.981        6.073        0.219      331.694       -0.124      862.494
12/29/2014  03:12:00      -65.054        7.018       -3.885        9.099        9.800        6.447       82.783       96.041       41.559        0.226        0.011       65.431        4.194        0.004      331.574       -0.324      862.511
12/29/2014  03:13:00        9.028       27.954       10.689       27.530       15.331       10.434      757.882      235.044      108.874        0.104        0.055       29.376       14.439        0.242      331.523       -0.408      862.499
12/29/2014  03:14:00       37.125       17.950       14.965       21.114       15.843       20.742      445.782      251.009      430.218        0.153        0.056       41.237       14.706        0.127      331.640       -0.214      862.443
12/29/2014  03:15:00       -7.451       16.558       -5.973        9.257        7.063        5.736       85.696       49.890       32.907        0.027        0.008       18.157        4.887        0.072      331.674       -0.157      862.456
12/29/2014  03:16:00       25.311        9.818       -2.052        8.064        9.386        5.390       65.022       88.103       29.057        0.046        0.009       27.149        5.233        0.037      331.756       -0.026      862.455
12/29/2014  03:17:00       21.470       23.720       27.063       15.141       24.580       23.322      229.241      604.159      543.908        0.157        0.069       31.994       22.830        0.509      331.729       -0.066      862.416
12/29/2014  03:18:00       14.313       56.408       57.418       23.629       13.121       16.323      558.326      172.172      266.431        0.384        0.050       58.196       13.510        0.054      331.515       -0.421      862.372
12/29/2014  03:19:00       36.582       38.685       20.197       14.658        9.017       11.873      214.869       81.309      140.976        0.184        0.022       53.243        2.045        0.001      331.507       -0.433      862.387
12/29/2014  03:20:00       49.245       43.237        7.999       15.797       13.793       14.164      249.550      190.238      200.629        0.250        0.032       65.532       10.244        0.024      331.577       -0.318      862.389
12/29/2014  03:21:00      -22.109        4.984       -5.193       22.552       14.964        7.053      508.614      223.908       49.745        0.066        0.039       22.664        3.792        0.028      331.534       -0.390      862.394
12/29/2014  03:22:00      -61.380      -11.152       -4.757       31.033       18.072       11.394      963.036      326.609      129.823        0.267        0.071       62.384       11.939        0.037      331.458       -0.514      862.440
12/29/2014  03:23:00     -129.477      -56.723        4.512       39.610       34.712       22.487     1568.977     1204.922      505.684        1.164        0.164      141.357       20.583        0.021      331.253       -0.851      862.508
12/29/2014  03:24:00      -56.627      -15.363        2.125       37.503       27.111       22.068     1406.461      735.029      486.986        0.304        0.131       58.674       19.318        0.108      331.192       -0.950      862.522
12/29/2014  03:25:00       12.490       52.033       56.307       23.712       33.685       28.890      562.252     1134.674      834.638        0.428        0.127       53.511       26.761        0.250      331.275       -0.815      862.452
12/29/2014  03:26:00       10.618       32.201       23.671       23.714       20.296       26.630      562.341      411.926      709.180        0.170        0.084       33.906       20.280        0.358      331.447       -0.533      862.433
12/29/2014  03:27:00      -45.345       56.789      -10.838       25.431       12.631       10.815      646.712      159.535      116.954        0.316        0.046       72.672       13.296        0.033      331.331       -0.722      862.434
12/29/2014  03:28:00        3.928       64.526       -8.253       25.470       19.475       11.546      648.736      379.275      133.321        0.270        0.058       64.645       10.717        0.027      331.421       -0.575      862.445
12/29/2014  03:29:00       36.313       38.257       -3.182       20.970       10.290       12.333      439.746      105.884      152.111        0.174        0.035       52.747        9.436        0.032      331.572       -0.326      862.436
12/29/2014  03:30:00        4.864       28.086       -6.224        7.630       13.014       11.029       58.211      169.357      121.648        0.060        0.017       28.504        7.829        0.075      331.567       -0.334      862.412
12/29/2014  03:31:00       15.904       30.340       -3.356       14.875       11.303        7.482      221.266      127.756       55.979        0.079        0.020       34.255        8.867        0.067      331.631       -0.228      862.385
12/29/2014  03:32:00       21.970       37.132       -5.154        8.159       11.084        7.958       66.567      122.864       63.330        0.107        0.013       43.145        4.475        0.011      331.568       -0.333      862.369
12/29/2014  03:33:00       -5.260       29.034       -5.433       13.621        9.685        5.234      185.540       93.804       27.392        0.060        0.015       29.506        6.023        0.042      331.611       -0.263      862.392
12/29/2014  03:34:00      -13.782       24.236       -3.313       11.770        9.522        5.370      138.531       90.661       28.840        0.052        0.013       27.880        1.605        0.003      331.639       -0.214      862.416
12/29/2014  03:35:00      -35.570       -3.847       -8.806       12.633       17.212        6.606      159.602      296.269       43.644        0.093        0.025       35.778        3.825        0.011      331.359       -0.677      862.424
12/29/2014  03:36:00      -38.650       -8.059       -9.577       29.621       14.351       11.270      877.398      205.960      127.012        0.143        0.061       39.481        4.746        0.014      331.143       -1.032      862.429
12/29/2014  03:37:00      -63.286        0.300      -12.961        9.174        7.016        7.156       84.164       49.222       51.208        0.218        0.009       63.287        4.571        0.005      331.119       -1.072      862.442
12/29/2014  03:38:00      -54.257      -21.841      -10.343       13.103       15.612        7.645      171.688      243.734       58.445        0.200        0.024       58.488        3.001        0.003      331.121       -1.067      862.439
12/29/2014  03:39:00      -19.426       -0.506        2.215       14.711       16.595        9.606      216.410      275.403       92.269        0.048        0.029       19.433        5.506        0.080      331.042       -1.200      862.428
12/29/2014  03:40:00       -6.763       15.428       -0.421       29.652       16.608        8.855      879.220      275.839       78.420        0.076        0.062       16.845        5.230        0.096      331.380       -0.642      862.415
12/29/2014  03:41:00      -21.936        6.891       -1.210       28.643       19.152        6.863      820.406      366.809       47.105        0.088        0.062       22.993       10.696        0.216      331.496       -0.452      862.404
12/29/2014  03:42:00     -101.691      -39.152      -13.727       16.775       13.889       11.032      281.395      192.905      121.697        0.633        0.030      108.968        4.256        0.002      331.006       -1.258      862.413
12/29/2014  03:43:00      -43.511      -44.090       -1.313       31.317       22.726       21.919      980.764      516.457      480.435        0.291        0.099       61.945       13.625        0.048      330.917       -1.401      862.402
12/29/2014  03:44:00      -60.860      -33.977       -4.562       11.234       10.964        7.171      126.208      120.203       51.430        0.259        0.015       69.702        4.886        0.005      331.028       -1.222      862.385
12/29/2014  03:45:00      -78.917      -47.776       -9.620       17.189       14.372       12.998      295.459      206.562      168.953        0.464        0.034       92.252        9.880        0.011      331.049       -1.188      862.368
12/29/2014  03:46:00        1.533      -13.297       11.656       38.116       14.289       16.388     1452.795      204.182      268.565        0.112        0.096       13.385       19.838        2.197      331.125       -1.061      862.350
12/29/2014  03:47:00     -140.997      -57.566       -7.991       30.386       18.319       13.485      923.332      335.577      181.843        1.235        0.072      152.296        9.071        0.004      331.206       -0.929      862.326
12/29/2014  03:48:00      -94.142      -30.845       -9.306       22.550       24.271       14.043      508.485      589.059      197.219        0.560        0.065       99.066       12.095        0.015      331.055       -1.177      862.296
12/29/2014  03:49:00      -67.537      -52.547       -4.365       36.519       23.210       11.519     1333.620      538.693      132.681        0.467        0.100       85.572       10.197        0.014      331.152       -1.017      862.269
12/29/2014  03:50:00        1.608      -36.958       -1.231       20.708       19.745       13.655      428.837      389.845      186.448        0.119        0.050       36.993       11.002        0.088      331.463       -0.505      862.223
12/29/2014  03:51:00      -92.462       35.349       -7.271       39.701       30.518       22.335     1576.177      931.319      498.849        0.643        0.150       98.989       15.892        0.026      331.252       -0.854      862.219
12/29/2014  03:52:00       11.015       15.149       11.356       66.411       27.032       25.376     4410.484      730.720      643.928        0.313        0.289       18.730       24.025        1.645      331.154       -1.012      862.178
12/29/2014  03:53:00       62.444       47.454        2.644       28.820       24.303       15.388      830.589      590.638      236.789        0.391        0.083       78.429       13.448        0.029      331.375       -0.649      862.115
12/29/2014  03:54:00       68.950       61.456       -4.757       27.028       12.361       10.688      730.522      152.791      114.235        0.478        0.050       92.363       10.285        0.012      331.384       -0.635      862.111
12/29/2014  03:55:00        5.549       15.924        9.247       70.199       30.496       23.353     4927.877      930.015      545.380        0.339        0.320       16.863       24.803        2.163      331.345       -0.700      862.101
12/29/2014  03:56:00      -68.012       -5.488      -11.976       19.894       14.696        9.902      395.755      215.975       98.058        0.275        0.035       68.233        8.829        0.017      331.306       -0.763      862.110
12/29/2014  03:57:00      -47.537      -39.706       -4.257       26.438       15.063       12.302      698.980      226.902      151.351        0.247        0.054       61.939       13.924        0.051      331.298       -0.776      862.090
12/29/2014  03:58:00       -6.552      -26.758       -3.144       17.126       14.730        6.884      293.287      216.970       47.383        0.066        0.028       27.549        5.827        0.045      331.548       -0.366      862.094
12/29/2014  03:59:00      -49.587       -3.900       -5.610       23.824       17.861       10.971      567.563      319.002      120.371        0.176        0.050       49.740       13.550        0.074      331.337       -0.713      862.123
12/29/2014  04:00:00      -47.478       54.201       -3.383       30.990       36.737       21.873      960.409     1349.598      478.428        0.400        0.139       72.055       18.000        0.062      331.128       -1.058      862.194
12/29/2014  04:01:00       30.915      141.558      -13.799       49.932       73.938       28.079     2493.221     5466.798      788.428        1.496        0.437      144.894       37.898        0.068      331.058       -1.172      862.200
12/29/2014  04:02:00       71.530       27.094       14.989       52.161       33.253       18.855     2720.822     1105.775      355.499        0.513        0.209       76.490       14.089        0.034      331.314       -0.752      862.168
12/29/2014  04:03:00       58.091       32.899       28.526       32.385       30.320       24.654     1048.757      919.278      607.840        0.392        0.129       66.760       21.641        0.105      331.346       -0.699      862.148
12/29/2014  04:04:00       80.516       53.099       47.922       49.184       33.041       29.168     2419.087     1091.709      850.796        0.798        0.218       96.448       24.141        0.063      331.249       -0.857      862.146
12/29/2014  04:05:00      127.060       42.999       37.954       49.448       36.432       39.547     2445.131     1327.284     1563.942        1.238        0.267      134.138       24.250        0.033      331.200       -0.938      862.181
12/29/2014  04:06:00      131.626       70.583       35.505       60.391       61.232       45.630     3647.108     3749.388     2082.126        1.652        0.474      149.357       29.089        0.038      331.206       -0.929      862.206
12/29/2014  04:07:00      120.674      112.834       73.438       40.940       35.369       36.583     1676.061     1250.937     1338.301        1.848        0.213      165.208       23.173        0.020      331.118       -1.072      862.190
12/29/2014  04:08:00       53.510       60.953       73.124       46.291       40.591       35.615     2142.858     1647.629     1268.394        0.849        0.253       81.108       30.125        0.138      331.070       -1.152      862.168
12/29/2014  04:09:00      112.810       32.742       32.570       69.706       43.789       40.727     4858.987     1917.495     1658.675        1.165        0.422      117.465       41.108        0.122      331.029       -1.219      862.171
12/29/2014  04:10:00       45.400       31.386       58.693       75.090       51.829       55.803     5638.525     2686.263     3113.995        0.896        0.572       55.192       56.946        1.065      331.020       -1.234      862.160
12/29/2014  04:11:00       62.776       25.453       55.968       49.907       41.053       40.428     2490.670     1685.382     1634.388        0.676        0.291       67.740       37.627        0.309      331.003       -1.264      862.147
12/29/2014  04:12:00       57.066       22.616       41.958       57.510       47.088       33.124     3307.376     2217.299     1097.231        0.607        0.331       61.384       37.162        0.367      330.970       -1.316      862.153
12/29/2014  04:13:00      132.283       44.440       32.074       66.378       61.531       43.471     4406.076     3786.090     1889.766        1.529        0.504      139.548       37.350        0.072      330.941       -1.364      862.159
12/29/2014  04:14:00       68.834       95.131       73.346       76.441       33.808       38.523     5843.239     1142.999     1484.040        1.382        0.424      117.422       42.908        0.134      330.863       -1.492      862.142
12/29/2014  04:15:00       35.249       12.928       20.688       39.658       34.392       20.962     1572.738     1182.804      439.417        0.252        0.160       37.545       15.876        0.179      330.802       -1.592      862.193
12/29/2014  04:16:00       60.039       25.736       24.007       42.783       28.344       29.037     1830.423      803.405      843.135        0.416        0.174       65.322       22.843        0.122      330.759       -1.662      862.209
12/29/2014  04:17:00       68.507       46.609       14.948       27.740       17.185       21.050      769.519      295.333      443.105        0.430        0.075       82.858       16.763        0.041      330.605       -1.915      862.147
12/29/2014  04:18:00       42.921       23.602       11.250       44.653       33.537       22.689     1993.873     1124.720      514.796        0.308        0.182       48.983       17.036        0.121      330.655       -1.833      862.099
12/29/2014  04:19:00      -21.154       -6.179       -0.069       13.890       23.525       16.011      192.941      553.426      256.343        0.074        0.050       22.038       12.891        0.342      330.714       -1.736      862.078
12/29/2014  04:20:00       46.231      -10.041        4.037       34.154       17.392       14.977     1166.464      302.474      224.319        0.197        0.085       47.309       15.067        0.101      330.816       -1.569      862.087
12/29/2014  04:21:00       38.045       22.672       63.419       43.208       61.073       46.453     1866.939     3729.920     2157.917        0.687        0.388       44.288       44.525        1.011      330.837       -1.535      862.046
12/29/2014  04:22:00       -6.238      -81.396      -25.293       58.649      109.958       41.452     3439.731    12090.789     1718.245        1.227        0.862       81.635       45.913        0.316      330.939       -1.367      862.076
12/29/2014  04:23:00     -112.523       25.997      -18.825       53.478       35.917       26.300     2859.921     1290.014      691.707        0.927        0.242      115.488       19.109        0.027      330.953       -1.344      862.172
12/29/2014  04:24:00      -30.382      -30.593       -7.649       21.700       12.897       10.142      470.875      166.329      102.862        0.133        0.037       43.116        8.392        0.038      331.111       -1.086      862.123
12/29/2014  04:25:00      -15.662       33.660       48.630       30.205       31.561       31.527      912.332      996.082      993.962        0.332        0.145       37.125       19.467        0.275      330.985       -1.293      862.041
12/29/2014  04:26:00        8.654      -40.495        4.092       34.562       55.798       26.603     1194.518     3113.466      707.728        0.337        0.251       41.409       32.403        0.612      331.252       -0.852      862.053
12/29/2014  04:27:00       19.690      -34.118        8.394       42.832       48.245       44.077     1834.591     2327.617     1942.791        0.386        0.305       39.392       18.797        0.228      331.260       -0.840      862.054
12/29/2014  04:28:00       24.571      -14.834       23.892       45.685       44.958       38.952     2087.076     2021.244     1517.249        0.351        0.281       28.702       30.153        1.104      331.033       -1.213      862.021
12/29/2014  04:29:00       72.266      -66.067      -17.997       41.343       49.840       35.549     1709.266     2484.033     1263.705        0.768        0.273       97.915       27.785        0.081      330.925       -1.390      861.996
12/29/2014  04:30:00       44.851      -27.666        3.526       38.891       43.203       26.195     1512.473     1866.524      686.173        0.343        0.203       52.697       25.054        0.226      330.963       -1.328      862.030
12/29/2014  04:31:00       14.726      -13.224        9.016       23.349       28.273       19.230      545.163      799.359      369.803        0.109        0.086       19.792       20.259        1.048      331.199       -0.940      862.050
12/29/2014  04:32:00       27.333       -9.403       27.497       33.494       50.561       33.033     1121.822     2556.368     1091.195        0.318        0.238       28.905       31.414        1.181      331.038       -1.204      862.057
12/29/2014  04:33:00       39.835      -32.632        2.315       19.091       22.591       16.716      364.481      510.348      279.416        0.191        0.058       51.494       16.202        0.099      331.002       -1.264      862.059
12/29/2014  04:34:00       14.743        3.863       28.286       21.455       31.815       18.244      460.301     1012.166      332.849        0.142        0.090       15.241       18.163        1.420      330.980       -1.300      862.028
12/29/2014  04:35:00       60.354      -72.804       -6.248       34.128       39.089       24.339     1164.753     1527.985      592.409        0.613        0.164       94.568       30.818        0.106      331.026       -1.225      862.015
12/29/2014  04:36:00       67.690      -50.727       -1.992       39.073       41.806       30.204     1526.677     1747.757      912.298        0.567        0.209       84.589       30.623        0.131      331.118       -1.073      862.005
12/29/2014  04:37:00      102.556     -112.722      -20.290       52.221       54.796       34.647     2727.063     3002.596     1200.420        1.528        0.347      152.394       39.860        0.068      330.974       -1.311      861.965
12/29/2014  04:38:00       16.889      -72.124       -5.077       57.601       29.879       17.698     3317.928      892.769      313.231        0.502        0.226       74.075       18.064        0.059      331.123       -1.065      861.990
12/29/2014  04:39:00       12.959      -42.670        5.740       47.661       49.002       30.658     2271.557     2401.211      939.927        0.382        0.281       44.595       26.846        0.362      330.994       -1.276      862.041
12/29/2014  04:40:00     -150.820      -75.108        6.307       54.306       43.278       28.064     2949.146     1872.964      787.608        1.702        0.280      168.487       27.150        0.026      330.780       -1.629      862.086
12/29/2014  04:41:00      -18.535      -27.503       15.748       39.538       46.267       20.924     1563.219     2140.602      437.803        0.274        0.207       33.165       22.677        0.468      330.707       -1.748      862.077
12/29/2014  04:42:00       67.908        4.986       42.327       57.950       28.441       33.139     3358.198      808.891     1098.196        0.585        0.263       68.091       23.359        0.118      330.836       -1.535      862.033
12/29/2014  04:43:00       48.705      -55.112       22.667       55.390      105.941       49.439     3068.099    11223.598     2444.221        1.133        0.837       73.550       70.573        0.921      330.875       -1.471      861.996
12/29/2014  04:44:00       47.140      -74.271        6.508       38.110       44.195       38.884     1452.406     1953.199     1511.960        0.635        0.246       87.968       31.623        0.129      330.931       -1.380      861.979
12/29/2014  04:45:00       41.605      -46.896        2.537       47.450       55.415       32.614     2251.499     3070.850     1063.685        0.516        0.319       62.691       34.950        0.311      330.938       -1.367      861.976
12/29/2014  04:46:00       -1.818      -19.029       16.060       35.982       51.760       26.172     1294.706     2679.076      684.974        0.264        0.233       19.116       22.686        1.408      330.876       -1.470      861.986
12/29/2014  04:47:00       -1.698      -39.669        6.601       32.938       29.275       28.124     1084.932      857.016      790.967        0.218        0.137       39.705       24.605        0.384      330.863       -1.492      861.985
12/29/2014  04:48:00      -22.539       -6.574       -0.008       30.402       34.207       20.049      924.269     1170.107      401.944        0.152        0.125       23.478       23.037        0.963      330.924       -1.392      861.990
12/29/2014  04:49:00      -15.305       17.746       35.980       18.319       24.299       24.687      335.581      590.459      609.454        0.169        0.077       23.434       12.064        0.265      330.927       -1.387      861.982
12/29/2014  04:50:00       -9.909       25.145       52.718       12.334       34.136       14.886      152.128     1165.300      221.606        0.252        0.077       27.027       15.567        0.332      330.945       -1.357      861.952
12/29/2014  04:51:00       14.668       22.153       40.119       28.071       30.102       17.616      787.957      906.119      310.329        0.216        0.100       26.569       18.139        0.466      330.957       -1.337      861.945
12/29/2014  04:52:00       20.727       17.229       40.395       22.182       19.827       22.256      492.060      393.127      495.333        0.187        0.069       26.953       14.348        0.283      330.940       -1.366      861.910
12/29/2014  04:53:00       21.268      -28.058       17.540       22.807       27.640       22.929      520.180      763.989      525.741        0.168        0.090       35.208       19.422        0.304      330.989       -1.286      861.909
12/29/2014  04:54:00      -25.239      -49.849       -9.704       25.183       28.591       16.744      634.190      817.465      280.357        0.247        0.087       55.874       12.007        0.046      331.019       -1.237      861.956
12/29/2014  04:55:00      -33.834      -27.795        4.818       29.197       31.291       17.976      852.486      979.145      323.143        0.205        0.108       43.787       17.415        0.158      330.933       -1.376      861.981
12/29/2014  04:56:00       -6.702      -14.706       -8.829       20.127       18.363        9.668      405.107      337.216       93.462        0.059        0.042       16.161       11.291        0.488      330.925       -1.388      862.016
12/29/2014  04:57:00       13.739       26.126       21.916       14.641       22.291       23.785      214.363      496.879      565.712        0.131        0.064       29.519       20.099        0.464      330.892       -1.444      861.983
12/29/2014  04:58:00       22.562       59.490       72.814       24.441       27.143       16.403      597.386      736.757      269.065        0.548        0.080       63.625       16.378        0.066      330.861       -1.495      861.906
12/29/2014  04:59:00        5.114       41.388       49.438       25.905       27.614       24.502      671.065      762.548      600.358        0.311        0.102       41.703       24.436        0.343      330.887       -1.453      861.867
12/29/2014  05:00:00       27.717       41.820      -10.215       17.933       14.110       14.522      321.598      199.099      210.896        0.168        0.037       50.172       12.036        0.058      330.836       -1.535      861.862
12/29/2014  05:01:00       -2.293      -16.148        1.706       14.364       14.628       10.070      206.339      213.970      101.414        0.040        0.026       16.310        7.530        0.213      330.852       -1.511      861.843
12/29/2014  05:02:00      -12.412      -11.316        6.374       12.808       20.671       14.240      164.054      427.277      202.789        0.056        0.040       16.796       12.744        0.576      330.955       -1.341      861.845
12/29/2014  05:03:00        4.465        2.963       10.590       10.340        9.605        5.492      106.918       92.258       30.163        0.019        0.011        5.358        5.895        1.210      330.801       -1.594      861.858
12/29/2014  05:04:00       31.181       17.073       10.126       17.983       11.570        7.852      323.370      133.876       61.655        0.094        0.026       35.549        3.823        0.012      330.822       -1.556      861.864
12/29/2014  05:05:00        8.122       28.172       -2.727       31.793       11.996        9.876     1010.780      143.902       97.529        0.106        0.063       29.319       12.226        0.174      330.602       -1.920      861.879
12/29/2014  05:06:00      -85.895      -22.777       -7.176       38.991       18.351       11.297     1520.264      336.756      127.613        0.497        0.099       88.863        4.967        0.003      330.728       -1.713      861.937
12/29/2014  05:07:00      -70.909      -56.306        0.240       56.005       27.886       18.067     3136.573      777.628      326.416        0.622        0.212       90.545        6.208        0.005      330.685       -1.784      861.965
12/29/2014  05:08:00      -84.177      -18.766       -1.120       38.309       25.518       19.266     1467.544      651.148      371.187        0.496        0.124       86.243       21.462        0.062      330.619       -1.893      861.963
12/29/2014  05:09:00      -22.104       41.046       -0.098       23.239       22.178       15.659      540.072      491.859      245.200        0.173        0.064       46.620       15.255        0.107      330.474       -2.131      861.943
12/29/2014  05:10:00       42.565       38.033       -4.507       24.176       21.010       20.378      584.479      441.420      415.259        0.236        0.072       57.082       15.238        0.071      330.519       -2.055      861.925
12/29/2014  05:11:00        7.260       12.909       -6.623       24.901       15.440       14.331      620.073      238.406      205.381        0.066        0.053       14.811        6.890        0.216      330.495       -2.095      861.946
12/29/2014  05:12:00        6.189       19.665       14.214       10.914       14.192       13.699      119.109      201.408      187.656        0.057        0.025       20.616       10.054        0.238      330.569       -1.975      861.941
12/29/2014  05:13:00       77.290       48.032       30.286       31.527       12.949       19.155      993.966      167.673      366.925        0.536        0.076       91.000       18.431        0.041      330.559       -1.990      861.893
12/29/2014  05:14:00       89.595       43.756       24.259       28.606       29.825       28.673      818.331      889.508      822.130        0.653        0.126       99.709       19.218        0.037      330.501       -2.085      861.862
12/29/2014  05:15:00       61.996       44.581       15.096       27.708       19.386       22.314      767.753      375.812      497.905        0.385        0.082       76.360       15.800        0.043      330.457       -2.157      861.886
12/29/2014  05:16:00       37.070       29.302       17.721       14.415       12.078       12.624      207.799      145.888      159.367        0.153        0.026       47.252        7.324        0.024      330.452       -2.167      861.941
12/29/2014  05:17:00       36.111       51.638       -2.775       17.228       16.215       12.419      296.787      262.918      154.224        0.235        0.036       63.011        8.468        0.018      330.304       -2.408      861.956
12/29/2014  05:18:00       83.844       60.850       -0.320       28.992       23.385       19.574      840.528      546.855      383.123        0.625        0.089      103.598       15.730        0.023      330.257       -2.487      861.897
12/29/2014  05:19:00      107.108       57.242       11.125       24.118       24.654       21.253      581.682      607.827      451.674        0.826        0.082      121.445        8.910        0.005      330.349       -2.335      861.851
12/29/2014  05:20:00       84.020       40.011        3.904       21.798       14.424       18.601      475.152      208.041      346.000        0.485        0.051       93.060       13.013        0.020      330.340       -2.350      861.857
12/29/2014  05:21:00       51.490       31.996        3.081       12.005       10.744       10.764      144.122      115.443      115.866        0.203        0.019       60.621        7.223        0.014      330.364       -2.310      861.858
12/29/2014  05:22:00       66.490       45.169       23.014       18.207        9.034        9.296      331.478       81.613       86.423        0.375        0.025       80.381        6.033        0.006      330.457       -2.157      861.842
12/29/2014  05:23:00      111.016       58.198       22.047       27.340       23.633       21.264      747.464      558.540      452.153        0.898        0.088      125.345       10.453        0.007      330.498       -2.091      861.798
12/29/2014  05:24:00       68.682       39.285       40.998       48.635       29.876       27.617     2365.384      892.561      762.680        0.598        0.201       79.124       17.884        0.051      330.498       -2.092      861.799
12/29/2014  05:25:00       62.880       17.141       16.548       27.321       22.326       18.103      746.418      498.462      327.726        0.305        0.079       65.174       14.000        0.046      330.491       -2.103      861.826
12/29/2014  05:26:00       58.255       35.390       21.963       21.008       16.974       16.665      441.340      288.102      277.718        0.307        0.050       68.163       13.578        0.040      330.480       -2.119      861.833
12/29/2014  05:27:00       69.390       39.475        8.249       12.978       20.616       14.536      168.417      425.010      211.292        0.362        0.040       79.832       12.033        0.023      330.532       -2.037      861.826
12/29/2014  05:28:00       64.619       56.704        7.658       21.453       17.577       14.790      460.232      308.965      218.733        0.422        0.049       85.970       10.520        0.015      330.455       -2.161      861.786
12/29/2014  05:29:00       90.414       57.467       22.287       24.941       19.535       15.209      622.074      381.633      231.306        0.660        0.062      107.132        9.944        0.009      330.420       -2.218      861.738
12/29/2014  05:30:00        8.808       50.866       -5.071       22.447       26.607       18.939      503.852      707.952      358.688        0.213        0.079       51.623       19.989        0.150      330.345       -2.342      861.733
12/29/2014  05:31:00      -25.662       66.569      -18.153       25.186       34.930       10.759      634.314     1220.079      115.757        0.369        0.099       71.344        7.247        0.010      330.525       -2.047      861.767
12/29/2014  05:32:00        3.419       32.171        5.494       20.254       22.933       13.297      410.207      525.929      176.810        0.109        0.056       32.353       13.243        0.168      330.567       -1.978      861.804
12/29/2014  05:33:00       46.504       55.958        6.237       27.149       26.289       23.900      737.066      691.135      571.214        0.367        0.100       72.760       16.405        0.051      330.534       -2.031      861.790
12/29/2014  05:34:00       71.763       45.055        2.913       27.261       25.044       19.573      743.148      627.221      383.112        0.447        0.088       84.734        8.788        0.011      330.447       -2.174      861.773
12/29/2014  05:35:00       17.713       42.156       -5.604       27.358       16.827       10.761      748.460      283.134      115.792        0.163        0.057       45.726       12.897        0.080      330.372       -2.298      861.798
12/29/2014  05:36:00       18.111      100.431      -10.000       24.828       18.849       12.296      616.415      355.283      151.197        0.582        0.056      102.050       11.660        0.013      330.440       -2.186      861.829
12/29/2014  05:37:00      105.048       64.361        9.556       36.373       26.659       15.778     1323.024      710.682      248.961        0.878        0.114      123.197       12.724        0.011      330.329       -2.367      861.818
12/29/2014  05:38:00       72.668       28.839        9.784       39.257       25.194       27.580     1541.100      634.744      760.649        0.457        0.147       78.182       20.040        0.066      330.350       -2.335      861.833
12/29/2014  05:39:00      -13.644      -38.285        3.261       17.046       13.443       13.898      290.549      180.719      193.142        0.116        0.033       40.644       10.232        0.063      330.387       -2.274      861.879
12/29/2014  05:40:00      -29.077      -22.107      -11.559       13.388       13.944       10.930      179.238      194.433      119.467        0.098        0.025       36.527        3.885        0.011      330.519       -2.056      861.908
12/29/2014  05:41:00      -19.086        2.132       -6.258        9.710       10.895        6.548       94.291      118.709       42.876        0.033        0.013       19.205        4.553        0.056      330.321       -2.382      861.911
12/29/2014  05:42:00       -8.965        1.266        1.511        9.822        6.047        6.484       96.468       36.571       42.039        0.013        0.009        9.054        3.200        0.125      330.351       -2.331      861.918
12/29/2014  05:43:00       32.042       -2.984       11.629       31.912       30.988       18.862     1018.378      960.238      355.775        0.175        0.117       32.180       23.623        0.539      330.444       -2.177      861.925
12/29/2014  05:44:00       74.880       41.074       30.619       29.967       14.715       17.984      898.013      216.521      323.422        0.483        0.072       85.406       18.809        0.049      330.363       -2.312      861.910
12/29/2014  05:45:00      101.424       78.085       54.301       55.464       60.056       50.081     3076.280     3606.707     2508.130        1.426        0.460      128.001       44.646        0.122      330.454       -2.163      861.821
12/29/2014  05:46:00       89.983       42.623       43.867       53.333       48.171       47.478     2844.457     2320.441     2254.133        0.963        0.371       99.568       29.603        0.088      330.440       -2.185      861.791
12/29/2014  05:47:00      103.382       55.134       22.278       26.680       29.404       23.363      711.803      864.607      545.809        0.817        0.106      117.165       13.434        0.013      330.421       -2.217      861.795
12/29/2014  05:48:00        3.380        6.297        7.281       26.787       21.393       17.808      717.527      457.642      317.138        0.080        0.075        7.147       14.487        4.109      330.362       -2.314      861.811
12/29/2014  05:49:00       37.250        8.107       -2.757       21.224       14.787       12.634      450.444      218.643      159.612        0.114        0.041       38.122       12.694        0.111      330.588       -1.944      861.826
12/29/2014  05:50:00       26.435      -15.584        7.166       19.684       26.218       19.331      387.478      687.397      373.691        0.122        0.072       30.686       15.056        0.241      330.590       -1.941      861.808
12/29/2014  05:51:00       -4.797        0.222       25.686       10.930       24.888       12.694      119.459      619.432      161.130        0.079        0.045        4.802       14.255        8.812      330.465       -2.145      861.829
12/29/2014  05:52:00      -15.342      -19.482       -5.812       21.980       16.999       18.194      483.130      288.978      331.007        0.088        0.055       24.798       13.048        0.277      330.559       -1.990      861.847
12/29/2014  05:53:00      -14.676       11.342       12.464       10.772       15.061       17.040      116.046      226.820      290.367        0.057        0.032       18.548       11.707        0.398      330.482       -2.117      861.861
12/29/2014  05:54:00       12.694       23.618       53.810       21.618       29.006       16.000      467.337      841.330      255.994        0.259        0.078       26.813       14.840        0.306      330.529       -2.039      861.858
12/29/2014  05:55:00       27.101       37.076       43.621       22.626       30.763       16.449      511.922      946.366      270.570        0.287        0.086       45.925        7.613        0.027      330.614       -1.900      861.863
12/29/2014  05:56:00       27.859       30.508       11.713       23.070       23.631       23.671      532.202      558.423      560.314        0.175        0.083       41.315       16.959        0.169      330.508       -2.075      861.880
12/29/2014  05:57:00       66.710       50.355        9.154       20.288       13.153       10.161      411.586      172.998      103.247        0.388        0.034       83.581        5.792        0.005      330.485       -2.113      861.887
12/29/2014  05:58:00       93.896       43.885        9.408       35.521       17.868       13.990     1261.774      319.278      195.706        0.630        0.089      103.645       11.824        0.013      330.483       -2.115      861.850
12/29/2014  05:59:00       16.669       30.754       14.754       24.641       12.830       18.134      607.187      164.612      328.852        0.127        0.055       34.981       15.541        0.197      330.452       -2.165      861.851
12/29/2014  06:00:00      -27.241      -16.795       -1.741       20.928       17.869        9.982      437.985      319.292       99.648        0.094        0.043       32.003        8.257        0.067      330.504       -2.079      861.867
12/29/2014  06:01:00      -28.666       -6.543        0.628       22.699        9.278        8.188      515.250       86.082       67.042        0.077        0.033       29.403        7.021        0.057      330.501       -2.086      861.881
12/29/2014  06:02:00       -2.484      -20.252        1.800       23.768       18.396       15.896      564.941      338.409      252.680        0.079        0.058       20.404       13.825        0.459      330.522       -2.053      861.884
12/29/2014  06:03:00      -86.715      -51.286        7.060       60.959       34.013       21.555     3715.949     1156.891      464.628        0.777        0.267      100.746       20.817        0.043      330.471       -2.134      861.904
12/29/2014  06:04:00       31.292       34.765       19.543       22.530       21.778       25.225      507.616      474.300      636.284        0.209        0.081       46.774       16.678        0.127      330.490       -2.104      861.895
12/29/2014  06:05:00       -9.914       10.592       38.230       16.808       23.295       16.378      282.494      542.672      268.228        0.138        0.055       14.508       13.624        0.882      330.446       -2.175      861.854
12/29/2014  06:06:00      -26.966      -41.388       -2.384       36.748       27.696       23.481     1350.381      767.053      551.376        0.256        0.133       49.398       16.614        0.113      330.514       -2.064      861.846
12/29/2014  06:07:00      -78.576      -73.616        5.263       61.779       43.104       29.192     3816.701     1857.964      852.174        0.907        0.326      107.673       27.711        0.066      330.438       -2.190      861.866
12/29/2014  06:08:00      -68.005      -59.206        3.801       49.182       36.347       22.284     2418.855     1321.110      496.588        0.619        0.212       90.167       18.026        0.040      330.372       -2.298      861.860
12/29/2014  06:09:00      -25.574       -1.944        4.023       27.468       16.263       15.691      754.500      264.486      246.199        0.097        0.063       25.648       17.964        0.491      330.320       -2.383      861.854
12/29/2014  06:10:00      -34.471      -19.046        6.305       39.270       25.253       15.947     1542.116      637.721      254.313        0.201        0.122       39.383       16.253        0.170      330.369       -2.303      861.859
12/29/2014  06:11:00      -39.719      -41.064        1.581       40.737       25.207       16.604     1659.470      635.370      275.687        0.292        0.129       57.130       15.503        0.074      330.486       -2.110      861.846
12/29/2014  06:12:00      -29.684      -29.359        4.861       23.562       21.163       11.660      555.188      447.877      135.960        0.145        0.057       41.750        8.442        0.041      330.472       -2.134      861.835
12/29/2014  06:13:00      -19.691       -5.303       -1.683        9.762       11.162        9.246       95.288      124.588       85.483        0.036        0.015       20.392        6.615        0.105      330.376       -2.292      861.818
12/29/2014  06:14:00      -57.763      -16.392       -4.986       13.269       14.766        9.813      176.066      218.026       96.302        0.206        0.025       60.044        7.144        0.014      330.347       -2.336      861.806
12/29/2014  06:15:00      -67.732      -17.105      -11.386       19.354       15.637        8.324      374.589      244.510       69.295        0.285        0.034       69.858        5.797        0.007      330.167       -2.634      861.812
12/29/2014  06:16:00     -151.604      -61.320      -11.651       26.353       20.018       12.002      694.471      400.712      144.037        1.406        0.062      163.536        8.361        0.003      330.074       -2.784      861.821
12/29/2014  06:17:00     -150.508      -58.007      -13.545       25.672       34.525       19.632      659.033     1191.953      385.423        1.422        0.112      161.299       12.596        0.006      329.995       -2.914      861.846
12/29/2014  06:18:00     -127.771       -6.471       -3.547       37.039       37.984       23.424     1371.858     1442.788      548.681        0.987        0.168      127.934       19.905        0.024      329.974       -2.949      861.853
12/29/2014  06:19:00      -89.995       -1.426       -0.277       42.695       26.341       18.656     1822.897      693.829      348.058        0.548        0.143       90.006       17.158        0.036      329.927       -3.026      861.832
12/29/2014  06:20:00      -75.211       -4.840       -1.889       34.584       23.797       15.807     1196.059      566.317      249.857        0.385        0.101       75.367       13.928        0.034      330.029       -2.861      861.793
12/29/2014  06:21:00      -69.321      -34.808        0.535       29.269       23.862       20.604      856.654      569.413      424.525        0.393        0.093       77.570       18.299        0.056      330.120       -2.710      861.779
12/29/2014  06:22:00      -91.093      -60.124       -0.689       42.311       28.956       23.761     1790.181      838.444      564.577        0.755        0.160      109.146       19.222        0.031      330.064       -2.802      861.808
12/29/2014  06:23:00      -58.160      -73.153        1.557       51.577       43.034       20.250     2660.186     1851.954      410.068        0.683        0.246       93.455       20.799        0.050      330.115       -2.718      861.814
12/29/2014  06:24:00     -139.451      -92.868       -1.773       60.506       33.453       25.304     3660.941     1119.100      640.294        1.675        0.271      167.544       25.373        0.023      330.156       -2.654      861.828
12/29/2014  06:25:00     -176.739      -82.977      -20.080       34.035       23.993       21.193     1158.394      575.665      449.154        2.035        0.109      195.248       17.036        0.008      330.154       -2.656      861.870
12/29/2014  06:26:00      -47.070        1.222        3.423       39.132       27.479       16.663     1531.304      755.095      277.651        0.240        0.128       47.086       15.728        0.112      330.109       -2.728      861.864
12/29/2014  06:27:00     -105.551      -31.546       -9.689       36.344       43.281       27.186     1320.920     1873.285      739.081        0.808        0.197      110.164       29.138        0.070      330.200       -2.580      861.857
12/29/2014  06:28:00      -65.118      -45.816        7.625       41.313       29.855       20.049     1706.744      891.311      401.954        0.470        0.150       79.621       14.626        0.034      330.113       -2.723      861.840
12/29/2014  06:29:00      -61.516      -78.687        2.797       42.331       41.641       24.564     1791.934     1733.961      603.376        0.706        0.206       99.879       25.817        0.067      330.313       -2.395      861.803
12/29/2014  06:30:00      -86.176      -46.814        1.118       39.333       35.709       27.896     1547.058     1275.098      778.205        0.661        0.180       98.071       20.715        0.045      330.296       -2.423      861.813
12/29/2014  06:31:00     -149.748      -73.864       -3.719       52.387       48.108       26.637     2744.419     2314.362      709.549        1.683        0.288      166.974       24.440        0.021      330.277       -2.453      861.844
12/29/2014  06:32:00      -27.753      -66.855       -7.062       67.249       42.779       23.876     4522.420     1830.008      570.058        0.610        0.346       72.386       12.985        0.032      330.392       -2.264      861.808
12/29/2014  06:33:00      -15.674        6.942       11.664       23.084       13.124       12.512      532.882      172.241      156.562        0.065        0.043       17.142       14.179        0.684      330.352       -2.330      861.764
12/29/2014  06:34:00      -43.282       -1.186       -3.540       15.957        9.320        8.907      254.627       86.856       79.329        0.115        0.021       43.299        6.233        0.021      330.365       -2.308      861.782
12/29/2014  06:35:00      -48.450      -16.739       -0.693       27.680       16.949       12.090      766.183      287.281      146.167        0.191        0.060       51.260        8.092        0.025      330.341       -2.350      861.837
12/29/2014  06:36:00      -81.880      -43.640       -0.626       30.212       26.251       17.212      912.742      689.112      296.247        0.525        0.095       92.784       10.848        0.014      330.281       -2.445      861.867
12/29/2014  06:37:00       -6.677      -39.212       20.004       56.180       29.604       23.533     3156.214      876.407      553.779        0.328        0.229       39.776       29.272        0.542      330.326       -2.373      861.863
12/29/2014  06:38:00      -39.327      -32.115       -7.256       34.036       41.059       17.747     1158.450     1685.858      314.960        0.289        0.158       50.774       24.245        0.228      330.434       -2.195      861.840
12/29/2014  06:39:00      -12.943       -1.490       -6.806       20.655       19.461       13.007      426.644      378.744      169.183        0.060        0.049       13.028       11.964        0.843      330.399       -2.254      861.837
12/29/2014  06:40:00       -2.016      -11.235        9.151       18.507       19.533       16.005      342.495      381.532      256.159        0.060        0.049       11.415       12.939        1.285      330.408       -2.239      861.844
12/29/2014  06:41:00       29.846       22.762       30.555       18.856       22.793       15.117      355.563      519.499      228.511        0.172        0.055       37.535       12.242        0.106      330.425       -2.211      861.846
12/29/2014  06:42:00        4.411       85.513      -12.232       27.491       28.491       21.824      755.742      811.725      476.268        0.476        0.102       85.626       23.069        0.073      330.386       -2.274      861.888
12/29/2014  06:43:00      -54.086       74.721      -11.553       32.104       33.520       17.137     1030.689     1123.576      293.691        0.554        0.122       92.241       12.724        0.019      330.308       -2.401      861.964
12/29/2014  06:44:00       -1.415       54.428       -3.777       36.196       24.786       17.881     1310.131      614.357      319.713        0.261        0.112       54.446       20.912        0.148      330.293       -2.427      861.982
12/29/2014  06:45:00       36.544       82.564      -12.564       18.158       26.819       15.492      329.718      719.252      240.012        0.480        0.064       90.290       15.637        0.030      330.014       -2.884      861.972
12/29/2014  06:46:00        9.279      116.938      -14.747       11.756       19.772        9.211      138.202      390.926       84.847        0.730        0.031      117.305        8.186        0.005      330.219       -2.548      861.965
12/29/2014  06:47:00       33.023       60.493       -7.580       16.700       36.503       12.585      278.900     1332.491      158.377        0.329        0.088       68.920       15.220        0.049      330.012       -2.887      861.926
12/29/2014  06:48:00       49.571       35.305        6.271       17.894       14.228       19.766      320.188      202.447      390.684        0.233        0.046       60.858       11.210        0.034      329.933       -3.017      861.906
12/29/2014  06:49:00       26.061       18.248       -2.479       13.722       17.796        8.445      188.293      316.694       71.311        0.080        0.029       31.815        7.568        0.057      329.904       -3.067      861.935
12/29/2014  06:50:00       77.747       35.285        4.866       25.988       18.743       11.230      675.367      351.301      126.123        0.423        0.058       85.379       14.284        0.028      330.026       -2.865      861.939
12/29/2014  06:51:00       89.747       49.772       17.000       15.902       14.441       13.662      252.885      208.541      186.663        0.573        0.032      102.624        4.503        0.002      330.050       -2.825      861.933
12/29/2014  06:52:00       40.212       19.974       15.146       20.017       17.940       14.552      400.688      321.861      211.766        0.159        0.047       44.900        9.954        0.049      329.950       -2.988      861.948
12/29/2014  06:53:00      113.201       60.636       15.383       33.473       20.554       18.788     1120.473      422.457      353.004        0.931        0.095      128.418       14.811        0.013      329.866       -3.126      861.954
12/29/2014  06:54:00      155.142       78.081       24.088       50.656       32.134       36.934     2566.068     1032.591     1364.122        1.785        0.248      173.682       28.398        0.027      329.729       -3.351      861.936
12/29/2014  06:55:00       44.485       46.480       30.291       25.650       21.461       21.483      657.945      460.592      461.503        0.332        0.079       64.337       11.295        0.031      329.669       -3.450      861.930
12/29/2014  06:56:00       -1.614       -6.352        7.956        8.168       15.172       10.565       66.715      230.204      111.618        0.026        0.020        6.554        8.272        1.593      329.723       -3.361      861.942
12/29/2014  06:57:00       -1.827        2.683       14.359        8.625       16.234       12.368       74.393      263.532      152.956        0.035        0.025        3.246        9.243        8.108      330.050       -2.825      861.979
12/29/2014  06:58:00        3.346       21.094       34.627       11.864       11.439       10.052      140.747      130.843      101.043        0.101        0.019       21.358        7.731        0.131      329.920       -3.038      862.006
12/29/2014  06:59:00       33.174       25.327       28.720       26.055       15.865       11.250      678.872      251.703      126.551        0.181        0.053       41.736        3.621        0.008      330.065       -2.800      861.992
12/29/2014  07:00:00       68.094       49.597        9.140       11.613        7.875        8.782      134.852       62.018       77.123        0.373        0.014       84.242        4.037        0.002      330.154       -2.657      861.984
12/29/2014  07:01:00       86.335       46.798       11.490       24.788       11.552       10.034      614.459      133.455      100.679        0.531        0.042       98.203       11.605        0.014      330.195       -2.588      861.977
12/29/2014  07:02:00      179.917       84.701       21.849       31.974       21.733       23.340     1022.348      472.339      544.737        2.103        0.102      198.858        7.345        0.001      330.235       -2.524      861.949
12/29/2014  07:03:00      126.452       98.949       50.618       49.871       31.792       38.680     2487.118     1010.731     1496.132        1.667        0.250      160.564       24.742        0.024      330.181       -2.612      861.937
12/29/2014  07:04:00       34.425       58.688       52.945       36.556       42.864       28.356     1336.351     1837.284      804.046        0.570        0.199       68.039       22.843        0.113      330.172       -2.626      861.941
12/29/2014  07:05:00        7.880       -9.442       -3.629       14.378       13.979       10.826      206.722      195.401      117.192        0.034        0.026       12.298        9.083        0.545      330.180       -2.611      861.981
12/29/2014  07:06:00      -28.975        5.643       -3.968       18.693       17.559       12.147      349.410      308.320      147.559        0.085        0.040       29.520        7.051        0.057      330.120       -2.713      862.014
12/29/2014  07:07:00        5.391       10.471       10.401       12.486       10.228       11.401      155.901      104.617      129.984        0.032        0.020       11.777       10.618        0.813      330.066       -2.799      862.025
12/29/2014  07:08:00       67.533       29.239       11.536       20.112       15.294       11.474      404.482      233.922      131.657        0.316        0.039       73.592        6.024        0.007      330.235       -2.522      862.022
12/29/2014  07:09:00       22.653       17.868        4.670       12.503        8.303        9.198      156.330       68.936       84.610        0.058        0.015       28.851        2.883        0.010      330.269       -2.464      862.024
12/29/2014  07:10:00       53.231       27.487       12.935       17.190       11.295       10.630      295.494      127.582      112.991        0.215        0.027       59.909        7.136        0.014      330.331       -2.363      862.017
12/29/2014  07:11:00      111.172       67.476       23.669       37.593       31.230       27.671     1413.246      975.318      765.695        1.031        0.158      130.047       21.473        0.027      330.265       -2.471      861.996
12/29/2014  07:12:00      147.273       58.463       43.280       49.670       35.489       42.470     2467.085     1259.471     1803.683        1.625        0.277      158.453       24.441        0.024      330.254       -2.490      861.961
12/29/2014  07:13:00      153.742      102.124       54.740       88.370       41.461       39.993     7809.192     1718.983     1599.409        2.409        0.556      184.569       35.319        0.037      330.264       -2.476      861.915
12/29/2014  07:14:00       64.184       31.022        4.283       29.736       33.888       22.378      884.258     1148.421      500.759        0.382        0.127       71.288       19.856        0.078      330.242       -2.510      861.988
12/29/2014  07:15:00       73.746       45.045       14.133       30.620       19.065       18.761      937.596      363.484      351.983        0.466        0.083       86.415       19.085        0.049      330.238       -2.517      862.008
12/29/2014  07:16:00       99.965       45.242       32.472       36.797       34.625       25.966     1353.998     1198.898      674.239        0.816        0.161      109.726       18.114        0.027      330.164       -2.638      862.020
12/29/2014  07:17:00       25.233      -60.282       -2.379       41.292       44.426       26.911     1705.003     1973.659      724.192        0.434        0.220       65.350       32.172        0.242      330.245       -2.505      862.020
12/29/2014  07:18:00     -139.943      -98.094        1.052       70.929       60.867       37.580     5030.966     3704.852     1412.262        1.968        0.507      170.899       29.536        0.030      330.340       -2.351      862.051
12/29/2014  07:19:00     -199.550     -115.731        2.102      103.854       84.202       52.450    10785.673     7089.976     2751.027        3.692        1.031      230.681       56.152        0.059      330.108       -2.733      862.109
12/29/2014  07:20:00     -135.803     -124.789       -2.301       98.103       63.174       37.563     9624.175     3990.948     1411.010        2.452        0.751      184.431       37.828        0.042      330.101       -2.745      862.130
12/29/2014  07:21:00       11.707      -28.506       30.273       35.727       83.273       49.062     1276.424     6934.326     2407.077        0.624        0.531       30.816       56.309        3.339      330.322       -2.380      862.031
12/29/2014  07:22:00       -2.627       61.737      105.279       29.083       52.629       33.361      845.813     2769.816     1112.975        0.981        0.236       61.793       32.020        0.269      330.194       -2.590      861.927
12/29/2014  07:23:00       13.383       -1.839       46.705       30.699       47.474       33.793      942.408     2253.754     1141.999        0.335        0.217       13.509       34.149        6.391      330.367       -2.305      861.977
12/29/2014  07:24:00     -118.680      -38.615       -2.938       67.318       76.227       28.418     4531.760     5810.501      807.586        1.337        0.557      124.804       24.642        0.039      330.322       -2.380      862.070
12/29/2014  07:25:00     -187.137     -156.659       -3.132      105.402       67.702       43.364    11109.680     4583.518     1880.426        3.857        0.879      244.054       35.844        0.022      330.130       -2.699      862.100
12/29/2014  07:26:00     -156.598      -88.717       -4.335       62.098       64.075       36.260     3856.168     4105.582     1314.771        2.084        0.464      179.982       32.469        0.033      330.112       -2.726      862.076
12/29/2014  07:27:00      -67.512      -48.351        6.483       65.134       40.029       37.834     4242.457     1602.317     1431.425        0.711        0.364       83.040       38.905        0.219      330.201       -2.579      862.055
12/29/2014  07:28:00      -79.807      -41.794       -5.758       38.487       36.016       15.640     1481.258     1297.126      244.620        0.559        0.151       90.088       15.995        0.032      330.442       -2.182      862.052
12/29/2014  07:29:00      -93.834      -46.290       -8.510       25.405       20.797       15.615      645.408      432.525      243.821        0.617        0.066      104.630       11.299        0.012      330.437       -2.191      862.070
12/29/2014  07:30:00     -125.214      -46.164       -9.104       27.842       30.077       16.131      775.179      904.628      260.198        0.992        0.097      133.453        5.442        0.002      330.378       -2.288      862.121
12/29/2014  07:31:00       -9.967      -19.887       -9.898       38.449       21.791       14.603     1478.316      474.865      213.234        0.138        0.108       22.245       10.430        0.220      330.370       -2.299      862.123
12/29/2014  07:32:00       34.536       47.520       41.834       26.599       22.208       16.642      707.525      493.192      276.960        0.334        0.074       58.744        5.710        0.009      330.330       -2.368      862.073
12/29/2014  07:33:00       83.935       57.894       27.923       25.857       19.593       27.159      668.574      383.904      737.632        0.648        0.090      101.965       15.353        0.023      330.435       -2.194      862.045
12/29/2014  07:34:00       18.759       67.569       60.644       27.432       29.685       23.778      752.520      881.228      565.378        0.540        0.110       70.125       15.947        0.052      330.366       -2.307      862.039
12/29/2014  07:35:00      -47.483       -9.177       20.165       62.401       34.463       30.939     3893.855     1187.665      957.208        0.439        0.302       48.362       39.655        0.672      330.465       -2.144      862.079
12/29/2014  07:36:00     -119.345      -50.304       -1.673       53.747       47.106       29.875     2888.694     2219.008      892.501        1.139        0.300      129.513       16.952        0.017      330.441       -2.185      862.138
12/29/2014  07:37:00     -151.985      -96.666       -4.865       66.727       55.933       35.889     4452.547     3128.528     1288.050        2.067        0.443      180.122       26.414        0.022      330.276       -2.457      862.179
12/29/2014  07:38:00     -137.302      -72.358        4.496       46.068       44.245       29.216     2122.228     1957.625      853.570        1.452        0.247      155.201       23.844        0.024      330.274       -2.457      862.175
12/29/2014  07:39:00      -70.653      -98.444       -5.817       37.416       29.034       14.716     1399.932      842.996      216.564        0.859        0.123      121.173       18.381        0.023      330.491       -2.102      862.166
12/29/2014  07:40:00      -31.610      -76.530        1.858       16.795       21.183       16.516      282.063      448.713      272.774        0.393        0.050       82.801       13.770        0.028      330.527       -2.042      862.159
12/29/2014  07:41:00      -58.480      -33.177       -2.796       20.154       24.779       10.025      406.175      613.999      100.496        0.282        0.056       67.236       10.885        0.026      330.677       -1.796      862.169
12/29/2014  07:42:00      -55.620        6.449        0.037       39.706       24.882       15.268     1576.542      619.104      233.113        0.278        0.121       55.992       17.873        0.102      330.600       -1.924      862.201
12/29/2014  07:43:00      -27.527       14.763       -4.109       38.181       20.834       18.046     1457.776      434.070      325.670        0.160        0.111       31.236       22.362        0.513      330.395       -2.260      862.179
12/29/2014  07:44:00       55.870       38.724       13.615       23.760       19.536       19.516      564.515      381.645      380.868        0.307        0.066       67.978       12.374        0.033      330.437       -2.192      862.116
12/29/2014  07:45:00       19.010        6.325       -5.446       31.379       29.608       16.690      984.620      876.641      278.552        0.129        0.107       20.035       10.056        0.252      330.504       -2.080      862.066
12/29/2014  07:46:00      -87.216      -36.946       -5.615       66.392       40.849       26.945     4407.939     1668.660      726.020        0.790        0.340       94.719       18.100        0.037      330.424       -2.211      862.094
12/29/2014  07:47:00     -119.802      -80.747       -4.042       59.025       49.582       29.866     3483.936     2458.407      891.950        1.386        0.342      144.474       29.561        0.042      330.366       -2.308      862.174
12/29/2014  07:48:00     -133.227      -88.338       -7.328       35.587       33.881       22.930     1266.428     1147.956      525.773        1.427        0.147      159.853       18.774        0.014      330.316       -2.390      862.209
12/29/2014  07:49:00      -69.181      -39.818        1.715       20.617       35.549       17.248      425.060     1263.717      297.506        0.418        0.099       79.822       13.165        0.027      330.339       -2.349      862.198
12/29/2014  07:50:00      -39.637       21.629        8.025       30.538       15.019       13.716      932.599      225.578      188.130        0.172        0.067       45.154       11.013        0.059      330.339       -2.352      862.190
12/29/2014  07:51:00        2.318       22.990       -0.229       16.968       10.573       18.765      287.902      111.783      352.120        0.064        0.038       23.107       14.310        0.384      330.466       -2.145      862.167
12/29/2014  07:52:00       52.959       38.260       26.371       25.085       18.580       21.677      629.268      345.211      469.877        0.320        0.072       65.334       14.937        0.052      330.500       -2.088      862.139
12/29/2014  07:53:00       58.410       26.727        1.606       27.829       21.216       13.362      774.459      450.127      178.535        0.277        0.070       64.234        4.044        0.004      330.448       -2.173      862.150
12/29/2014  07:54:00        0.474       36.866       37.199       18.098       15.393       20.270      327.530      236.946      410.856        0.186        0.049       36.869       14.596        0.157      330.613       -1.903      862.173
12/29/2014  07:55:00      -74.776        6.336       -2.099       36.170       25.002       18.552     1308.254      625.114      344.178        0.396        0.114       75.044       22.341        0.089      330.438       -2.190      862.248
12/29/2014  07:56:00      -84.314      -71.473       -0.659       68.321       33.947       23.958     4667.788     1152.376      573.989        0.930        0.320      110.531       29.270        0.070      330.474       -2.130      862.295
12/29/2014  07:57:00      -15.991      -51.702       25.186       27.922       37.367       22.112      779.633     1396.327      488.962        0.311        0.133       54.119       12.287        0.052      330.666       -1.817      862.287
12/29/2014  07:58:00      -32.018       -8.623       21.424       35.259       30.290       24.325     1243.176      917.506      591.720        0.215        0.138       33.158       23.261        0.492      330.810       -1.579      862.262
12/29/2014  07:59:00      -24.758      -17.483        9.025       24.235       32.869       25.597      587.347     1080.353      655.204        0.166        0.116       30.309       21.119        0.486      330.754       -1.670      862.268
12/29/2014  08:00:00      -23.539       -4.003       -7.940       20.610       43.288       11.966      424.772     1873.815      143.188        0.154        0.122       23.877       10.528        0.194      330.658       -1.827      862.257
12/29/2014  08:01:00      -10.161       11.933       -4.953       18.043       15.517       11.192      325.562      240.783      125.252        0.048        0.035       15.673        5.870        0.140      330.769       -1.646      862.254
12/29/2014  08:02:00      -28.264      -23.382       -3.353       20.938       19.273       10.370      438.414      371.462      107.534        0.114        0.046       36.682        8.166        0.050      330.693       -1.771      862.262
12/29/2014  08:03:00      -54.175      -33.096       -3.682       23.643       23.238       11.582      559.008      539.989      134.150        0.264        0.062       63.484        9.889        0.024      330.585       -1.948      862.262
12/29/2014  08:04:00      -10.572       -5.171        4.751       21.618       22.005       10.679      467.335      484.202      114.036        0.061        0.053       11.769       12.195        1.074      330.677       -1.796      862.255
12/29/2014  08:05:00       -7.671      -16.216        8.044       26.547       21.515       14.198      704.757      462.912      201.594        0.088        0.068       17.939       16.788        0.876      330.872       -1.477      862.244
12/29/2014  08:06:00       -2.669       25.622       -4.619       21.082       20.658       10.916      444.435      426.761      119.161        0.084        0.050       25.761        5.279        0.042      330.777       -1.633      862.233
12/29/2014  08:07:00        4.205       13.695       -8.115       10.409       17.905       12.437      108.353      320.591      154.679        0.043        0.029       14.326       11.525        0.647      330.948       -1.352      862.233
12/29/2014  08:08:00       31.366        9.067       16.772       25.331       17.249       14.154      641.659      297.540      200.325        0.124        0.057       32.651       14.784        0.205      331.022       -1.230      862.235
12/29/2014  08:09:00       26.403       26.082       25.738       24.060       30.655       23.320      578.862      939.752      543.826        0.205        0.103       37.113       19.012        0.262      330.994       -1.275      862.245
12/29/2014  08:10:00       -7.727        6.589       42.870       17.203       31.465       28.076      295.950      990.069      788.259        0.201        0.104       10.155       26.824        6.977      331.114       -1.079      862.240
12/29/2014  08:11:00       48.849      -48.363        2.021       48.268       49.832       32.550     2329.762     2483.180     1059.517        0.530        0.294       68.740       36.814        0.287      330.972       -1.314      862.235
12/29/2014  08:12:00       41.266      -32.680        4.183       27.512       34.238       24.994      756.895     1172.263      624.701        0.267        0.128       52.639       21.892        0.173      331.032       -1.214      862.267
12/29/2014  08:13:00       43.582      -31.411        6.803       27.634       45.377       22.736      763.616     2059.034      516.924        0.314        0.167       53.722       22.423        0.174      331.064       -1.163      862.272
12/29/2014  08:14:00       14.822       35.127       60.161       26.659       23.789       16.411      710.676      565.930      269.309        0.331        0.077       38.126       14.474        0.144      331.234       -0.883      862.257
12/29/2014  08:15:00       53.100       71.933       51.918       63.314       28.939       36.016     4008.673      837.467     1297.124        0.842        0.307       89.409       23.675        0.070      330.980       -1.300      862.260
12/29/2014  08:16:00      105.937       74.937       36.703       35.419       27.553       28.835     1254.503      759.177      831.453        1.051        0.142      129.762       20.154        0.024      330.894       -1.441      862.242
12/29/2014  08:17:00       85.301       59.189       33.785       36.507       40.550       33.636     1332.767     1644.308     1131.397        0.801        0.205      103.824       23.064        0.049      330.919       -1.400      862.226
12/29/2014  08:18:00       89.101       57.812       35.210       33.492       30.772       21.597     1121.681      946.917      466.426        0.753        0.127      106.213       12.106        0.013      330.958       -1.337      862.245
12/29/2014  08:19:00       54.019       26.064       41.750       27.287       29.160       26.782      744.589      850.333      717.279        0.383        0.116       59.978       22.280        0.138      331.066       -1.158      862.272
12/29/2014  08:20:00       21.341       37.024       34.510       24.700       23.021       20.691      610.103      529.969      428.111        0.229        0.078       42.734       15.527        0.132      331.145       -1.028      862.300
12/29/2014  08:21:00       24.884       15.052       38.104       32.413       60.445       28.202     1050.594     3653.654      795.378        0.390        0.275       29.082       25.229        0.753      331.128       -1.057      862.316
12/29/2014  08:22:00       44.925       52.607       60.694       40.822       50.296       22.351     1666.465     2529.656      499.584        0.658        0.235       69.179       15.867        0.053      331.113       -1.080      862.332
12/29/2014  08:23:00       58.273       83.944       60.710       47.908       35.213       34.165     2295.151     1239.952     1167.219        0.941        0.235      102.187       28.719        0.079      331.122       -1.067      862.331
12/29/2014  08:24:00       22.866       76.596       82.178       50.105       41.247       35.328     2510.521     1701.288     1248.095        0.930        0.273       79.936       33.803        0.179      331.141       -1.036      862.336
12/29/2014  08:25:00       86.028       66.904       46.439       33.511       32.138       31.557     1122.984     1032.851      995.842        0.859        0.158      108.981       22.085        0.041      331.010       -1.251      862.352
12/29/2014  08:26:00       65.847       65.010       60.611       31.353       32.936       27.186      982.990     1084.799      739.105        0.752        0.140       92.531       21.423        0.054      331.055       -1.176      862.351
12/29/2014  08:27:00       77.069       75.602       30.678       62.774       32.039       43.453     3940.606     1026.508     1888.157        0.972        0.343      107.960       46.677        0.187      331.072       -1.149      862.340
12/29/2014  08:28:00       40.633       81.528       89.090       60.883       42.815       35.358     3706.721     1833.111     1250.172        1.151        0.340       91.093       35.152        0.149      331.140       -1.037      862.314
12/29/2014  08:29:00       12.324       45.673       81.759       45.009       46.502       31.165     2025.834     2162.469      971.271        0.704        0.258       47.307       32.588        0.475      331.338       -0.712      862.284
12/29/2014  08:30:00       66.026      107.354      107.980       50.200       42.520       39.654     2520.070     1807.987     1572.431        1.672        0.295      126.033       33.107        0.069      330.988       -1.287      862.267
12/29/2014  08:31:00       74.684      106.163      105.879       60.779       38.050       32.264     3694.124     1447.813     1040.981        1.712        0.309      129.800       28.464        0.048      330.952       -1.347      862.260
12/29/2014  08:32:00       45.441       81.390       68.347       54.941       37.699       46.912     3018.530     1421.238     2200.698        1.000        0.332       93.216       40.611        0.190      331.058       -1.171      862.269
12/29/2014  08:33:00       25.556      -31.383       18.834       44.913       83.203       39.980     2017.135     6922.760     1598.400        0.626        0.527       40.473       44.601        1.214      331.110       -1.086      862.275
12/29/2014  08:34:00       94.228      -94.279      -13.690       40.181       50.033       31.020     1614.538     2503.275      962.255        1.152        0.254      133.295       25.201        0.036      331.077       -1.142      862.284
12/29/2014  08:35:00       32.612       47.566       81.832       50.771       85.053       49.152     2577.667     7233.948     2415.965        1.112        0.611       57.672       53.841        0.872      331.080       -1.136      862.300
12/29/2014  08:36:00       59.835      -47.654       26.353       34.173       61.420       35.288     1167.818     3772.443     1245.271        0.636        0.309       76.493       38.303        0.251      331.185       -0.963      862.352
12/29/2014  08:37:00       14.917      -16.148       37.829       25.619       36.566       26.451      656.347     1337.094      699.642        0.230        0.135       21.984       23.767        1.169      331.367       -0.665      862.380
12/29/2014  08:38:00        7.276       -5.346       34.978       33.432       54.068       35.355     1117.704     2923.309     1249.950        0.330        0.265        9.029       33.029       13.381      331.520       -0.411      862.362
12/29/2014  08:39:00       43.173       97.256       89.274       53.032       45.742       33.582     2812.434     2092.330     1127.766        1.266        0.302      106.408       25.420        0.057      331.247       -0.861      862.309
12/29/2014  08:40:00      101.637       87.383       59.080       83.542       48.159       51.413     6979.243     2319.245     2643.288        1.670        0.597      134.037       55.128        0.169      331.122       -1.068      862.312
12/29/2014  08:41:00       64.832       26.691       34.988       53.324       51.653       43.848     2843.453     2668.072     1922.635        0.679        0.372       70.111       25.183        0.129      331.117       -1.076      862.362
12/29/2014  08:42:00        1.063       43.211       57.877       20.421       31.320       19.862      417.018      980.964      394.496        0.350        0.090       43.224       13.898        0.103      331.430       -0.560      862.381
12/29/2014  08:43:00       10.221       78.624       93.630       27.841       55.622       29.942      775.117     3093.835      896.504        0.991        0.238       79.286       34.467        0.189      331.456       -0.516      862.365
12/29/2014  08:44:00       74.646       96.506       84.091       60.548       48.048       41.250     3666.003     2308.589     1701.552        1.481        0.384      122.005       35.352        0.084      331.211       -0.920      862.377
12/29/2014  08:45:00       13.092       21.117       43.652       27.820       22.796       20.507      773.979      519.663      420.527        0.212        0.086       24.846       22.281        0.804      331.397       -0.615      862.394
12/29/2014  08:46:00       44.904      -49.311       19.139       36.731       56.604       30.612     1349.166     3203.959      937.083        0.515        0.275       66.693       30.701        0.212      331.501       -0.444      862.381
12/29/2014  08:47:00       23.492      -15.144       37.039       45.486       49.137       29.188     2069.015     2414.478      851.929        0.374        0.267       27.950       31.270        1.252      331.662       -0.177      862.392
12/29/2014  08:48:00       44.846       53.098       58.165       38.394       44.005       32.195     1474.076     1936.444     1036.541        0.633        0.222       69.502       17.050        0.060      331.534       -0.389      862.413
12/29/2014  08:49:00       80.269       58.383       44.664       46.316       40.576       42.709     2145.195     1646.437     1824.031        0.873        0.281       99.255       34.634        0.122      331.300       -0.774      862.388
12/29/2014  08:50:00       73.183       65.865       61.580       45.120       35.136       35.744     2035.805     1234.573     1277.607        0.902        0.227       98.458       30.209        0.094      331.314       -0.751      862.357
12/29/2014  08:51:00       63.729       48.973       47.424       39.587       28.014       32.860     1567.127      784.806     1079.750        0.607        0.172       80.373       24.056        0.090      331.387       -0.631      862.385
12/29/2014  08:52:00       84.561       34.286       29.444       44.751       49.210       27.591     2002.624     2421.605      761.269        0.719        0.259       91.248       31.932        0.122      331.354       -0.684      862.393
12/29/2014  08:53:00       42.321        5.684       33.782       48.015       40.117       32.063     2305.476     1609.336     1028.048        0.395        0.247       42.701       30.463        0.509      331.654       -0.192      862.380
12/29/2014  08:54:00       82.169       33.851       39.370       46.300       48.314       33.100     2143.677     2334.205     1095.583        0.751        0.279       88.869       33.223        0.140      331.389       -0.628      862.401
12/29/2014  08:55:00       53.203       45.348        0.798       23.228       23.839       26.429      539.547      568.274      698.500        0.335        0.090       69.907       18.995        0.074      331.413       -0.587      862.460
12/29/2014  08:56:00       72.746       41.797       18.220       37.521       30.798       29.813     1407.838      948.519      888.831        0.531        0.162       83.899       20.314        0.059      331.365       -0.666      862.463
12/29/2014  08:57:00       30.774       67.887       68.740       39.712       39.403       29.184     1577.054     1552.607      851.725        0.713        0.199       74.536       24.912        0.112      331.537       -0.384      862.434
12/29/2014  08:58:00       71.568       64.206       30.494       62.816       28.855       36.816     3945.848      832.599     1355.396        0.815        0.307       96.148       42.510        0.195      331.580       -0.313      862.430
12/29/2014  08:59:00      116.988       69.703        8.649       20.301       19.235       18.940      412.111      369.979      358.706        0.988        0.057      136.179        8.819        0.004      331.314       -0.751      862.454
12/29/2014  09:00:00      132.417       91.742        9.432       22.956       18.459       24.436      526.958      340.742      597.141        1.375        0.073      161.093        8.289        0.003      331.326       -0.731      862.479
12/29/2014  09:01:00      125.107       79.484        0.814       30.718       20.228       26.096      943.619      409.180      681.015        1.200        0.102      148.221       14.615        0.010      331.333       -0.719      862.483
12/29/2014  09:02:00       62.491       57.435        7.559       36.926       23.538       33.011     1363.555      554.049     1089.706        0.513        0.150       84.876       17.129        0.041      331.486       -0.468      862.488
12/29/2014  09:03:00       28.480       73.242       76.133       34.417       39.035       25.949     1184.560     1523.697      673.364        0.768        0.169       78.585       20.506        0.068      331.696       -0.123      862.500
12/29/2014  09:04:00       30.448       55.104       63.044       32.307       31.020       20.838     1043.717      962.271      434.226        0.519        0.122       62.956       18.199        0.084      331.807        0.061      862.508
12/29/2014  09:05:00       70.257       67.566       56.563       35.656       22.055       22.020     1271.375      486.443      484.875        0.747        0.112       97.474       12.753        0.017      331.822        0.086      862.510
12/29/2014  09:06:00       99.831       69.543        8.736       18.457       24.406       24.314      340.650      595.634      591.156        0.820        0.076      121.666        8.362        0.005      331.705       -0.107      862.506
12/29/2014  09:07:00       50.430       73.404       34.689       31.888       25.449       45.747     1016.831      647.631     2092.754        0.645        0.188       89.058       15.730        0.031      332.025        0.419      862.484
12/29/2014  09:08:00       85.810       92.203       74.227       37.144       29.470       33.269     1379.695      868.456     1106.807        1.236        0.168      125.955       14.872        0.014      331.881        0.181      862.458
12/29/2014  09:09:00       85.433       51.057       13.922       40.132       41.048       43.498     1610.550     1684.975     1892.060        0.764        0.259       99.527       28.503        0.082      331.948        0.293      862.477
12/29/2014  09:10:00       40.163       79.777       83.288       51.566       54.198       46.847     2659.007     2937.439     2194.642        1.135        0.390       89.316       45.024        0.254      332.122        0.578      862.487
12/29/2014  09:11:00       99.207       83.353       56.428       34.350       38.252       38.538     1179.935     1463.235     1485.174        1.205        0.206      129.576       25.957        0.040      331.967        0.324      862.518
12/29/2014  09:12:00       18.086       11.374       42.977       36.378       26.085       19.247     1323.392      680.407      370.431        0.234        0.119       21.365       18.235        0.728      332.224        0.748      862.531
12/29/2014  09:13:00       43.775       60.412       17.629       39.777       34.778       28.215     1582.219     1209.513      796.083        0.473        0.179       74.604       24.466        0.108      332.117        0.571      862.550
12/29/2014  09:14:00       33.567       50.923       26.913       26.536       30.877       48.792      704.152      953.407     2380.657        0.424        0.202       60.991       25.180        0.170      332.107        0.555      862.556
12/29/2014  09:15:00       12.718       45.607       67.532       28.446       42.493       28.180      809.151     1805.633      794.090        0.510        0.170       47.347       25.949        0.300      332.354        0.963      862.568
12/29/2014  09:16:00       71.930       37.210       16.621       35.898       53.078       27.933     1288.694     2817.307      780.231        0.586        0.244       80.985       18.049        0.050      332.215        0.732      862.585
12/29/2014  09:17:00       38.790       58.102       53.496       53.679       32.788       32.501     2881.486     1075.056     1056.340        0.638        0.251       69.861       34.441        0.243      332.571        1.320      862.567
12/29/2014  09:18:00       90.199      111.462        6.690      101.045       64.101       46.480    10210.151     4108.994     2160.425        1.854        0.824      143.386       41.441        0.084      332.776        1.656      862.560
12/29/2014  09:19:00       96.615      146.079       13.586       90.033       95.426       71.040     8105.928     9106.133     5046.744        2.655        1.113      175.139       59.316        0.115      332.969        1.976      862.552
12/29/2014  09:20:00      206.496      207.628        7.592      153.436       98.857       96.865    23542.543     9772.802     9382.904        6.424        2.135      292.831       65.777        0.050      332.842        1.765      862.521
12/29/2014  09:21:00      124.367      178.534       14.424      130.229      139.003       78.763    16959.466    19321.882     6203.631        4.501        2.124      217.581       78.101        0.129      332.864        1.802      862.541
12/29/2014  09:22:00      208.285      188.042       24.443      188.437      128.768      102.210    35508.382    16581.243    10446.893        7.093        3.127      280.610       77.489        0.076      332.878        1.824      862.565
12/29/2014  09:23:00      140.699      173.220        2.750       96.293      125.690       84.318     9272.424    15797.888     7109.596        4.099        1.609      223.162       79.699        0.128      332.900        1.861      862.577
12/29/2014  09:24:00      128.322      180.398       19.108      136.852      123.855       97.134    18728.493    15340.170     9435.041        4.643        2.175      221.382       84.696        0.146      332.842        1.764      862.588
12/29/2014  09:25:00      125.334      141.385       17.281      122.515       98.363       72.308    15009.874     9675.210     5228.466        3.295        1.496      188.940       51.479        0.074      332.868        1.808      862.586
12/29/2014  09:26:00      113.607      145.846       10.508      122.625       92.248       58.926    15036.983     8509.620     3472.253        3.065        1.351      184.872       55.669        0.091      332.941        1.929      862.577
12/29/2014  09:27:00       67.698      107.154      -12.551       57.644       81.446       44.025     3322.864     6633.390     1938.231        1.406        0.595      126.747       42.077        0.110      333.021        2.063      862.568
12/29/2014  09:28:00      135.478      122.745       11.246      127.701       74.571       64.176    16307.536     5560.821     4118.568        2.976        1.299      182.813       48.045        0.069      332.986        2.003      862.564
12/29/2014  09:29:00       72.094      127.496       -3.352      100.267      122.627       63.499    10053.458    15037.353     4032.162        2.529        1.456      146.468       65.554        0.200      333.020        2.059      862.564
12/29/2014  09:30:00      108.276      154.378        0.504      108.659      129.749       92.436    11806.813    16834.681     8544.461        3.636        1.859      188.563       80.890        0.184      332.927        1.905      862.582
12/29/2014  09:31:00      126.948      179.337       23.213      129.682      128.698       87.810    16817.300    16563.060     7710.556        4.495        2.055      219.722       84.666        0.148      332.863        1.799      862.575
12/29/2014  09:32:00      125.873      191.940        0.028      125.312      118.491       78.791    15703.145    14040.003     6208.085        4.431        1.798      229.532       67.534        0.087      332.917        1.889      862.574
12/29/2014  09:33:00      111.487      154.097       12.125      101.050      106.549       80.907    10211.101    11352.778     6545.908        3.221        1.405      190.198       59.068        0.096      332.953        1.949      862.565
12/29/2014  09:34:00      108.443      129.775       -6.905       72.089       75.194       51.032     5196.807     5654.132     2604.249        2.105        0.673      169.120       38.965        0.053      333.041        2.094      862.555
12/29/2014  09:35:00      102.847      229.535        4.274      144.071      141.395       78.883    20756.513    19992.536     6222.524        5.512        2.349      251.523       60.605        0.058      332.974        1.983      862.565
12/29/2014  09:36:00      108.639      137.798       34.947      114.275      123.693       90.794    13058.724    15299.955     8243.547        3.430        1.830      175.473       75.474        0.185      332.951        1.946      862.573
12/29/2014  09:37:00      116.896       70.873       26.957       96.680       59.220       54.332     9346.927     3507.057     2951.968        1.761        0.790      136.703       22.446        0.027      333.122        2.230      862.554
12/29/2014  09:38:00      144.583      128.625        8.907       98.288       91.363       61.173     9660.480     8347.189     3742.129        2.963        1.087      193.517       51.355        0.070      333.121        2.226      862.538
12/29/2014  09:39:00      143.181      167.860       32.604      119.510       96.161       86.624    14282.686     9246.993     7503.685        4.038        1.552      220.631       61.032        0.077      332.999        2.025      862.546
12/29/2014  09:40:00       99.931      214.201        6.082      133.536      164.111       91.314    17831.862    26932.422     8338.199        5.449        2.655      236.365       91.361        0.149      333.011        2.045      862.544
12/29/2014  09:41:00      101.940      266.573      -13.625      108.285      149.360      108.224    11725.619    22308.524    11712.537        6.368        2.287      285.400      101.045        0.125      333.019        2.057      862.528
12/29/2014  09:42:00      170.429      183.183        9.425      155.550      111.655       91.021    24195.712    12466.841     8284.905        5.381        2.247      250.204       87.123        0.121      333.058        2.124      862.514
12/29/2014  09:43:00      158.051      190.876      -12.453      122.444      114.093       75.698    14992.589    13017.248     5730.251        4.765        1.687      247.818       62.436        0.063      333.084        2.165      862.504
12/29/2014  09:44:00      111.050      175.620        3.028      108.890      118.065      110.029    11857.067    13939.372    12106.402        4.054        1.895      207.785       86.521        0.173      333.138        2.254      862.515
12/29/2014  09:45:00       99.130      204.167       -1.673      101.125      122.923       85.973    10226.208    15110.164     7391.287        4.211        1.636      226.960       77.053        0.115      333.067        2.136      862.491
12/29/2014  09:46:00       58.963      203.924      -20.833       72.355      124.282       67.467     5235.198    15445.923     4551.735        3.536        1.262      212.277       64.358        0.092      333.119        2.222      862.493
12/29/2014  09:47:00       83.324      175.227        4.546       86.823      137.283       67.519     7538.305    18846.582     4558.785        3.430        1.547      194.030       73.133        0.142      333.180        2.324      862.500
12/29/2014  09:48:00       75.135      137.485        6.982       85.048       79.908       61.613     7233.245     6385.260     3796.168        2.100        0.871      156.676       52.629        0.113      333.124        2.233      862.516
12/29/2014  09:49:00       49.898       74.625       15.256       74.623       57.777       46.901     5568.598     3338.161     2199.704        0.970        0.555       89.771       36.201        0.163      333.239        2.423      862.532
12/29/2014  09:50:00       66.459      147.647      -18.666       74.319       86.995       59.543     5523.359     7568.070     3545.406        2.160        0.832      161.915       55.320        0.117      333.290        2.505      862.548
12/29/2014  09:51:00      -26.690      231.254      -21.016       97.980      178.438       63.117     9600.093    31839.963     3983.775        5.002        2.271      232.789       82.216        0.125      333.148        2.272      862.564
12/29/2014  09:52:00      -21.097      301.046      -41.753       85.769      140.262       56.017     7356.276    19673.355     3137.870        6.149        1.508      301.784       65.489        0.047      332.984        2.000      862.556
12/29/2014  09:53:00      -11.183      242.244      -10.450       65.428      124.013       60.743     4280.825    15379.252     3689.653        4.113        1.167      242.502       66.081        0.074      333.158        2.286      862.541
12/29/2014  09:54:00      -45.676      267.929      -32.822       88.913      133.735       51.530     7905.532    17884.980     2655.297        5.169        1.422      271.794       59.715        0.048      333.009        2.042      862.531
12/29/2014  09:55:00      -45.673      255.778      -25.665       75.598      157.262       50.407     5715.027    24731.230     2540.862        5.057        1.649      259.823       73.026        0.079      333.093        2.179      862.527
12/29/2014  09:56:00        7.854      319.523      -30.029      101.344      103.708       68.913    10270.630    10755.411     4748.998        6.441        1.289      319.619       64.671        0.041      333.101        2.193      862.556
12/29/2014  09:57:00        1.259      250.802      -16.419       67.530      115.079       59.438     4560.237    13243.089     3532.866        4.225        1.067      250.805       63.772        0.065      333.142        2.262      862.554
12/29/2014  09:58:00      -82.704      200.675      -15.047       76.741       97.354       56.581     5889.200     9477.765     3201.387        3.295        0.928      217.050       53.972        0.062      333.163        2.295      862.547
12/29/2014  09:59:00      -78.312      196.306      -24.213       55.338       61.280       32.868     3062.281     3755.293     1080.289        2.657        0.395      211.350       23.826        0.013      333.113        2.214      862.520
12/29/2014  10:00:00      -23.630      136.295       -7.819       39.075       55.569       34.081     1526.831     3087.963     1161.506        1.248        0.289      138.328       24.442        0.031      333.480        2.823      862.486
12/29/2014  10:01:00        1.369      214.916      -25.952       57.536      111.457       46.907     3310.356    12422.599     2200.222        3.240        0.897      214.921       60.640        0.080      333.454        2.778      862.469
12/29/2014  10:02:00       47.012      106.935        2.727      103.619       92.610       47.306    10736.959     8576.560     2237.811        1.760        1.078      116.812       47.102        0.163      333.574        2.975      862.468
12/29/2014  10:03:00      189.137      150.408       15.843      128.173       90.414       69.547    16428.374     8174.742     4836.730        4.404        1.472      241.651       42.845        0.031      333.516        2.880      862.489
12/29/2014  10:04:00      104.513       92.550        7.067      106.116       74.520       58.704    11260.529     5553.201     3446.130        1.990        1.013      139.601       41.470        0.088      333.460        2.787      862.497
12/29/2014  10:05:00       -3.886      153.070      -10.140       71.708      151.053       58.444     5142.062    22817.089     3415.659        2.746        1.569      153.119       66.527        0.189      333.540        2.920      862.501
12/29/2014  10:06:00       90.044      155.405       18.083      114.218      100.640      100.780    13045.742    10128.497    10156.646        3.295        1.667      179.607       70.391        0.154      333.314        2.545      862.493
12/29/2014  10:07:00       72.106      201.325      -13.501      116.832      134.612       71.090    13649.755    18120.276     5053.789        4.136        1.841      213.849       70.109        0.107      333.220        2.390      862.451
12/29/2014  10:08:00       84.328      164.371       16.650       90.209      134.762       80.800     8137.636    18160.895     6528.577        3.361        1.641      184.740       81.087        0.193      333.369        2.636      862.441
12/29/2014  10:09:00       74.142      227.764       -0.601       97.168      174.841       93.347     9441.671    30569.465     8713.612        5.304        2.436      239.527       95.607        0.159      333.246        2.434      862.432
12/29/2014  10:10:00      125.935      197.117       -6.311       94.656      129.238       88.767     8959.684    16702.458     7879.566        4.414        1.677      233.912       77.940        0.111      333.247        2.434      862.423
12/29/2014  10:11:00       36.465      222.817      -24.323       79.004      156.194       74.393     6241.603    24396.480     5534.354        4.386        1.809      225.781       88.102        0.152      333.212        2.375      862.426
12/29/2014  10:12:00      -16.400      391.134      -47.536       70.575      138.212       48.386     4980.801    19102.477     2341.236        9.096        1.321      391.478       65.564        0.028      333.033        2.082      862.382
12/29/2014  10:13:00       -0.382      278.996      -32.016       53.789       90.631       42.485     2893.286     8213.952     1804.999        4.589        0.646      278.996       46.345        0.028      333.145        2.266      862.341
12/29/2014  10:14:00       -0.022      145.802        1.456       40.373      107.583       41.318     1629.971    11574.200     1707.178        1.808        0.746      145.802       51.664        0.126      333.558        2.949      862.348
12/29/2014  10:15:00       46.945      191.351      -28.232       55.458       97.557       49.695     3075.630     9517.381     2469.592        2.734        0.753      197.026       50.210        0.065      333.498        2.849      862.373
12/29/2014  10:16:00       60.188      129.255       -7.827       71.308       81.470       61.813     5084.855     6637.284     3820.879        1.796        0.777      142.581       56.406        0.157      333.521        2.889      862.378
12/29/2014  10:17:00       93.033      109.611        3.896       81.364       81.860       52.109     6620.070     6701.087     2715.334        1.836        0.802      143.770       50.216        0.122      333.435        2.746      862.357
12/29/2014  10:18:00       64.153      119.078       10.157       60.156       73.877       50.744     3618.732     5457.838     2574.926        1.502        0.583      135.260       40.349        0.089      333.522        2.891      862.338
12/29/2014  10:19:00       48.362       70.044       -6.163       54.556       67.786       43.361     2976.368     4594.905     1880.174        0.837        0.473       85.118       43.708        0.264      333.731        3.238      862.321
12/29/2014  10:20:00      125.734      101.691       13.864      104.105       72.176       55.152    10837.824     5209.367     3041.696        2.271        0.954      161.710       32.856        0.041      333.593        3.009      862.321
12/29/2014  10:21:00       10.620      229.973      -32.155       64.356      102.931       46.965     4141.699    10594.708     2205.727        3.548        0.847      230.218       54.281        0.056      333.557        2.946      862.329
12/29/2014  10:22:00       15.598       84.082       13.161       73.121       69.589       50.708     5346.669     4842.569     2571.253        1.012        0.638       85.516       51.761        0.366      333.758        3.283      862.324
12/29/2014  10:23:00      142.417      103.535       38.072      137.525       79.181       53.669    18913.060     6269.663     2880.357        3.025        1.403      176.074       29.925        0.029      333.544        2.924      862.293
12/29/2014  10:24:00      123.146      170.663       11.127      126.343       98.227       62.016    15962.658     9648.576     3845.939        3.693        1.473      210.454       55.686        0.070      333.462        2.790      862.263
12/29/2014  10:25:00      128.514       98.062       29.376      105.326       89.908       57.417    11093.617     8083.472     3296.769        2.473        1.124      161.654       45.941        0.081      333.461        2.789      862.234
12/29/2014  10:26:00      220.593      153.527       42.830       89.385       79.079       72.157     7989.753     6253.439     5206.657        4.675        0.972      268.760       35.271        0.017      333.445        2.761      862.211
12/29/2014  10:27:00      184.135      145.442       43.833       88.748       72.542       78.236     7876.247     5262.355     6120.888        3.812        0.963      234.647       45.046        0.037      333.574        2.974      862.184
12/29/2014  10:28:00      124.446      113.949        5.170       79.876       67.756       74.520     6380.226     4590.829     5553.266        2.251        0.826      168.734       41.200        0.060      333.584        2.992      862.185
12/29/2014  10:29:00       17.652      245.176      -26.277       57.035      125.722       54.073     3253.027    15805.992     2923.943        4.154        1.099      245.811       61.503        0.063      333.441        2.755      862.188
12/29/2014  10:30:00      155.331      133.877       20.838       93.135       73.987       72.645     8674.113     5474.077     5277.247        3.095        0.971      205.063       47.659        0.054      333.398        2.684      862.185
12/29/2014  10:31:00      119.374      121.733      -11.511       74.159       51.825       54.104     5499.617     2685.790     2927.244        2.015        0.556      170.497       31.333        0.034      333.520        2.886      862.128
12/29/2014  10:32:00      174.546      109.648       10.228       68.298       44.619       42.921     4664.570     1990.875     1842.171        2.554        0.425      206.129       27.886        0.018      333.320        2.555      862.105
12/29/2014  10:33:00       50.949      161.704      -14.710       73.642       85.258       41.074     5423.121     7268.914     1687.059        2.167        0.719      169.540       40.394        0.057      333.442        2.758      862.104
12/29/2014  10:34:00        8.955      227.169      -15.267       76.594      140.586       61.067     5866.618    19764.388     3729.174        4.063        1.468      227.345       70.872        0.097      333.420        2.720      862.102
12/29/2014  10:35:00       30.786      159.068       15.303       82.854      125.582       65.353     6864.715    15770.829     4271.040        2.669        1.345      162.019       67.881        0.176      333.575        2.979      862.087
12/29/2014  10:36:00      191.830      116.178       18.282      158.543       71.216       63.093    25135.845     5071.707     3980.753        4.240        1.709      224.268       47.497        0.045      333.506        2.863      862.090
12/29/2014  10:37:00       90.787      144.880       -4.827       64.489       91.540       61.077     4158.858     8379.552     3730.447        2.276        0.813      170.975       52.265        0.093      333.380        2.655      862.092
12/29/2014  10:38:00       74.243      237.480      -17.529      104.247      133.432       63.108    10867.446    17804.054     3982.609        4.743        1.633      248.815       68.751        0.076      333.350        2.603      862.043
12/29/2014  10:39:00       94.566      225.460      -11.191      106.375      110.604       57.360    11315.637    12233.298     3290.143        4.336        1.342      244.489       62.937        0.066      333.404        2.694      861.998
12/29/2014  10:40:00      113.916      154.855       -1.263       94.301      109.318       59.329     8892.760    11950.437     3519.981        3.066        1.218      192.242       53.684        0.078      333.586        2.996      861.968
12/29/2014  10:41:00       80.474      123.494       -2.990       80.031       70.438       65.243     6404.893     4961.576     4256.653        1.868        0.781      147.401       42.774        0.084      333.581        2.989      861.968
12/29/2014  10:42:00       46.511      178.603      -18.459       68.223      117.305       43.401     4654.312    13760.452     1883.632        2.735        1.015      184.559       55.705        0.091      333.473        2.809      861.920
12/29/2014  10:43:00      213.612      162.720       15.315      106.073       90.439       65.824    11251.407     8179.161     4332.735        4.805        1.188      268.529       64.541        0.058      333.484        2.826      861.858
12/29/2014  10:44:00       85.437      108.248       16.182       71.618       78.841       55.344     5129.165     6215.884     3062.959        1.684        0.720      137.903       51.094        0.137      333.502        2.858      861.820
12/29/2014  10:45:00       29.151       75.365        2.650       35.714       54.313       31.121     1275.495     2949.927      968.534        0.586        0.260       80.806       34.102        0.178      333.563        2.960      861.802
12/29/2014  10:46:00        7.404       43.276       -4.192       49.090       37.667       22.122     2409.866     1418.821      489.395        0.313        0.216       43.905       20.641        0.221      333.844        3.426      861.782
12/29/2014  10:47:00       44.350       67.486        3.058       44.345       37.648       28.013     1966.476     1417.379      784.736        0.535        0.208       80.755       19.881        0.061      333.871        3.471      861.770
12/29/2014  10:48:00       53.738      128.282        7.407       63.568      113.460       59.811     4040.873    12873.258     3577.333        1.994        1.025      139.083       69.630        0.251      333.711        3.202      861.752
12/29/2014  10:49:00       43.980      105.314        8.947       52.699       61.839       49.298     2777.217     3824.089     2430.339        1.107        0.452      114.129       40.060        0.123      333.654        3.110      861.700
12/29/2014  10:50:00      103.126       77.383        1.356       41.330       41.531       33.866     1708.155     1724.861     1146.938        1.060        0.229      128.931       17.621        0.019      333.488        2.836      861.657
12/29/2014  10:51:00      135.140       89.852       -7.021       41.924       44.647       30.387     1757.647     1993.335      923.359        1.553        0.234      162.284       20.464        0.016      333.410        2.705      861.632
12/29/2014  10:52:00       98.004       81.986       -3.107       68.018       54.988       45.553     4626.420     3023.727     2075.066        1.303        0.486      127.775       28.740        0.051      333.564        2.960      861.632
12/29/2014  10:53:00       -3.410       94.446       14.863       67.005       91.341       46.777     4489.616     8343.103     2188.064        1.208        0.751       94.508       50.654        0.287      333.845        3.426      861.635
12/29/2014  10:54:00       -9.396      338.241      -44.058       39.410       60.536       26.793     1553.129     3664.578      717.840        6.118        0.297      338.372       20.841        0.004      333.303        2.526      861.628
12/29/2014  10:55:00        8.534      162.977       -4.392       50.224       90.639       50.504     2522.469     8215.453     2550.658        1.997        0.664      163.200       56.409        0.119      333.730        3.236      861.617
12/29/2014  10:56:00       -0.857      108.892       -3.119       40.378       73.579       35.998     1630.420     5413.910     1295.868        1.010        0.417      108.895       32.180        0.087      333.841        3.419      861.591
12/29/2014  10:57:00       38.679       20.018       27.843       66.266       86.852       36.921     4391.217     7543.295     1363.186        0.798        0.665       43.552       41.526        0.909      333.776        3.311      861.523
12/29/2014  10:58:00       27.714      -13.415       19.259       47.466       67.449       29.507     2253.038     4549.305      870.661        0.449        0.384       30.790       29.367        0.910      333.841        3.421      861.498
12/29/2014  10:59:00       89.875       74.142       -2.016       61.463       35.654       35.745     3777.736     1271.217     1277.675        0.995        0.316      116.510       22.142        0.036      333.932        3.571      861.478
12/29/2014  11:00:00       63.803       57.874        3.239       49.242       43.564       40.286     2424.773     1897.842     1622.999        0.669        0.297       86.141       22.694        0.069      334.027        3.729      861.468
12/29/2014  11:01:00       33.426       93.335       41.883       65.081       57.985       66.279     4235.478     3362.282     4392.851        1.178        0.600       99.139       32.880        0.110      333.925        3.559      861.442
12/29/2014  11:02:00       29.449       55.585       16.752       47.945       53.431       37.924     2298.719     2854.925     1438.244        0.541        0.330       62.904       31.882        0.257      333.954        3.607      861.418
12/29/2014  11:03:00      117.393      101.807       60.900      103.676       46.978       57.149    10748.684     2206.928     3266.056        2.203        0.811      155.389       63.529        0.167      334.026        3.726      861.356
12/29/2014  11:04:00       44.397       64.377       62.223       55.068       41.818       38.531     3032.450     1748.786     1484.609        0.813        0.313       78.202       34.393        0.193      333.913        3.540      861.306
12/29/2014  11:05:00        8.840      149.247       -8.990       66.151      119.565       35.711     4375.956    14295.863     1275.273        2.119        0.997      149.508       51.391        0.118      333.764        3.292      861.304
12/29/2014  11:06:00      -13.376      199.923      -21.606       41.748       52.656       30.691     1742.901     2772.609      941.931        2.304        0.273      200.370       21.132        0.011      333.489        2.835      861.300
12/29/2014  11:07:00      -25.381      207.363      -22.223       38.402       64.993       28.004     1474.716     4224.143      784.226        2.531        0.324      208.910       26.630        0.016      333.671        3.138      861.259
12/29/2014  11:08:00       23.709      217.755      -35.990       54.973      113.025       46.110     3022.084    12774.591     2126.172        3.360        0.896      219.042       57.652        0.069      333.950        3.599      861.233
12/29/2014  11:09:00       25.368      101.732        5.990       62.175       70.925       37.306     3865.756     5030.397     1391.703        1.066        0.514      104.847       32.238        0.095      333.799        3.350      861.218
12/29/2014  11:10:00      140.218       81.136       44.075       66.173       47.257       51.712     4378.924     2233.237     2674.152        1.873        0.464      162.000       32.830        0.041      333.758        3.283      861.176
12/29/2014  11:11:00      136.940       92.231        5.624       67.665       53.889       50.077     4578.499     2904.001     2507.700        1.864        0.500      165.104       27.911        0.029      333.868        3.464      861.125
12/29/2014  11:12:00       83.062       94.028        5.286       69.950       71.059       54.067     4893.051     5049.347     2923.211        1.431        0.643      125.461       36.570        0.085      334.172        3.967      861.076
12/29/2014  11:13:00      128.822       90.872       37.339       65.534       50.029       44.421     4294.738     2502.874     1973.221        1.751        0.439      157.648       19.189        0.015      333.863        3.455      861.074
12/29/2014  11:14:00      197.751      146.996       55.900      101.834       76.012       82.370    10370.244     5777.856     6784.751        4.338        1.147      246.401       72.289        0.086      333.818        3.377      861.078
12/29/2014  11:15:00      119.271      112.142      103.862      111.828       86.058       72.183    12505.480     7405.967     5210.371        3.135        1.256      163.712       70.168        0.184      333.826        3.392      861.018
12/29/2014  11:16:00       77.615      104.208      105.770       78.379       72.369       45.862     6143.216     5237.244     2103.323        2.077        0.674      129.936       44.354        0.117      333.729        3.234      860.987
12/29/2014  11:17:00       94.413       89.717       86.235       88.575       58.872       55.613     7845.577     3465.901     3092.757        1.940        0.720      130.242       29.891        0.053      333.813        3.373      860.969
12/29/2014  11:18:00        5.721       43.189       30.571       48.083       37.386       32.197     2312.007     1397.744     1036.657        0.379        0.237       43.566       31.346        0.518      334.284        4.155      860.970
12/29/2014  11:19:00       40.307       73.196       28.662       51.145       47.237       62.571     2615.802     2231.320     3915.145        0.828        0.438       83.560       33.639        0.162      334.133        3.903      860.958
12/29/2014  11:20:00       59.821      118.911       91.749       76.493       72.429       68.286     5851.120     5245.992     4662.951        2.095        0.788      133.111       57.555        0.187      334.188        3.994      860.910
12/29/2014  11:21:00      177.305      129.058       37.014       67.681       50.369       53.981     4580.746     2537.010     2913.967        2.975        0.502      219.301       31.654        0.021      333.782        3.319      860.869
12/29/2014  11:22:00      161.024      113.742       49.363       94.289       53.866       73.896     8890.447     2901.533     5460.585        2.927        0.863      197.144       61.548        0.097      333.729        3.231      860.863
12/29/2014  11:23:00      154.478       93.696       39.931       81.556       68.750       61.406     6651.423     4726.599     3770.723        2.469        0.757      180.672       41.478        0.053      334.039        3.745      860.828
12/29/2014  11:24:00      168.215      101.729       23.818       94.843       72.408       56.345     8995.236     5242.872     3174.785        2.831        0.871      196.583       31.154        0.025      333.950        3.598      860.805
12/29/2014  11:25:00      105.801       62.329       14.642       94.709       80.447       51.067     8969.770     6471.728     2607.797        1.667        0.902      122.796       44.183        0.129      334.019        3.714      860.796
12/29/2014  11:26:00      124.787       77.752       22.665       93.858       62.361       56.116     8809.410     3888.918     3149.035        1.899        0.792      147.028       33.364        0.051      333.957        3.611      860.750
12/29/2014  11:27:00       54.886       25.858       -6.141       51.756       83.867       42.931     2678.718     7033.668     1843.095        0.763        0.578       60.672       27.258        0.202      334.008        3.698      860.686
12/29/2014  11:28:00       53.598       68.071       72.929       79.504       41.639       40.748     6320.947     1733.780     1660.390        1.127        0.486       86.639       44.452        0.263      334.203        4.020      860.650
12/29/2014  11:29:00      104.490       66.474        5.151      108.080       60.900       44.921    11681.254     3708.757     2017.881        1.638        0.870      123.843       30.473        0.061      334.308        4.195      860.623
12/29/2014  11:30:00      157.245      103.647        5.345       66.185       47.814       47.784     4380.436     2286.156     2283.275        2.222        0.447      188.332       32.321        0.029      333.610        3.035      860.579
12/29/2014  11:31:00      149.360       96.776       38.800       58.515       49.128       46.526     3424.021     2413.524     2164.644        2.059        0.400      177.972       22.255        0.016      334.066        3.790      860.526
12/29/2014  11:32:00       99.815       80.105        1.186       66.659       43.589       41.775     4443.480     1900.043     1745.184        1.223        0.404      127.984       28.872        0.051      334.192        4.002      860.523
12/29/2014  11:33:00       49.547      113.219      -17.143       42.667       51.892       26.420     1820.445     2692.762      698.015        1.039        0.261      123.586       20.179        0.027      333.957        3.612      860.542
12/29/2014  11:34:00       34.057      111.831        3.132       38.967       61.322       42.544     1518.412     3760.335     1810.028        1.038        0.354      116.902       39.335        0.113      334.045        3.758      860.490
12/29/2014  11:35:00      106.222       71.027       16.500       58.281       39.256       36.660     3396.638     1541.016     1343.944        1.144        0.314      127.781       20.174        0.025      333.961        3.619      860.347
12/29/2014  11:36:00      107.153      128.153       94.740       77.674       50.712       62.779     6033.311     2571.738     3941.185        2.471        0.627      167.048       47.299        0.080      333.932        3.570      860.303
12/29/2014  11:37:00      121.865       81.211       95.138       97.113       67.403       56.698     9430.967     4543.174     3214.704        2.384        0.859      146.446       45.551        0.097      334.086        3.825      860.348
12/29/2014  11:38:00      100.887       94.216       52.039       92.620       65.653       71.846     8578.507     4310.364     5161.880        1.990        0.903      138.039       65.979        0.228      334.177        3.975      860.360
12/29/2014  11:39:00      156.846      112.024       15.682       37.163       35.099       37.516     1381.083     1231.937     1407.436        2.071        0.201      192.744       21.175        0.012      333.701        3.188      860.332
12/29/2014  11:40:00       67.966       27.934       33.115       78.194       52.178       34.685     6114.260     2722.500     1203.074        0.827        0.502       73.482       34.969        0.226      333.969        3.633      860.200
12/29/2014  11:41:00       15.468       -9.602       58.650       66.920       96.556       46.211     4478.305     9323.157     2135.478        0.985        0.797       18.206       54.900        9.094      334.559        4.610      860.091
12/29/2014  11:42:00       85.185       92.846       85.316       70.433       71.951       52.139     4960.847     5176.919     2718.441        1.800        0.643      126.003       39.599        0.099      334.257        4.109      860.100
12/29/2014  11:43:00       63.077       99.434       64.414       74.374       57.512       58.770     5531.507     3307.582     3453.959        1.515        0.615      117.753       53.074        0.203      334.099        3.848      860.184
12/29/2014  11:44:00      115.564       67.247        4.212       28.210       29.496       31.440      795.780      870.006      988.493        1.027        0.133      133.706        7.896        0.003      333.760        3.287      860.209
12/29/2014  11:45:00       86.605       82.479       37.461       44.000       35.317       46.880     1936.040     1247.295     2197.753        1.054        0.269      119.596       31.974        0.071      333.934        3.574      860.131
12/29/2014  11:46:00       88.979       92.151       13.312       63.624       58.223       49.721     4047.998     3389.880     2472.147        1.325        0.496      128.098       30.848        0.058      334.103        3.853      860.011
12/29/2014  11:47:00       84.242      139.661       -6.563       75.951       59.731       50.577     5768.483     3567.826     2558.009        1.927        0.595      163.101       44.589        0.075      333.862        3.454      859.938
12/29/2014  11:48:00       -7.827      132.829       -4.419       39.490       78.749       47.300     1559.458     6201.403     2237.297        1.386        0.500      133.059       38.440        0.083      334.019        3.714      859.948
12/29/2014  11:49:00        5.470       14.954       20.489       29.334       46.894       37.835      860.502     2199.041     1431.468        0.258        0.225       15.923       20.237        1.615      334.438        4.410      860.031
12/29/2014  11:50:00       77.044       21.935       29.094       42.621       49.611       42.273     1816.573     2461.261     1786.966        0.666        0.303       80.106       31.294        0.153      334.117        3.878      860.105
12/29/2014  11:51:00       32.253       -0.412       60.262       35.231       95.785       59.159     1241.210     9174.790     3499.793        0.929        0.696       32.256       57.013        3.124      334.239        4.080      860.094
12/29/2014  11:52:00       83.233      -14.037       56.961       46.108      133.461       73.076     2125.936    17811.837     5340.068        1.782        1.264       84.408       89.968        1.136      334.039        3.747      859.903
12/29/2014  11:53:00       49.131       47.483       96.129       61.934       56.626       65.378     3835.787     3206.537     4274.247        1.261        0.566       68.326       50.507        0.546      334.228        4.062      859.613
12/29/2014  11:54:00       64.557       26.814       -1.278       66.572       60.032       36.888     4431.779     3603.811     1360.758        0.714        0.470       69.904       33.763        0.233      334.327        4.227      859.580
12/29/2014  11:55:00       50.884       86.825        6.875       63.486       72.135       56.513     4030.461     5203.456     3193.773        1.130        0.621      100.637       46.901        0.217      334.209        4.031      859.845
12/29/2014  11:56:00      138.825      113.748      -12.160       83.562       56.936       39.695     6982.656     3241.705     1575.719        2.208        0.590      179.474       30.083        0.028      334.077        3.810      859.975
12/29/2014  11:57:00      150.595      133.605       84.882       99.757       51.852       67.756     9951.377     2688.638     4590.844        3.248        0.862      201.318       57.437        0.081      334.315        4.204      859.827
12/29/2014  11:58:00      148.765       98.850       35.602       53.549       38.968       48.355     2867.478     1518.533     2338.235        1.995        0.336      178.613       21.698        0.015      334.029        3.730      859.710
12/29/2014  11:59:00       80.748       70.552      123.161       83.016      131.007       88.224     6891.669    17162.917     7783.433        2.925        1.592      107.228      103.950        0.940      334.163        3.953      859.637
12/29/2014  12:00:00      204.872       74.976       80.308       77.795      114.309       74.977     6052.061    13066.509     5621.582        3.939        1.237      218.161       43.546        0.040      334.020        3.712      859.653
12/29/2014  12:01:00      137.458       61.155       25.088       66.933       67.866       48.519     4479.976     4605.765     2354.110        1.735        0.572      150.448       36.623        0.059      334.005        3.691      859.651
12/29/2014  12:02:00       96.029      132.474      129.776       85.955       68.175       64.096     7388.256     4647.794     4108.328        2.988        0.807      163.618       45.894        0.079      334.290        4.162      859.587
12/29/2014  12:03:00      201.831      180.752      107.468      103.918       84.098       94.662    10798.992     7072.479     8960.972        5.589        1.342      270.937       89.027        0.108      333.958        3.609      859.535
12/29/2014  12:04:00      212.833      102.873       38.428      113.890       86.460       88.867    12970.924     7475.278     7897.314        4.284        1.417      236.391       79.447        0.113      334.026        3.723      859.498
12/29/2014  12:05:00      155.437       71.674       47.832      118.995       75.152       63.652    14159.704     5647.831     4051.564        2.772        1.193      171.166       51.674        0.091      334.154        3.937      859.489
12/29/2014  12:06:00       74.695       23.659      102.229       78.216      130.329       79.817     6117.669    16985.530     6370.818        2.303        1.474       78.352       97.062        1.535      334.110        3.865      859.491
12/29/2014  12:07:00       64.520      -78.076       15.280       64.050       70.047       45.531     4102.431     4906.588     2073.093        1.078        0.554      101.285       48.382        0.228      334.332        4.233      859.458
12/29/2014  12:08:00       30.077      126.764      114.737       66.209       79.225       56.167     4383.638     6276.577     3154.733        2.197        0.691      130.284       48.686        0.140      334.572        4.632      859.384
12/29/2014  12:09:00      125.089      107.185       19.337       47.518       45.930       45.000     2257.991     2109.576     2025.024        1.695        0.320      164.730       31.605        0.037      334.226        4.057      859.341
12/29/2014  12:10:00       87.523       56.034       37.417       49.252       48.378       28.669     2425.762     2340.463      821.939        0.889        0.279      103.924       22.545        0.047      334.376        4.308      859.319
12/29/2014  12:11:00       65.897       92.068       88.634       55.173       45.881       34.543     3044.087     2105.111     1193.207        1.351        0.317      113.220       31.646        0.078      334.597        4.675      859.285
12/29/2014  12:12:00       81.830       66.222       51.212       53.952       41.892       51.637     2910.812     1754.943     2666.425        1.052        0.367      105.268       38.003        0.130      334.760        4.946      859.270
12/29/2014  12:13:00       47.401       50.201       59.235       38.467       41.539       38.586     1479.746     1725.523     1488.875        0.648        0.235       69.044       20.818        0.091      334.542        4.583      859.247
12/29/2014  12:14:00       91.723       98.367       48.864      114.096       59.139       57.943    13017.952     3497.433     3357.440        2.017        0.994      134.496       62.212        0.214      334.644        4.750      859.208
12/29/2014  12:15:00       22.486      122.236        1.200       47.136       75.519       45.908     2221.799     5703.193     2107.545        1.274        0.502      124.287       50.595        0.166      334.395        4.340      859.168
12/29/2014  12:16:00       -8.676      251.194      -19.789       57.556       99.930       46.875     3312.739     9985.907     2197.289        3.953        0.775      251.344       55.923        0.050      334.140        3.911      859.190
12/29/2014  12:17:00       13.375      245.675      -28.378       33.847       56.224       30.240     1145.635     3161.095      914.452        3.328        0.261      246.038       30.959        0.016      334.103        3.850      859.182
12/29/2014  12:18:00       30.700      124.283        4.669       65.521       75.432       50.733     4292.994     5690.050     2573.805        1.448        0.628      128.018       44.432        0.120      334.562        4.615      859.153
12/29/2014  12:19:00      135.718      131.431       62.689       81.374       66.176       69.885     6621.692     4379.307     4883.857        2.775        0.794      188.927       52.663        0.078      334.671        4.795      859.135
12/29/2014  12:20:00      125.080       92.252       51.532       61.136       53.907       53.417     3737.585     2905.917     2853.375        1.815        0.475      155.420       21.613        0.019      334.472        4.466      859.120
12/29/2014  12:21:00      122.818       89.636       30.725       67.625       46.563       46.326     4573.192     2168.081     2146.142        1.647        0.444      152.049       27.180        0.032      334.231        4.065      859.082
12/29/2014  12:22:00       10.164       75.399       12.244       42.486       63.367       38.935     1805.035     4015.330     1515.945        0.664        0.367       76.081       35.595        0.219      334.588        4.659      859.026
12/29/2014  12:23:00      113.684      103.718       20.130       85.962       57.962       44.090     7389.468     3359.576     1943.929        1.839        0.635      153.888       28.468        0.034      334.712        4.864      858.985
12/29/2014  12:24:00      129.043      128.357       17.071      106.403       88.931       55.858    11321.602     7908.765     3120.168        2.788        1.118      182.009       38.305        0.044      334.316        4.206      858.986
12/29/2014  12:25:00       69.357       76.563        4.704       72.066       48.884       41.628     5193.529     2389.610     1732.908        1.000        0.466      103.306       30.619        0.088      334.589        4.662      858.970
12/29/2014  12:26:00       92.845       76.388       29.764       53.813       31.369       53.314     2895.885      984.015     2842.419        1.103        0.336      120.231       45.045        0.140      334.406        4.357      858.966
12/29/2014  12:27:00       95.158       51.635       51.583       70.986       76.696       59.262     5039.038     5882.291     3511.979        1.440        0.722      108.265       49.117        0.206      334.389        4.328      858.961
12/29/2014  12:28:00      106.392       65.127       32.057       72.728       55.076       34.060     5289.423     3033.376     1160.111        1.303        0.474      124.743       19.550        0.025      334.366        4.290      858.921
12/29/2014  12:29:00      127.225       66.184       22.393       65.945       60.936       39.247     4348.699     3713.207     1540.324        1.533        0.480      143.410       28.896        0.041      334.415        4.372      858.895
12/29/2014  12:30:00       57.602       87.509        1.374       54.045       67.596       52.052     2920.896     4569.287     2709.402        1.059        0.510      104.766       47.350        0.204      334.514        4.534      858.891
12/29/2014  12:31:00       13.994      164.914      -22.829       38.435       61.322       37.782     1477.251     3760.330     1427.514        1.729        0.333      165.507       34.281        0.043      334.482        4.482      858.847
12/29/2014  12:32:00       37.544       35.927       12.056       39.607       39.392       32.391     1568.734     1551.702     1049.186        0.351        0.208       51.965       21.968        0.179      334.748        4.924      858.780
12/29/2014  12:33:00       36.657       46.556       42.035       62.030       57.745       42.091     3847.730     3334.471     1771.646        0.711        0.448       59.256       34.168        0.332      334.988        5.323      858.738
12/29/2014  12:34:00       30.830       94.777        6.671       43.969       60.646       46.258     1933.232     3677.959     2139.844        0.886        0.388       99.665       40.395        0.164      334.679        4.811      858.710
12/29/2014  12:35:00       17.083       38.758        8.610       29.664       38.168       30.483      879.940     1456.827      929.231        0.257        0.163       42.356       24.188        0.326      334.756        4.938      858.687
12/29/2014  12:36:00       43.050       38.617        0.586       44.863       25.402       23.464     2012.665      645.270      550.571        0.328        0.160       57.833       14.056        0.059      334.649        4.760      858.709
12/29/2014  12:37:00       13.449       -1.583       34.319       28.805       52.235       31.674      829.705     2728.529     1003.225        0.296        0.228       13.542       34.794        6.602      334.901        5.180      858.712
12/29/2014  12:38:00       32.734       38.678       32.469       30.817       28.901       22.522      949.685      835.291      507.220        0.296        0.115       50.670        9.937        0.038      335.158        5.606      858.663
12/29/2014  12:39:00      139.246       94.045       49.671       75.797       54.464       47.734     5745.175     2966.283     2278.549        2.084        0.550      168.029       47.408        0.080      334.761        4.945      858.637
12/29/2014  12:40:00       97.903      153.512      118.453      101.275       72.385       86.808    10256.703     5239.625     7535.557        3.510        1.152      182.074       80.755        0.197      334.644        4.750      858.615
12/29/2014  12:41:00      159.096       97.190       27.513       51.303       49.982       58.491     2632.047     2498.239     3421.192        2.203        0.428      186.434       36.785        0.039      334.350        4.262      858.596
12/29/2014  12:42:00       70.526      110.591        1.110       60.733       46.483       45.362     3688.555     2160.641     2057.724        1.255        0.395      131.165       32.411        0.061      334.465        4.456      858.527
12/29/2014  12:43:00      166.067      111.528       17.386       68.915       43.436       43.946     4749.319     1886.688     1931.278        2.444        0.428      200.042       26.705        0.018      334.448        4.424      858.410
12/29/2014  12:44:00      172.747       92.597       46.854      110.340       84.694       59.859    12174.969     7173.066     3583.151        3.177        1.147      196.000       31.362        0.026      334.816        5.035      858.331
12/29/2014  12:45:00      246.003      132.996       61.653      109.497       94.684       79.243    11989.627     8965.017     6279.460        5.461        1.362      279.653       60.841        0.047      334.668        4.787      858.325
12/29/2014  12:46:00      113.532       34.403       14.980       85.998       46.557       43.745     7395.678     2167.577     1913.646        1.288        0.574      118.630       16.661        0.020      334.932        5.230      858.396
12/29/2014  12:47:00       70.874        8.394       13.457       63.353       68.787       41.798     4013.573     4731.619     1747.061        0.788        0.525       71.369       32.583        0.208      334.899        5.175      858.401
12/29/2014  12:48:00       24.432       42.496       16.569       49.582       47.508       43.383     2458.356     2257.034     1882.098        0.464        0.330       49.018       23.523        0.230      335.127        5.554      858.398
12/29/2014  12:49:00      125.435       82.884       90.860       76.020       66.441       54.107     5779.022     4414.342     2927.608        2.199        0.656      150.346       47.086        0.098      334.678        4.808      858.379
12/29/2014  12:50:00       88.069      105.462       95.210       80.104       78.492       67.218     6416.611     6160.919     4518.224        2.252        0.855      137.399       66.236        0.232      334.761        4.945      858.305
12/29/2014  12:51:00      281.999      176.836      129.325      142.283      123.056      123.422    20244.413    15142.806    15232.872        8.906        2.531      332.858       94.510        0.081      334.566        4.618      858.216
12/29/2014  12:52:00      232.760      127.046       74.317      166.232      114.518       89.328    27633.158    13114.324     7979.460        6.227        2.436      265.175       53.853        0.041      334.594        4.667      858.192
12/29/2014  12:53:00      239.978      156.418       54.555      136.161      107.186       88.359    18539.846    11488.876     7807.271        6.143        1.892      286.454       22.631        0.006      334.725        4.883      858.171
12/29/2014  12:54:00      176.461      123.013       25.816       65.103       58.698       57.174     4238.372     3445.408     3268.841        2.894        0.548      215.107       36.946        0.030      334.580        4.641      858.198
12/29/2014  12:55:00       88.988       16.644       22.418      112.226       78.764       48.924    12594.749     6203.714     2393.552        1.494        1.060       90.532       29.494        0.106      334.820        5.043      858.271
12/29/2014  12:56:00       68.925       50.347       64.162       65.063       76.921       62.706     4233.194     5916.773     3932.088        1.274        0.704       85.355       51.057        0.358      334.887        5.156      858.334
12/29/2014  12:57:00      112.066       98.445      120.805       87.850       92.155       65.426     7717.555     8492.474     4280.593        2.866        1.025      149.165       70.483        0.223      334.625        4.718      858.346
12/29/2014  12:58:00      175.459      179.917       99.453      115.904       65.625       95.236    13433.717     4306.618     9069.918        4.992        1.341      251.308       77.946        0.096      334.698        4.838      858.270
12/29/2014  12:59:00      265.971      117.208       62.344      133.776       98.909       90.478    17895.938     9783.053     8186.259        6.211        1.793      290.652       74.567        0.066      334.631        4.728      858.155
12/29/2014  13:00:00      143.702       91.494       26.969      127.980       87.135       58.873    16378.865     7592.569     3466.073        2.859        1.372      170.357       60.429        0.126      334.720        4.877      858.122
12/29/2014  13:01:00       58.932       92.374       97.048       85.818      103.378       72.489     7364.703    10687.013     5254.691        2.236        1.165      109.572       66.120        0.364      334.848        5.089      858.160
12/29/2014  13:02:00      134.309       79.750       38.989       98.772       54.359       39.621     9755.867     2954.870     1569.849        2.010        0.714      156.202       25.895        0.027      334.913        5.200      858.145
12/29/2014  13:03:00      126.050       47.423       33.282      108.115       98.061       58.650    11688.810     9615.915     3439.768        2.199        1.237      134.676       49.244        0.134      334.721        4.878      858.063
12/29/2014  13:04:00      113.844      113.726       92.632       96.367       72.316       60.008     9286.569     5229.557     3600.903        2.629        0.906      160.916       47.769        0.088      334.837        5.073      858.041
12/29/2014  13:05:00      106.320      146.370      135.615       93.233       89.299       86.673     8692.419     7974.332     7512.203        3.764        1.209      180.909       70.916        0.154      334.620        4.710      858.031
12/29/2014  13:06:00       40.697       82.534       69.746       94.776       96.314       88.313     8982.465     9276.339     7799.258        1.969        1.303       92.022       64.391        0.490      334.965        5.284      858.004
12/29/2014  13:07:00      150.982      111.058       74.769      115.794       87.016       94.708    13408.178     7571.798     8969.680        3.533        1.497      187.428       69.439        0.137      334.795        5.001      858.005
12/29/2014  13:08:00      218.559      142.967       27.984      103.625       77.142       67.161    10738.077     5950.909     4510.643        4.509        1.060      261.166       43.959        0.028      334.890        5.158      858.017
12/29/2014  13:09:00      128.557      135.245       12.715      119.370       90.082       76.304    14249.248     8114.841     5822.271        3.158        1.409      186.596       49.932        0.072      334.908        5.189      858.022
12/29/2014  13:10:00       78.768      114.070       -2.505       92.850       95.022       59.141     8621.070     9029.123     3497.715        2.018        1.057      138.623       57.513        0.172      334.807        5.021      858.046
12/29/2014  13:11:00      119.226      158.049        8.565      130.360      100.058       67.926    16993.853    10011.620     4613.908        3.544        1.581      197.976       54.294        0.075      334.792        4.995      858.069
12/29/2014  13:12:00      216.009      135.182       22.556       91.485       81.966       68.960     8369.489     6718.451     4755.458        4.264        0.992      254.822       34.257        0.018      334.747        4.919      858.077
12/29/2014  13:13:00      154.657      159.100        8.215      138.621       92.058       65.897    19215.774     8474.649     4342.411        4.066        1.602      221.882       43.756        0.039      334.807        5.021      858.038
12/29/2014  13:14:00      112.837      108.468       27.609       95.025      107.702       70.357     9029.725    11599.622     4950.073        2.541        1.279      156.517       50.583        0.104      334.995        5.334      858.082
12/29/2014  13:15:00      283.611      153.659       25.202      131.964      104.624       75.422    17414.529    10946.278     5688.471        6.936        1.702      322.562       67.337        0.044      334.832        5.062      858.105
12/29/2014  13:16:00      242.411      142.662       54.653      126.885      101.499       79.683    16099.825    10302.112     6349.310        5.742        1.638      281.275       74.553        0.070      334.782        4.977      858.061
12/29/2014  13:17:00      166.788      147.076       27.366      101.410       77.891       72.536    10283.962     6067.034     5261.461        3.590        1.081      222.372       41.669        0.035      334.871        5.126      858.115
12/29/2014  13:18:00      259.555      157.565       54.423      108.274       81.002       67.619    11723.171     6561.247     4572.313        5.900        1.143      303.637       44.781        0.022      334.811        5.026      858.113
12/29/2014  13:19:00      258.460      164.740       59.799      137.670       86.592       77.230    18952.939     7498.235     5964.434        6.496        1.621      306.497       66.546        0.047      334.682        4.810      858.017
12/29/2014  13:20:00      246.192      179.089       36.474       86.347       62.208       71.840     7455.766     3869.839     5160.955        5.525        0.824      304.439       45.817        0.023      334.839        5.072      857.991
12/29/2014  13:21:00      159.695      124.795        1.885       91.454       73.488       45.096     8363.914     5400.540     2033.648        2.844        0.790      202.673       25.773        0.016      334.698        4.840      857.998
12/29/2014  13:22:00      115.440       66.603       37.942      103.843       70.898       43.781    10783.391     5026.588     1916.786        1.846        0.886      133.275       54.695        0.168      334.706        4.853      857.964
12/29/2014  13:23:00       -8.142       46.437       14.744       46.252       44.050       33.531     2139.290     1940.377     1124.337        0.382        0.260       47.145       27.804        0.348      335.178        5.640      857.944
12/29/2014  13:24:00       80.622       85.438       22.992       56.370       51.439       42.350     3177.559     2645.962     1793.491        1.097        0.381      117.472       33.571        0.082      335.172        5.628      857.940
12/29/2014  13:25:00       57.356      151.439       -5.669       75.342      118.376       61.717     5676.478    14012.825     3809.030        2.487        1.175      161.937       63.367        0.153      334.782        4.980      857.904
12/29/2014  13:26:00      153.157      138.227        9.333      118.289       71.386       62.762    13992.192     5095.996     3939.091        3.283        1.151      206.310       49.994        0.059      335.014        5.366      857.860
12/29/2014  13:27:00       30.472      256.302      -15.297       71.280      127.389       58.733     5080.864    16227.961     3449.556        4.580        1.238      258.107       67.340        0.068      334.982        5.310      857.877
12/29/2014  13:28:00      298.098      150.324       50.987      100.240       89.827       64.003    10048.049     8068.865     4096.388        6.813        1.111      333.856       26.718        0.006      334.790        4.991      857.840
12/29/2014  13:29:00      196.175      115.011       33.040       94.930       68.667       53.968     9011.662     4715.213     2912.560        3.472        0.832      227.403       49.870        0.048      334.818        5.038      857.841
12/29/2014  13:30:00      227.401      139.284       20.370       69.592       65.696       55.052     4843.024     4316.028     3030.716        4.186        0.609      266.667       22.568        0.007      334.719        4.873      857.854
12/29/2014  13:31:00       63.492       26.576       12.090       57.779       41.863       31.343     3338.451     1752.549      982.399        0.548        0.304       68.830       21.720        0.100      335.023        5.382      857.819
12/29/2014  13:32:00       48.461       32.644       -3.375       30.898       24.806       29.156      954.656      615.320      850.063        0.292        0.121       58.430       16.916        0.084      335.075        5.469      857.772
12/29/2014  13:33:00       96.330       85.710        7.797       57.724       55.154       44.213     3332.008     3041.920     1954.807        1.251        0.416      128.940       29.981        0.054      334.873        5.133      857.745
12/29/2014  13:34:00      178.859      125.849       35.290       96.472       72.635       69.174     9306.898     5275.804     4785.018        3.422        0.968      218.698       32.098        0.022      335.009        5.357      857.705
12/29/2014  13:35:00       99.034      106.212       -9.922      109.537       77.960       64.400    11998.388     6077.749     4147.405        2.170        1.111      145.220       40.716        0.079      334.880        5.144      857.707
12/29/2014  13:36:00       65.815      102.730        3.817       61.244       60.409       51.406     3750.839     3649.298     2642.559        1.247        0.502      122.004       33.452        0.075      334.900        5.178      857.694
12/29/2014  13:37:00      113.769       66.492        3.519       30.874       19.641       21.853      953.211      385.787      477.562        0.960        0.091      131.775        7.921        0.004      334.720        4.877      857.708
12/29/2014  13:38:00       77.050       37.827       41.007       84.212      102.518       54.546     7091.632    10509.855     2975.295        1.481        1.029       85.835       50.172        0.342      335.161        5.610      857.755
12/29/2014  13:39:00      110.100       48.470       26.229       69.227       46.566       39.485     4792.312     2168.409     1559.097        1.184        0.426      120.297       16.680        0.019      335.231        5.726      857.819
12/29/2014  13:40:00      136.783      124.546       13.257       92.792       76.879       59.517     8610.326     5910.356     3542.290        2.623        0.903      184.990       36.463        0.039      335.107        5.520      857.799
12/29/2014  13:41:00       51.975      122.692       -5.598       75.495       79.047       39.984     5699.458     6248.423     1598.724        1.566        0.677      133.247       39.553        0.088      335.168        5.621      857.754
12/29/2014  13:42:00      120.759       83.581       11.067       75.240       51.633       44.854     5661.013     2666.016     2011.866        1.601        0.517      146.862       30.990        0.045      335.158        5.605      857.811
12/29/2014  13:43:00      122.170      120.969       -1.520      112.592       59.182       46.567    12676.945     3502.492     2168.497        2.395        0.917      171.927       37.213        0.047      335.139        5.573      857.823
12/29/2014  13:44:00       67.298       87.531        9.426       60.000       61.526       30.115     3600.008     3785.389      906.940        1.028        0.415      110.412       26.092        0.056      335.129        5.558      857.701
12/29/2014  13:45:00        6.718      165.095      -22.852       54.558       94.354       30.236     2976.554     8902.652      914.195        2.031        0.640      165.232       40.398        0.060      335.254        5.764      857.724
12/29/2014  13:46:00       21.273      163.136        1.541       72.584       80.718       57.762     5268.437     6515.367     3336.463        2.109        0.756      164.517       55.291        0.113      335.271        5.792      857.773
12/29/2014  13:47:00       36.142       65.031       34.078       69.270       77.792       56.885     4798.330     6051.632     3235.932        1.039        0.704       74.400       44.560        0.359      335.303        5.846      857.689
12/29/2014  13:48:00        8.393      207.496      -22.479       72.705      113.959       55.342     5286.039    12986.720     3062.701        3.248        1.067      207.666       57.594        0.077      335.129        5.556      857.661
12/29/2014  13:49:00       21.510      167.455        3.732       77.047      138.859       64.964     5936.302    19281.895     4220.285        2.897        1.472      168.831       75.340        0.199      334.986        5.319      857.648
12/29/2014  13:50:00       66.723      145.730       -5.329       77.041       90.366       63.742     5935.391     8165.960     4063.045        2.194        0.908      160.278       54.516        0.116      334.810        5.026      857.619
12/29/2014  13:51:00      -37.512      306.836      -39.036       46.220      128.179       40.111     2136.292    16429.954     1608.855        5.862        1.009      309.120       51.906        0.028      334.861        5.109      857.665
12/29/2014  13:52:00       20.529      292.989      -36.016       61.360       94.814       47.843     3765.049     8989.693     2288.957        5.130        0.752      293.707       49.220        0.028      334.969        5.289      857.685
12/29/2014  13:53:00       78.709      154.449       -3.165       88.635       90.261       67.956     7856.209     8147.001     4617.970        2.534        1.031      173.348       56.176        0.105      334.871        5.128      857.587
12/29/2014  13:54:00        8.369      173.107      -21.150       39.281       56.249       37.096     1542.988     3163.910     1376.080        1.828        0.304      173.309       33.673        0.038      334.724        4.882      857.580
12/29/2014  13:55:00        7.967       84.315       -2.872       26.608       36.431       25.640      707.978     1327.233      657.412        0.494        0.135       84.690       23.524        0.077      334.873        5.132      857.688
12/29/2014  13:56:00       15.303       85.532       -2.270       34.397       45.423       31.195     1183.129     2063.291      973.136        0.589        0.211       86.890       30.289        0.122      335.097        5.505      857.642
12/29/2014  13:57:00       69.315      118.662       -5.094       62.386       66.032       51.231     3892.069     4360.172     2624.617        1.489        0.544      137.423       41.875        0.093      335.075        5.467      857.544
12/29/2014  13:58:00       75.467      110.396        7.031       75.049       88.551       50.062     5632.333     7841.302     2506.162        1.695        0.799      133.726       49.504        0.137      335.052        5.429      857.571
12/29/2014  13:59:00       20.283      183.001      -22.729       58.808       72.368       43.700     3458.351     5237.093     1909.668        2.251        0.530      184.122       32.893        0.032      335.155        5.599      857.612
12/29/2014  14:00:00       30.437      111.486       -9.817       46.061       90.050       46.663     2121.604     8109.031     2177.409        1.293        0.620      115.566       51.051        0.195      335.249        5.757      857.629
12/29/2014  14:01:00       32.400      257.099      -35.794       82.108       92.201       54.143     6741.762     8501.043     2931.490        4.330        0.909      259.132       57.524        0.049      334.796        5.003      857.668
12/29/2014  14:02:00       30.033      187.435      -10.857       89.437      110.969       59.803     7998.904    12314.164     3576.412        3.002        1.194      189.826       64.515        0.116      335.036        5.403      857.649
12/29/2014  14:03:00       46.055      183.175      -27.216       51.877       85.009       44.218     2691.176     7226.495     1955.188        2.414        0.594      188.876       38.283        0.041      334.955        5.267      857.635
12/29/2014  14:04:00       94.844      158.055        0.862      112.387      104.061       67.322    12630.863    10828.667     4532.314        3.098        1.400      184.328       60.687        0.108      334.911        5.193      857.686
12/29/2014  14:05:00      122.474      145.339       17.058      108.733      108.554       68.719    11822.806    11783.864     4722.331        3.237        1.416      190.062       54.458        0.082      334.885        5.151      857.651
12/29/2014  14:06:00       49.610       96.986        1.492       84.133       86.383       44.587     7078.374     7461.942     1988.038        1.420        0.826      108.938       47.846        0.193      335.118        5.540      857.558
12/29/2014  14:07:00      -29.822      206.079      -11.170       82.647      102.830       58.459     6830.569    10574.087     3417.416        3.215        1.041      208.226       66.043        0.101      334.856        5.101      857.617
12/29/2014  14:08:00      -11.901      161.172      -14.069       49.494       71.130       42.011     2449.702     5059.493     1764.945        1.779        0.464      161.611       40.474        0.063      334.892        5.162      857.650
12/29/2014  14:09:00       13.492      110.007        3.812       44.211       72.298       40.962     1954.583     5227.034     1677.904        1.058        0.443      110.831       46.091        0.173      335.039        5.409      857.609
12/29/2014  14:10:00      105.613       89.816       32.523       89.669       65.176       56.546     8040.463     4247.974     3197.433        1.788        0.774      138.640       32.599        0.055      335.023        5.382      857.622
12/29/2014  14:11:00       -5.723      163.888      -18.008       53.089      130.341       37.427     2818.404    16988.776     1400.802        2.421        1.060      163.988       48.148        0.086      335.170        5.626      857.651
12/29/2014  14:12:00       58.885      131.902       16.016       88.441      123.248       50.282     7821.871    15190.136     2528.320        2.333        1.277      144.449       56.901        0.155      334.874        5.132      857.645
12/29/2014  14:13:00      125.996      137.103       18.981       94.571       83.216       66.498     8943.581     6924.877     4421.983        2.766        1.015      186.205       44.509        0.057      334.782        4.979      857.582
12/29/2014  14:14:00      142.191      117.543       12.988      109.603       75.195       54.897    12012.770     5654.235     3013.696        2.744        1.034      184.485       23.639        0.016      334.589        4.657      857.549
12/29/2014  14:15:00       49.918      148.922      -19.998       59.161       76.128       44.789     3500.009     5795.399     2006.016        1.818        0.565      157.066       47.612        0.092      334.559        4.610      857.512
12/29/2014  14:16:00      103.301       76.277       16.442       69.634       59.273       48.074     4848.846     3513.238     2311.062        1.371        0.534      128.410       33.322        0.067      334.724        4.884      857.467
12/29/2014  14:17:00      230.595      126.339       33.812       92.443       73.993       73.953     8545.617     5474.926     5469.100        4.488        0.974      262.937       30.601        0.014      334.918        5.206      857.425
12/29/2014  14:18:00      117.510       60.002       19.998       80.797       62.158       65.175     6528.107     3863.656     4247.723        1.622        0.732      131.943       29.825        0.051      334.807        5.021      857.428
12/29/2014  14:19:00      179.011      126.151       15.998      140.833       79.480       68.260    19834.007     6317.137     4659.376        3.951        1.541      218.995       30.958        0.020      334.716        4.870      857.423
12/29/2014  14:20:00       66.636       68.226       -0.276       98.338       64.159       33.730     9670.416     4116.381     1137.691        1.201        0.746       95.369       29.170        0.094      334.782        4.981      857.447
12/29/2014  14:21:00       -9.137      185.482      -24.390       67.612       73.955       47.059     4571.317     5469.275     2214.558        2.367        0.613      185.707       39.530        0.045      334.862        5.113      857.506
12/29/2014  14:22:00      -19.185      217.617      -25.946       43.488       76.668       29.535     1891.246     5878.037      872.326        2.852        0.432      218.461       29.730        0.019      334.554        4.599      857.516
12/29/2014  14:23:00       13.970      158.631        0.251       48.533      101.982       52.604     2355.425    10400.393     2767.212        2.044        0.776      159.245       64.799        0.166      334.663        4.782      857.500
12/29/2014  14:24:00      112.256       93.982        4.371       78.601       61.077       53.800     6178.159     3730.460     2894.433        1.713        0.640      146.404       37.430        0.065      334.822        5.046      857.496
12/29/2014  14:25:00      168.125      123.114        7.013       98.355       59.938       52.301     9673.666     3592.586     2735.422        2.973        0.800      208.382       40.458        0.038      334.435        4.404      857.471
12/29/2014  14:26:00       93.981      108.439       18.257       80.708       81.553       67.451     6513.825     6650.905     4549.653        1.932        0.886      143.497       59.220        0.170      334.643        4.748      857.407
12/29/2014  14:27:00      116.416       92.695       11.917       84.697       60.070       62.972     7173.523     3608.434     3965.510        1.851        0.737      148.812       45.605        0.094      334.830        5.060      857.353
12/29/2014  14:28:00      164.007      138.540       13.559      127.049       71.467       63.041    16141.461     5107.578     3974.150        3.574        1.261      214.689       47.953        0.050      334.724        4.883      857.358
12/29/2014  14:29:00      184.340      134.902        8.476      124.982      103.172       67.930    15620.563    10644.412     4614.455        4.156        1.544      228.429       58.630        0.066      334.649        4.757      857.391
12/29/2014  14:30:00      183.113      163.221       31.470      150.251      101.897       84.834    22575.395    10383.012     7196.871        5.065        2.008      245.298       41.277        0.028      334.550        4.593      857.414
12/29/2014  14:31:00      109.139      191.472       -1.645      110.285      127.400       80.016    12162.802    16230.767     6402.494        4.168        1.740      220.393       70.666        0.103      334.615        4.700      857.405
12/29/2014  14:32:00      154.158      245.983       -2.834      124.915      124.865       91.102    15603.847    15591.361     8299.638        6.188        1.975      290.297       89.240        0.094      334.596        4.668      857.456
12/29/2014  14:33:00       72.423      179.542       -5.959       97.095      121.839       72.534     9427.428    14844.747     5261.219        3.352        1.477      193.598       68.705        0.126      334.625        4.718      857.495
12/29/2014  14:34:00      152.836      132.648       19.359      105.338       70.110       66.539    11096.113     4915.343     4427.456        3.088        1.022      202.372       37.251        0.034      334.659        4.775      857.456
12/29/2014  14:35:00      224.140      172.975       38.987      127.479      100.383       80.894    16250.783    10076.676     6543.790        5.727        1.644      283.124       37.095        0.017      334.627        4.719      857.391
12/29/2014  14:36:00      101.639      190.383       18.094      125.988      100.280       77.413    15873.081    10056.068     5992.796        3.941        1.596      215.815       80.682        0.140      334.658        4.771      857.415
12/29/2014  14:37:00       96.438      259.285      -22.671       87.065      157.512       90.310     7580.257    24810.117     8155.886        5.879        2.027      276.638       90.606        0.107      334.588        4.658      857.441
12/29/2014  14:38:00      140.523      177.030       13.726      146.033      114.512       84.376    21325.710    13112.980     7119.264        4.641        2.078      226.023       78.230        0.120      334.646        4.751      857.376
12/29/2014  14:39:00      177.831      114.786       32.412      117.000       81.050       70.936    13689.003     6569.075     5031.959        3.557        1.265      211.659       50.605        0.057      334.661        4.777      857.272
12/29/2014  14:40:00      111.220       98.261       18.687      100.437      105.951       69.419    10087.500    11225.536     4818.937        2.425        1.307      148.409       57.244        0.149      334.610        4.694      857.372
12/29/2014  14:41:00       76.670      241.835       -7.067      110.590      132.280       72.556    12230.197    17498.123     5264.432        4.970        1.750      253.698       67.416        0.071      334.584        4.648      857.412
12/29/2014  14:42:00      170.626      126.571       27.450       97.402      100.749       88.044     9487.223    10150.262     7751.742        3.663        1.369      212.446       57.677        0.074      334.576        4.638      857.327
12/29/2014  14:43:00       66.045       77.399       15.067       77.479       63.520       49.380     6003.000     4034.837     2438.393        1.153        0.624      101.747       40.417        0.158      334.729        4.894      857.396
12/29/2014  14:44:00      110.714       90.800        2.546       64.313       54.239       53.745     4136.185     2941.911     2888.503        1.524        0.498      143.186       30.342        0.045      334.773        4.967      857.456
12/29/2014  14:45:00      132.243       93.164       17.333      102.172       71.223       56.783    10439.195     5072.700     3224.306        2.260        0.937      161.765       11.165        0.005      334.747        4.921      857.413
12/29/2014  14:46:00      179.271      168.911       15.721      103.127       74.542       59.726    10635.163     5556.436     3567.212        4.033        0.988      246.311       24.836        0.010      334.601        4.676      857.404
12/29/2014  14:47:00       93.300      189.254       -9.680       84.628       94.357       65.175     7161.836     8903.323     4247.782        3.246        1.016      211.003       56.315        0.071      334.749        4.923      857.393
12/29/2014  14:48:00       38.550      156.979       -0.484       91.376      129.527       78.831     8349.579    16777.365     6214.320        2.873        1.567      161.643       82.249        0.259      334.552        4.597      857.389
12/29/2014  14:49:00       41.448      162.865       -4.314       81.748      131.200       67.169     6682.693    17213.550     4511.680        2.833        1.420      168.056       69.883        0.173      334.578        4.640      857.413
12/29/2014  14:50:00       66.650      172.677       -1.152       82.716      126.806       66.186     6841.879    16079.696     4380.563        3.078        1.365      185.094       72.431        0.153      334.566        4.620      857.441
12/29/2014  14:51:00       69.523      125.979       -0.741       79.369       79.549       51.058     6299.432     6328.004     2606.897        1.797        0.762      143.889       49.708        0.119      334.679        4.808      857.437
12/29/2014  14:52:00       72.668      100.167        5.452       76.792       65.329       46.323     5896.989     4267.924     2145.855        1.382        0.616      123.750       36.335        0.086      334.893        5.164      857.406
12/29/2014  14:53:00       50.757      164.915       -3.287       99.027       89.924       48.930     9806.286     8086.333     2394.147        2.503        1.014      172.549       44.391        0.066      334.811        5.027      857.446
12/29/2014  14:54:00      190.963      176.552       13.219      135.838       84.778       76.149    18451.988     7187.375     5798.627        4.962        1.572      260.071       55.876        0.046      334.638        4.741      857.494
12/29/2014  14:55:00      123.646      145.198       27.368      134.692      102.890       87.359    18141.954    10586.440     7631.660        3.673        1.818      190.711       68.767        0.130      334.549        4.591      857.484
12/29/2014  14:56:00       33.481      202.037      -18.937       96.616      110.140       54.911     9334.689    12130.920     3015.222        3.338        1.224      204.792       53.911        0.069      334.562        4.615      857.543
12/29/2014  14:57:00       56.986      238.836      -31.274       75.753      174.665       71.891     5738.492    30508.009     5168.352        5.133        2.071      245.541       87.156        0.126      334.536        4.571      857.595
12/29/2014  14:58:00       45.297      144.300        9.893       91.729      147.778       67.940     8414.131    21838.402     4615.908        2.891        1.743      151.242       72.929        0.233      334.555        4.603      857.588
12/29/2014  14:59:00       24.637      322.687      -37.736       74.995      115.840       61.259     5624.212    13418.954     3752.646        6.447        1.140      323.626       66.760        0.043      334.468        4.457      857.622
12/29/2014  15:00:00      132.404      194.272        3.105      127.920      115.339       82.769    16363.548    13303.171     6850.770        4.589        1.826      235.101       70.275        0.089      334.414        4.367      857.635
12/29/2014  15:01:00       70.624      175.803       -4.966      129.178      139.061       66.550    16686.844    19337.870     4428.861        3.818        2.023      189.458       68.366        0.130      334.485        4.485      857.633
12/29/2014  15:02:00       44.714      279.497      -41.013       85.195      130.574       64.498     7258.160    17049.458     4160.049        5.513        1.423      283.051       70.346        0.062      334.341        4.247      857.607
12/29/2014  15:03:00       41.487      149.479        9.192      104.019      135.319       84.016    10819.905    18311.289     7058.661        3.016        1.809      155.129       77.432        0.249      334.507        4.523      857.609
12/29/2014  15:04:00       57.706      213.444      -27.383       98.314      132.852       61.828     9665.627    17649.542     3822.717        4.038        1.557      221.107       61.186        0.077      334.455        4.435      857.677
12/29/2014  15:05:00       25.138      200.275        3.380       84.874      143.384       76.823     7203.644    20559.084     5901.792        3.720        1.683      201.846       84.860        0.177      334.411        4.364      857.643
12/29/2014  15:06:00       43.043      162.445        9.621      107.717      166.772       77.810    11602.939    27812.774     6054.368        3.689        2.274      168.051       91.033        0.293      334.452        4.432      857.590
12/29/2014  15:07:00       70.203      156.016        4.586      111.910      141.529       93.473    12523.791    20030.481     8737.136        3.528        2.065      171.084       88.888        0.270      334.330        4.228      857.621
12/29/2014  15:08:00       85.113      168.806        7.420       83.290      103.648       77.010     6937.187    10742.993     5930.586        2.970        1.181      189.049       68.174        0.130      334.360        4.278      857.640
12/29/2014  15:09:00       51.187      132.277       -3.036       66.794       88.358       62.113     4461.500     7807.192     3858.048        1.812        0.806      141.836       61.612        0.189      334.444        4.419      857.581
12/29/2014  15:10:00       44.807      230.246      -28.623       62.113      107.881       58.671     3857.972    11638.210     3442.273        3.739        0.947      234.566       64.362        0.075      334.420        4.377      857.546
12/29/2014  15:11:00      104.181       64.374       12.725       73.669       50.703       52.369     5427.136     2570.772     2742.561        1.295        0.537      122.465       29.570        0.058      334.531        4.563      857.548
12/29/2014  15:12:00      105.522      110.608        8.213       97.765       84.076       59.471     9558.071     7068.744     3536.812        2.180        1.008      152.869       47.057        0.095      334.562        4.614      857.524
12/29/2014  15:13:00      186.391      165.604        4.447      121.343       73.158       57.795    14724.181     5352.063     3340.243        4.280        1.171      249.331       42.001        0.028      334.441        4.412      857.519
12/29/2014  15:14:00      154.636       92.366       19.680      102.152       72.514       52.579    10435.114     5258.215     2764.569        2.564        0.923      180.121       22.285        0.015      334.508        4.524      857.511
12/29/2014  15:15:00      149.709      111.098        6.337      109.397       78.987       52.325    11967.757     6239.016     2737.903        2.787        1.047      186.428       44.041        0.056      334.482        4.481      857.516
12/29/2014  15:16:00      168.573      153.162        8.688      116.842       93.072       77.626    13652.122     8662.421     6025.738        4.014        1.417      227.762       43.742        0.037      334.318        4.209      857.494
12/29/2014  15:17:00       93.382       95.050        4.035       78.362       72.282       54.009     6140.653     5224.663     2916.964        1.602        0.714      133.247       45.501        0.117      334.365        4.288      857.439
12/29/2014  15:18:00      156.679      120.712       20.748       69.922       66.240       57.676     4889.056     4387.793     3326.463        2.607        0.630      197.786       25.484        0.017      334.432        4.398      857.414
12/29/2014  15:19:00      172.979      105.231       16.966       93.851       62.913       58.177     8808.037     3958.021     3384.510        2.871        0.808      202.473       35.009        0.030      334.478        4.474      857.386
12/29/2014  15:20:00      279.334      168.376       27.145      146.134       88.699       67.082    21355.185     7867.516     4500.039        7.041        1.686      326.156       43.993        0.018      334.344        4.251      857.381
12/29/2014  15:21:00      103.207      182.405       -8.395      112.666      123.305       71.319    12693.522    15204.199     5086.347        3.848        1.649      209.579       71.315        0.116      334.337        4.240      857.382
12/29/2014  15:22:00      111.074      132.033        2.990      120.470       91.260       56.424    14513.062     8328.454     3183.666        2.790        1.301      172.540       43.961        0.065      334.429        4.395      857.423
12/29/2014  15:23:00      120.738      123.545       11.592      109.451       80.779       48.666    11979.519     6525.275     2368.338        2.542        1.044      172.745       47.262        0.075      334.432        4.399      857.462
12/29/2014  15:24:00       90.458      111.282        7.906       78.621       72.252       46.484     6181.294     5220.422     2160.782        1.709        0.678      143.410       39.700        0.077      334.492        4.499      857.483
12/29/2014  15:25:00      209.624      166.013       56.696      124.055       95.627       85.164    15389.525     9144.552     7252.930        5.325        1.589      267.400       35.737        0.018      334.355        4.269      857.471
12/29/2014  15:26:00      210.269      143.532       17.416      122.146       79.882       68.407    14919.560     6381.124     4679.487        4.554        1.299      254.587       46.222        0.033      334.292        4.166      857.467
12/29/2014  15:27:00      306.436      175.415       10.891      159.256      110.678       86.572    25362.505    12249.528     7494.777        8.494        2.255      353.092       44.974        0.016      334.260        4.111      857.455
12/29/2014  15:28:00      340.278      220.705       31.014      175.163      134.250       86.045    30682.155    18022.934     7403.722       11.077        2.805      405.586       80.235        0.039      334.218        4.043      857.457
12/29/2014  15:29:00      219.021      227.936        7.752      159.103       95.583       91.200    25313.916     9136.205     8317.357        7.137        2.138      316.109       54.846        0.030      334.204        4.019      857.481
12/29/2014  15:30:00      146.000      218.090       -4.830      127.606      125.982       78.048    16283.284    15871.490     6091.505        5.357        1.912      262.448       82.270        0.098      334.223        4.051      857.495
12/29/2014  15:31:00       54.963      151.636        0.544       82.680       87.091       53.452     6835.989     7584.859     2857.139        2.164        0.864      161.290       43.865        0.074      334.299        4.178      857.502
12/29/2014  15:32:00      154.526      152.265       11.163      148.599       95.994       65.501    22081.716     9214.915     4290.343        4.138        1.779      216.940       47.005        0.047      334.325        4.221      857.503
12/29/2014  15:33:00      136.121      182.612       25.806      113.132      103.473       93.726    12798.921    10706.714     8784.529        4.241        1.615      227.764       72.584        0.102      334.250        4.095      857.475
12/29/2014  15:34:00      156.127      175.350        5.010      156.420      123.038       91.412    24467.121    15138.290     8356.097        5.155        2.398      234.783       68.067        0.084      334.210        4.028      857.460
12/29/2014  15:35:00      299.028      215.984       38.533      182.383      125.277       78.790    33263.697    15694.342     6207.894        9.635        2.758      368.873       50.072        0.018      334.165        3.954      857.461
12/29/2014  15:36:00      144.271      244.018      -17.998      149.881      161.808       86.836    22464.443    26181.967     7540.565        6.842        2.809      283.477       86.539        0.093      334.134        3.903      857.469
12/29/2014  15:37:00       87.740      173.808       -4.684       99.834      113.533       73.766     9966.798    12889.709     5441.478        3.311        1.415      194.698       69.046        0.126      334.208        4.025      857.486
12/29/2014  15:38:00      132.095      195.897       -2.890      112.554      113.070       86.709    12668.381    12784.748     7518.384        4.440        1.649      236.273       71.613        0.092      334.186        3.990      857.507
12/29/2014  15:39:00      132.023      172.319       21.991      123.746      109.050       88.601    15312.979    11891.823     7850.073        4.132        1.753      217.080       70.522        0.106      334.124        3.885      857.542
12/29/2014  15:40:00      218.610      238.200       21.598      181.985      155.279       90.083    33118.680    24111.595     8114.889        8.516        3.267      323.311       65.355        0.041      334.029        3.729      857.569
12/29/2014  15:41:00      183.251      193.529        3.734      143.203      108.450       94.314    20507.091    11761.407     8895.146        5.610        2.058      266.523       70.006        0.069      334.046        3.758      857.551
12/29/2014  15:42:00      292.773      169.722       33.553      134.817      117.052       82.332    18175.516    13701.059     6778.509        7.714        1.933      338.411       58.163        0.030      334.024        3.720      857.542
12/29/2014  15:43:00      152.194      157.016       13.381      121.364      111.810       91.867    14729.230    12501.504     8439.476        4.183        1.784      218.671       73.194        0.112      334.041        3.748      857.563
12/29/2014  15:44:00      144.708      114.249       26.301      121.462       75.490       71.065    14752.932     5698.731     5050.186        3.009        1.275      184.373       45.222        0.060      334.052        3.768      857.556
12/29/2014  15:45:00       40.615      139.384      -12.897       72.805       97.156       51.321     5300.568     9439.367     2633.837        1.931        0.869      145.181       60.180        0.172      334.108        3.860      857.595
12/29/2014  15:46:00       66.493      177.929      -18.824      104.623      110.654       56.781    10945.915    12244.229     3224.098        3.142        1.321      189.948       48.516        0.065      334.059        3.777      857.637
12/29/2014  15:47:00       39.766      211.916       -7.208       85.388      127.431       72.044     7291.026    16238.743     5190.306        3.763        1.436      215.615       73.927        0.118      333.989        3.664      857.646
12/29/2014  15:48:00       32.564      183.235       -2.523      104.234      135.212       66.031    10864.722    18282.272     4360.128        3.407        1.675      186.106       67.918        0.133      333.974        3.640      857.635
12/29/2014  15:49:00       84.413      197.317       -0.547      122.986      145.727       64.637    15125.663    21236.218     4177.885        4.329        2.027      214.616       75.614        0.124      334.000        3.683      857.655
12/29/2014  15:50:00       48.724      176.185      -14.231       71.089      103.851       63.073     5053.677    10785.062     3978.256        2.671        0.991      182.798       65.111        0.127      334.054        3.770      857.684
12/29/2014  15:51:00       55.550       85.887        0.233       53.095       85.428       43.777     2819.060     7297.954     1916.458        1.125        0.602      102.286       47.006        0.211      334.076        3.809      857.655
12/29/2014  15:52:00       84.964      138.281        6.898       92.649       97.826       64.472     8583.768     9569.879     4156.632        2.434        1.116      162.297       55.495        0.117      334.034        3.738      857.670
12/29/2014  15:53:00      277.151      211.262       42.904      218.618      134.546       90.831    47793.939    18102.760     8250.290        9.870        3.707      348.488       55.699        0.026      333.906        3.525      857.670
12/29/2014  15:54:00      120.504      175.461       14.264      117.353      124.243       95.996    13771.695    15436.417     9215.175        4.196        1.921      212.856       85.844        0.163      333.903        3.521      857.672
12/29/2014  15:55:00      188.763      128.938       34.869      123.054       80.118       67.454    15142.211     6418.845     4550.036        3.979        1.306      228.597       45.620        0.040      333.915        3.541      857.662
12/29/2014  15:56:00      103.548      149.924      -14.127       81.455       97.262       54.907     6634.965     9459.864     3014.813        2.625        0.955      182.207       54.256        0.089      333.949        3.596      857.692
12/29/2014  15:57:00      122.633      124.582       -3.024       89.717       80.477       61.141     8049.138     6476.601     3738.167        2.441        0.913      174.812       48.858        0.078      333.904        3.522      857.713
12/29/2014  15:58:00       70.920      185.427      -11.895       80.052      121.002       76.938     6408.280    14641.397     5919.409        3.326        1.348      198.527       66.942        0.114      333.887        3.494      857.721
12/29/2014  15:59:00       92.761      209.231      -13.973       99.566      141.458       79.832     9913.395    20010.306     6373.076        4.443        1.815      228.872       81.185        0.126      333.855        3.441      857.769
12/29/2014  16:00:00       71.769      227.451      -20.717       90.346      110.033       56.131     8162.439    12107.306     3150.673        4.036        1.171      238.506       47.942        0.040      333.899        3.515      857.795
12/29/2014  16:01:00      116.054      195.278        0.578      124.662      117.947       80.550    15540.493    13911.401     6488.365        4.376        1.797      227.161       64.443        0.080      333.884        3.488      857.782
12/29/2014  16:02:00      256.882      235.183       12.749      204.719      135.573      114.972    41909.671    18380.121    13218.550        9.747        3.675      348.281       88.327        0.064      333.772        3.301      857.738
12/29/2014  16:03:00      178.589      143.104       14.468      101.656      105.591       72.986    10333.912    11149.534     5326.986        3.969        1.341      228.851       56.652        0.061      333.781        3.317      857.717
12/29/2014  16:04:00      211.044      147.349       20.984      133.244       90.366       72.222    17753.861     8166.021     5215.953        4.891        1.557      257.393       37.818        0.022      333.782        3.319      857.722
12/29/2014  16:05:00      134.027      141.961        3.061      118.703       86.038       74.600    14090.514     7402.610     5565.096        3.259        1.353      195.233       58.766        0.091      333.774        3.305      857.720
12/29/2014  16:06:00      106.688      155.245      -10.972       80.011       90.730       65.601     6401.683     8231.859     4303.435        2.727        0.947      188.370       51.505        0.075      333.791        3.334      857.728
12/29/2014  16:07:00      166.971      159.324       19.630      132.589       99.197       74.532    17579.792     9840.039     5554.967        4.331        1.649      230.789       51.396        0.050      333.796        3.342      857.772
12/29/2014  16:08:00       55.357      221.295      -28.810       59.641       89.204       51.267     3557.047     7957.355     2628.277        3.350        0.707      228.113       48.756        0.046      333.787        3.327      857.809
12/29/2014  16:09:00       41.845      191.258       -8.760       70.868      107.953       66.150     5022.316    11653.920     4375.769        2.973        1.053      195.782       69.352        0.125      333.781        3.317      857.840
12/29/2014  16:10:00       81.502      116.196       12.521       91.176       68.591       63.230     8312.995     4704.710     3998.039        1.865        0.851      141.930       49.945        0.124      333.746        3.260      857.843
12/29/2014  16:11:00       88.065      110.169        3.845       75.289       77.596       60.687     5668.492     6021.108     3682.935        1.764        0.769      141.041       52.029        0.136      333.735        3.241      857.865
12/29/2014  16:12:00      184.394      129.191       17.113      117.345       75.170       64.874    13769.765     5650.490     4208.619        3.730        1.181      225.147       45.777        0.041      333.731        3.234      857.854
12/29/2014  16:13:00      169.577      124.412       24.039       91.203       51.404       68.929     8318.068     2642.384     4751.174        3.026        0.786      210.320       41.022        0.038      333.721        3.216      857.819
12/29/2014  16:14:00      104.841      106.440      -15.766       72.743       70.712       51.865     5291.506     5000.220     2689.940        1.777        0.649      149.402       45.652        0.093      333.739        3.248      857.807
12/29/2014  16:15:00      141.405       84.388       19.827      107.294       81.241       54.697    11512.001     6600.154     2991.755        2.430        1.055      164.672       36.738        0.050      333.731        3.236      857.835
12/29/2014  16:16:00      170.187      207.707        8.555      127.969      146.651       72.648    16376.101    21506.558     5277.695        5.766        2.158      268.525       79.780        0.088      333.698        3.179      857.851
12/29/2014  16:17:00      175.950      115.635       23.366      108.173       65.631       66.325    11701.480     4307.431     4399.032        3.264        1.020      210.547       37.620        0.032      333.689        3.165      857.796
12/29/2014  16:18:00      190.344      113.508       17.950       93.563       77.655       61.313     8753.991     6030.223     3759.268        3.399        0.927      221.618       38.680        0.030      333.667        3.127      857.754
12/29/2014  16:19:00      222.040      172.187       22.482      105.723       79.491       75.077    11177.429     6318.743     5636.573        5.129        1.157      280.980       54.289        0.037      333.644        3.091      857.729
12/29/2014  16:20:00      185.509      142.496       38.451      131.710       80.152       71.891    17347.530     6424.351     5168.268        4.256        1.447      233.920       35.127        0.023      333.646        3.095      857.784
12/29/2014  16:21:00      134.421      161.614        0.797      109.159      128.027       75.863    11915.782    16390.896     5755.227        3.912        1.703      210.209       71.522        0.116      333.632        3.072      857.861
12/29/2014  16:22:00      148.868      105.993       21.899       98.293       77.861       60.835     9661.471     6062.284     3700.858        2.665        0.971      182.747       31.604        0.030      333.600        3.019      857.950
12/29/2014  16:23:00      154.873       86.298       28.694      100.386       80.232       58.819    10077.438     6437.147     3459.693        2.611        0.999      177.294       49.100        0.077      333.619        3.051      858.031
12/29/2014  16:24:00      147.523       77.488       23.795      104.804       64.292       52.479    10983.866     4133.447     2754.042        2.310        0.894      166.636       40.308        0.059      333.606        3.028      858.096
12/29/2014  16:25:00       79.254      133.986       -5.451       90.340       75.589       57.111     8161.357     5713.672     3261.709        2.070        0.857      155.671       48.592        0.097      333.581        2.989      858.112
12/29/2014  16:26:00      163.334      116.496       18.605       99.433       80.619       78.297     9886.861     6499.344     6130.411        3.155        1.126      200.623       43.969        0.048      333.587        2.998      857.979
12/29/2014  16:27:00      253.622      171.535       15.116      123.353       79.431       65.886    15215.864     6309.236     4340.901        5.992        1.293      306.183       34.827        0.013      333.570        2.968      857.802
12/29/2014  16:28:00      202.518      136.203       21.270      123.425       75.623       60.841    15233.822     5718.874     3701.676        4.233        1.233      244.059       43.825        0.032      333.544        2.927      857.711
12/29/2014  16:29:00      175.935      136.374       13.805       84.406       73.587       57.937     7124.342     5414.991     3356.685        3.282        0.795      222.601       50.720        0.052      333.507        2.863      857.739
12/29/2014  16:30:00      215.872      154.748       28.056       78.824       69.551       52.931     6213.251     4837.387     2801.646        4.259        0.693      265.609       43.849        0.027      333.468        2.798      857.801
12/29/2014  16:31:00      241.587      161.836       23.872      121.323       82.867       63.614    14719.377     6866.891     4046.804        5.537        1.282      290.784       38.845        0.018      333.467        2.798      857.823
12/29/2014  16:32:00      185.562      162.138       14.652      105.464       81.819       70.323    11122.653     6694.380     4945.301        4.184        1.138      246.418       53.307        0.047      333.468        2.798      857.830
12/29/2014  16:33:00      124.560       76.541       19.363       77.426       65.222       59.416     5994.740     4253.884     3530.228        1.776        0.689      146.197       20.919        0.020      333.457        2.782      857.800
12/29/2014  16:34:00      166.211      112.756       43.508      135.767       73.630       50.288    18432.597     5421.353     2528.863        3.430        1.319      200.848       30.505        0.023      333.453        2.774      857.805
12/29/2014  16:35:00      143.171      116.308       27.452       94.516       65.287       57.356     8933.245     4262.387     3289.679        2.563        0.824      184.459       34.120        0.034      333.424        2.727      857.846
12/29/2014  16:36:00       72.012      119.992      -15.383       51.969       71.260       41.536     2700.827     5077.981     1725.251        1.466        0.475      139.942       28.537        0.042      333.426        2.731      857.890
12/29/2014  16:37:00      189.206      142.802       21.321      120.048       80.731       68.303    14411.448     6517.452     4665.252        4.111        1.280      237.047       43.138        0.033      333.448        2.764      857.903
12/29/2014  16:38:00       92.896       67.941       13.123       63.747       48.674       38.600     4063.658     2369.122     1489.970        1.067        0.396      115.089       23.914        0.043      333.422        2.724      857.936
12/29/2014  16:39:00      104.970       87.732       21.817       65.270       66.670       54.210     4260.173     4444.822     2938.717        1.542        0.582      136.805       40.809        0.089      333.409        2.704      857.938
12/29/2014  16:40:00      101.090       89.250       -2.339       52.376       68.132       58.029     2743.197     4641.902     3367.391        1.447        0.538      134.851       49.294        0.134      333.412        2.708      857.934
12/29/2014  16:41:00       87.767       84.705       -8.308       49.301       54.421       32.389     2430.573     2961.677     1049.025        1.069        0.322      121.975       27.957        0.053      333.382        2.660      857.962
12/29/2014  16:42:00      149.582       96.964       35.433       85.638       51.728       52.507     7333.787     2675.790     2757.018        2.290        0.638      178.261       22.282        0.016      333.380        2.656      857.967
12/29/2014  16:43:00      190.452      116.193       28.973      101.631       82.026       57.148    10328.866     6728.244     3265.919        3.546        1.016      223.098       18.529        0.007      333.393        2.676      857.971
12/29/2014  16:44:00      221.505      155.816       25.932      117.116       83.807       58.403    13716.216     7023.606     3410.870        4.908        1.208      270.819       21.874        0.007      333.415        2.712      858.005
12/29/2014  16:45:00      155.892      113.044       26.169       72.007       55.555       51.481     5184.954     3086.353     2650.253        2.434        0.546      192.565       14.626        0.006      333.364        2.628      858.025
12/29/2014  16:46:00      175.638      113.855       25.609       88.423       63.767       52.476     7818.649     4066.278     2753.739        2.955        0.732      209.312       32.918        0.025      333.384        2.663      858.013
12/29/2014  16:47:00      191.747      146.756       17.315      106.492       74.970       63.701    11340.523     5620.434     4057.796        3.981        1.051      241.463       37.537        0.024      333.405        2.695      858.056
12/29/2014  16:48:00      168.629      123.670       28.217       72.767       76.466       64.060     5295.108     5847.082     4103.730        2.988        0.762      209.117       56.387        0.073      333.390        2.670      858.109
12/29/2014  16:49:00       79.997       90.451       -3.785       59.930       54.653       52.095     3591.577     2986.914     2713.838        1.194        0.465      120.751       26.470        0.048      333.365        2.632      858.087
12/29/2014  16:50:00      163.653      129.016       16.504       79.238       53.923       54.147     6278.639     2907.653     2931.867        2.791        0.606      208.392       36.496        0.031      333.344        2.597      858.070
12/29/2014  16:51:00      133.393      123.601        0.947       76.600       59.907       52.359     5867.586     3588.851     2741.429        2.263        0.610      181.854       32.303        0.032      333.339        2.588      858.089
12/29/2014  16:52:00      107.086      138.416       12.885       86.839       73.453       74.497     7540.934     5395.274     5549.803        2.464        0.924      175.004       57.918        0.110      333.368        2.635      858.090
12/29/2014  16:53:00       15.138      132.944       -4.556       62.152      110.240       47.863     3862.822    12152.932     2290.889        1.811        0.915      133.803       56.765        0.180      333.360        2.622      858.092
12/29/2014  16:54:00       37.625      123.468       -2.077       62.801      108.541       57.411     3944.012    11781.087     3295.986        1.784        0.951      129.074       59.742        0.214      333.364        2.630      858.122
12/29/2014  16:55:00       21.959      143.481       -7.382       55.793       82.396       50.706     3112.864     6789.113     2571.066        1.680        0.624      145.152       48.181        0.110      333.345        2.599      858.139
12/29/2014  16:56:00        9.363      201.773      -32.273       42.021       37.633       25.224     1765.746     1416.227      636.262        2.283        0.191      201.990       16.847        0.007      333.359        2.621      858.186
12/29/2014  16:57:00       13.499      190.716      -23.395       50.674       85.211       35.895     2567.904     7260.897     1288.473        2.411        0.556      191.193       42.959        0.050      333.333        2.578      858.212
12/29/2014  16:58:00      -12.568      170.253      -19.723       44.673       93.293       38.547     1995.674     8703.599     1485.899        2.086        0.609      170.716       47.214        0.076      333.386        2.666      858.203
12/29/2014  16:59:00       -9.568      212.895      -26.483       69.939       99.820       52.286     4891.506     9964.004     2733.839        3.185        0.879      213.110       55.952        0.069      333.370        2.639      858.195
12/29/2014  17:00:00      -19.625      169.856      -23.981       50.242       70.308       36.968     2524.302     4943.270     1366.607        1.932        0.442      170.986       40.005        0.055      333.399        2.686      858.169
12/29/2014  17:01:00       90.111      101.855       -8.064       62.213       57.346       40.378     3870.484     3288.535     1630.387        1.367        0.439      135.994       29.557        0.047      333.345        2.600      858.129
12/29/2014  17:02:00       36.964      107.754        0.468       56.266       75.941       57.084     3165.881     5767.050     3258.618        1.258        0.610      113.918       53.305        0.219      333.325        2.565      858.134
12/29/2014  17:03:00      100.460       97.758       -5.821       70.845       53.095       44.921     5019.082     2819.100     2017.923        1.477        0.493      140.174       32.606        0.054      333.331        2.575      858.161
12/29/2014  17:04:00       73.864      159.322      -13.703       81.468      101.457       64.759     6637.089    10293.549     4193.691        2.607        1.056      175.611       64.406        0.135      333.337        2.585      858.196
12/29/2014  17:05:00       50.104      192.427      -14.497       76.347       83.995       61.192     5828.904     7055.162     3744.446        2.819        0.831      198.843       49.905        0.063      333.357        2.616      858.203
12/29/2014  17:06:00      110.541       99.846        6.692       76.469       54.453       43.713     5847.494     2965.092     1910.861        1.648        0.536      148.958       28.873        0.038      333.344        2.597      858.196
12/29/2014  17:07:00       80.665       90.866       13.676       73.943       57.859       47.782     5467.522     3347.694     2283.090        1.302        0.555      121.505       33.367        0.075      333.340        2.591      858.204
12/29/2014  17:08:00       52.452       71.168        3.203       58.411       56.797       42.947     3411.819     3225.872     1844.450        0.815        0.424       88.409       39.151        0.196      333.322        2.561      858.243
12/29/2014  17:09:00       56.599      143.962      -11.880       68.752       96.767       57.677     4726.902     9363.830     3326.626        2.074        0.871      154.688       53.549        0.120      333.339        2.588      858.269
12/29/2014  17:10:00       46.685      172.601      -31.368       47.319       88.919       32.209     2239.096     7906.582     1037.435        2.207        0.559      178.803       34.905        0.038      333.336        2.582      858.306
12/29/2014  17:11:00       32.638       82.416       -7.756       45.231       59.841       35.873     2045.886     3580.924     1286.883        0.741        0.346       88.644       32.321        0.133      333.340        2.590      858.316
12/29/2014  17:12:00       54.181      124.738       -4.202       56.499       78.238       50.301     3192.186     6121.204     2530.211        1.518        0.592      135.997       46.623        0.118      333.326        2.565      858.302
12/29/2014  17:13:00       23.584      161.900      -12.225       60.699       90.484       40.099     3684.374     8187.289     1607.938        2.020        0.674      163.608       45.672        0.078      333.333        2.578      858.312
12/29/2014  17:14:00       28.101      114.768      -11.992       38.939       68.186       28.105     1516.273     4649.353      789.902        1.053        0.348      118.158       35.350        0.090      333.335        2.583      858.326
12/29/2014  17:15:00       52.625       56.041        1.855       47.537       52.320       29.757     2259.764     2737.414      885.470        0.590        0.294       76.877       25.646        0.111      333.351        2.609      858.329
12/29/2014  17:16:00       49.495      121.885       -7.195       58.521       63.678       50.521     3424.733     4054.876     2552.384        1.369        0.502      131.551       42.913        0.106      333.331        2.574      858.314
12/29/2014  17:17:00       70.636      116.375        2.224       54.544       72.441       47.507     2975.034     5247.704     2256.870        1.451        0.524      136.135       39.025        0.082      333.323        2.563      858.313
12/29/2014  17:18:00      104.755      109.177        9.081       57.283       69.181       51.210     3281.393     4785.956     2622.444        1.683        0.534      151.305       48.434        0.102      333.319        2.556      858.280
12/29/2014  17:19:00       35.099      115.686       -5.854       57.420       75.675       44.502     3297.048     5726.763     1980.394        1.282        0.550      120.894       47.900        0.157      333.321        2.559      858.280
12/29/2014  17:20:00       81.398      160.342      -22.693       54.553       98.728       50.026     2976.053     9747.280     2502.620        2.403        0.761      179.820       55.989        0.097      333.337        2.584      858.357
12/29/2014  17:21:00       43.078      116.852      -13.645       58.412       76.302       44.457     3411.916     5821.939     1976.433        1.345        0.561      124.540       46.632        0.140      333.333        2.580      858.435
12/29/2014  17:22:00      130.495      129.483        4.057      111.708       82.772       55.575    12478.621     6851.183     3088.598        2.811        1.121      183.833       47.947        0.068      333.327        2.568      858.411
12/29/2014  17:23:00       29.885      167.757       -1.608       71.146      108.939       53.885     5061.689    11867.752     2903.600        2.443        0.992      170.398       53.617        0.099      333.344        2.596      858.377
12/29/2014  17:24:00       44.548      204.468      -26.010       47.368       76.543       45.873     2243.719     5858.760     2104.376        2.734        0.510      209.264       46.365        0.049      333.337        2.584      858.417
12/29/2014  17:25:00       42.336      116.822       -1.283       53.022       68.325       47.444     2811.285     4668.320     2250.889        1.258        0.487      124.257       45.654        0.135      333.353        2.613      858.430
12/29/2014  17:26:00      -14.262      159.330      -17.442       52.972       81.603       38.095     2805.996     6658.983     1451.232        1.840        0.546      159.967       35.717        0.050      333.417        2.717      858.433
12/29/2014  17:27:00        9.923       37.366        4.875       44.684       42.462       26.933     1996.628     1803.049      725.376        0.302        0.226       38.661       25.984        0.452      333.434        2.745      858.494
12/29/2014  17:28:00       50.163      130.452        4.376       64.721       84.797       48.409     4188.827     7190.473     2343.472        1.664        0.686      139.764       47.583        0.116      333.382        2.659      858.604
12/29/2014  17:29:00       14.509       68.588       11.032       54.548       41.286       42.684     2975.435     1704.539     1821.938        0.577        0.325       70.106       34.484        0.242      333.450        2.772      858.715
12/29/2014  17:30:00        4.155      194.563      -26.389       47.526       39.486       35.480     2258.736     1559.146     1258.809        2.182        0.254      194.608       26.162        0.018      333.400        2.690      858.803
12/29/2014  17:31:00      -15.995      174.468      -25.011       41.279       54.956       31.678     1703.980     3020.161     1003.505        1.852        0.286      175.199       32.035        0.033      333.496        2.847      858.843
12/29/2014  17:32:00      -38.074      181.753      -16.021       40.233       59.228       30.106     1618.682     3507.977      906.379        2.039        0.302      185.699       28.029        0.023      333.442        2.758      858.800
12/29/2014  17:33:00       67.303      113.516       -0.062       57.809       66.400       47.560     3341.880     4408.913     2261.942        1.371        0.501      131.968       39.378        0.089      333.401        2.691      858.655
12/29/2014  17:34:00      103.337       93.560       18.283       76.821       55.485       48.534     5901.465     3078.579     2355.512        1.555        0.567      139.398       30.853        0.049      333.336        2.585      858.539
12/29/2014  17:35:00      134.584      108.524       -0.750       68.767       64.954       54.089     4728.869     4219.019     2925.590        2.088        0.594      172.888       43.112        0.062      333.327        2.567      858.491
12/29/2014  17:36:00       70.264      189.768      -19.750       64.468       86.523       59.119     4156.065     7486.283     3495.097        2.824        0.757      202.358       59.617        0.087      333.320        2.556      858.481
12/29/2014  17:37:00       16.655      183.136      -23.939       35.709       75.379       32.318     1275.142     5682.067     1044.472        2.119        0.400      183.892       38.795        0.045      333.340        2.590      858.477
12/29/2014  17:38:00       31.409       83.613       -7.912       35.202       61.525       26.422     1239.152     3785.266      698.109        0.688        0.286       89.318       30.244        0.115      333.364        2.632      858.494
12/29/2014  17:39:00       32.648       31.567       11.654       40.177       26.170       23.427     1614.188      684.847      548.824        0.252        0.142       45.414       13.956        0.094      333.389        2.672      858.516
12/29/2014  17:40:00       -4.620      125.730      -16.575       30.097       67.942       27.655      905.826     4616.126      764.815        1.119        0.314      125.814       37.011        0.087      333.347        2.603      858.523
12/29/2014  17:41:00       35.318       95.372       -7.911       43.613       60.083       29.631     1902.052     3609.936      877.986        0.840        0.319      101.701       35.238        0.120      333.327        2.569      858.539
12/29/2014  17:42:00      109.192       86.432        3.921       60.097       37.090       38.528     3611.678     1375.679     1484.445        1.294        0.324      139.260       17.854        0.016      333.315        2.551      858.569
12/29/2014  17:43:00       75.257       86.774       -5.259       40.947       41.193       28.328     1676.643     1696.892      802.496        0.870        0.209      114.863       28.629        0.062      333.339        2.591      858.588
12/29/2014  17:44:00       49.185       74.539       -1.523       45.026       29.063       24.268     2027.325      844.670      588.917        0.572        0.173       89.304       15.886        0.032      333.330        2.577      858.572
12/29/2014  17:45:00       19.336      128.825      -16.225       30.329       88.062       34.646      919.871     7754.979     1200.355        1.355        0.494      130.268       42.937        0.109      333.330        2.573      858.593
12/29/2014  17:46:00      -10.581      250.762      -36.585       57.333       69.256       27.523     3287.107     4796.374      757.531        3.658        0.442      250.985       27.825        0.012      333.332        2.575      858.606
12/29/2014  17:47:00       69.449      126.506       -4.749       64.054       64.193       39.132     4102.896     4120.794     1531.351        1.530        0.488      144.315       41.798        0.084      333.323        2.564      858.597
12/29/2014  17:48:00       80.405      144.222      -14.032       44.904       73.132       43.309     2016.373     5348.293     1875.632        1.835        0.462      165.121       40.104        0.059      333.294        2.515      858.590
12/29/2014  17:49:00      102.531      128.816       -1.683       52.772       71.580       54.723     2784.918     5123.689     2994.578        1.900        0.545      164.639       53.304        0.105      333.284        2.496      858.605
12/29/2014  17:50:00      124.481       95.061        6.790       80.870       59.825       56.309     6539.956     3579.022     3170.666        1.893        0.664      156.627       38.308        0.060      333.281        2.489      858.626
12/29/2014  17:51:00       39.440      159.035      -14.736       71.719       82.787       44.266     5143.636     6853.628     1959.469        2.051        0.698      163.853       45.342        0.077      333.275        2.481      858.654
12/29/2014  17:52:00      104.794      131.778        7.550       88.647       62.811       50.191     7858.245     3945.174     2519.088        2.136        0.716      168.366       37.770        0.050      333.274        2.479      858.708
12/29/2014  17:53:00       87.479      184.052      -29.602       63.199      115.710       54.265     3994.140    13388.781     2944.644        3.136        1.016      203.784       65.264        0.103      333.284        2.495      858.763
12/29/2014  17:54:00       -7.951      275.296      -32.793      129.873      159.526       61.743    16867.010    25448.573     3812.177        6.152        2.306      275.411       82.906        0.091      333.292        2.507      858.753
12/29/2014  17:55:00      -45.046      293.720      -42.468       63.044       91.847       47.409     3974.517     8435.926     2247.607        5.238        0.733      297.155       47.791        0.026      333.335        2.580      858.775
12/29/2014  17:56:00       61.276      224.051      -17.770       73.645       77.754       61.397     5423.561     6045.734     3769.601        3.475        0.762      232.279       58.674        0.064      333.301        2.524      858.851
12/29/2014  17:57:00      105.037      110.551       19.000      128.421       88.800       61.770    16491.991     7885.367     3815.549        2.590        1.410      152.494       54.947        0.130      333.289        2.504      858.792
12/29/2014  17:58:00      107.816      177.550        6.514      116.593       98.230       70.438    13593.940     9649.113     4961.499        3.569        1.410      207.722       58.418        0.079      333.262        2.456      858.676
12/29/2014  17:59:00       43.002      232.156      -16.148       79.325      136.298       67.470     6292.491    18577.243     4552.268        4.271        1.471      236.104       73.843        0.098      333.237        2.418      858.664
12/29/2014  18:00:00       16.088      157.064      -20.282       62.229      105.299       48.819     3872.494    11087.918     2383.254        2.134        0.867      157.886       57.285        0.132      333.276        2.482      858.733
12/29/2014  18:01:00       15.424      207.029      -14.338       75.657      105.887       50.478     5723.993    11211.995     2548.031        3.139        0.974      207.603       53.893        0.067      333.243        2.427      858.705
12/29/2014  18:02:00       23.129      170.688       -7.664      106.214      102.612       71.136    11281.430    10529.208     5060.306        2.829        1.344      172.248       66.517        0.149      333.252        2.442      858.639
12/29/2014  18:03:00       10.352      312.777      -35.968       91.557      115.258       66.920     8382.673    13284.442     4478.267        6.268        1.307      312.949       60.616        0.038      333.254        2.444      858.692
12/29/2014  18:04:00      -27.275      319.276      -28.424       78.690       93.058       50.784     6192.065     8659.808     2579.049        6.046        0.872      320.439       50.190        0.025      333.272        2.474      858.766
12/29/2014  18:05:00       67.141      185.684      -22.918       76.685       93.102       51.714     5880.624     8668.050     2674.350        2.836        0.861      197.450       48.535        0.060      333.249        2.437      858.795
12/29/2014  18:06:00       58.165      136.817       -9.730       62.262      104.002       47.243     3876.549    10816.487     2231.920        1.956        0.846      148.668       50.781        0.117      333.218        2.386      858.778
12/29/2014  18:07:00       13.689      112.078       -4.476       46.764       74.786       38.364     2186.867     5592.953     1471.774        1.101        0.463      112.910       44.490        0.155      333.245        2.433      858.779
12/29/2014  18:08:00       46.998      185.951      -10.222       63.357       92.293       53.120     4014.132     8517.936     2821.709        2.612        0.768      191.798       61.846        0.104      333.218        2.385      858.765
12/29/2014  18:09:00       44.430      229.154      -38.153       50.821       56.581       34.526     2582.735     3201.357     1192.037        3.146        0.349      233.421       28.421        0.015      333.227        2.399      858.771
12/29/2014  18:10:00       25.330      171.765      -26.391       44.952       70.644       30.620     2020.683     4990.572      937.563        1.939        0.397      173.623       35.757        0.042      333.240        2.422      858.790
12/29/2014  18:11:00      -23.051      285.156      -36.191       54.677       95.497       41.927     2989.622     9119.743     1757.839        4.851        0.693      286.086       41.773        0.021      333.222        2.391      858.788
12/29/2014  18:12:00      -39.025      261.380      -34.856       65.678      129.031       51.565     4313.658    16648.873     2658.908        4.733        1.181      264.277       63.894        0.058      333.303        2.526      858.797
12/29/2014  18:13:00      -61.323      174.647      -19.408       85.753      106.289       54.436     7353.599    11297.424     2963.230        2.812        1.081      185.101       55.691        0.091      333.402        2.692      858.839
12/29/2014  18:14:00      -92.736      302.166      -38.863       82.910      112.685       49.933     6874.051    12697.867     2493.321        6.174        1.103      316.076       52.396        0.027      333.317        2.548      858.878
12/29/2014  18:15:00      -21.044      220.490      -24.348      103.567      106.015       49.795    10726.142    11239.192     2479.556        3.704        1.222      221.492       50.624        0.052      333.243        2.426      858.890
12/29/2014  18:16:00      -28.688      291.663      -34.481       55.516       76.260       44.528     3082.019     5815.620     1982.734        4.898        0.544      293.071       38.477        0.017      333.239        2.419      858.886
12/29/2014  18:17:00      110.791      161.109        7.009       83.543      106.992       75.185     6979.420    11447.372     5652.775        3.117        1.204      195.527       72.481        0.137      333.194        2.346      858.825
12/29/2014  18:18:00       71.013      111.153       -8.550       84.445       85.815       38.800     7131.004     7364.219     1505.472        1.673        0.800      131.901       42.769        0.105      333.187        2.335      858.764
12/29/2014  18:19:00       39.981      149.055       -9.544       47.863       65.033       46.839     2290.884     4229.244     2193.933        1.631        0.436      154.324       38.394        0.062      333.193        2.344      858.783
12/29/2014  18:20:00       94.919      195.350      -15.628       61.981      130.141       72.513     3841.647    16936.566     5258.163        3.672        1.302      217.190       74.440        0.117      333.176        2.318      858.771
12/29/2014  18:21:00       46.992      148.509      -14.062       52.099      103.123       45.405     2714.353    10634.398     2061.625        1.993        0.771      155.766       61.749        0.157      333.152        2.275      858.727
12/29/2014  18:22:00       -5.953      279.181      -33.099       62.226       51.493       40.832     3872.134     2651.498     1667.228        4.363        0.410      279.245       32.040        0.013      333.163        2.295      858.722
12/29/2014  18:23:00       -3.356      168.342      -21.879       43.983       82.782       33.537     1934.472     6852.868     1124.709        1.937        0.496      168.375       43.084        0.065      333.218        2.388      858.753
12/29/2014  18:24:00      -44.077      178.682      -19.887       63.141       74.663       31.369     3986.846     5574.551      983.993        2.240        0.527      184.038       24.739        0.018      333.245        2.433      858.771
12/29/2014  18:25:00     -107.223      205.075      -31.450       90.308       73.272       50.980     8155.447     5368.770     2599.005        3.533        0.806      231.414       50.481        0.048      333.315        2.549      858.815
12/29/2014  18:26:00       -5.759      159.766      -16.035       67.454       52.508       35.567     4550.031     2757.119     1264.993        1.719        0.429      159.870       30.830        0.037      333.340        2.589      858.881
12/29/2014  18:27:00      -45.947      261.719      -29.563       64.405       76.808       40.389     4147.960     5899.431     1631.290        4.158        0.584      265.722       35.476        0.018      333.190        2.339      858.911
12/29/2014  18:28:00      -88.951      249.328      -33.777       54.234       88.527       33.668     2941.301     7836.974     1133.567        4.156        0.596      264.720       27.734        0.011      333.230        2.405      858.933
12/29/2014  18:29:00     -136.110      230.390      -46.849       85.578       88.697       44.647     7323.677     7867.192     1993.354        4.549        0.859      267.592       50.706        0.036      333.296        2.513      859.002
12/29/2014  18:30:00     -112.598      223.411      -24.565      122.809       88.327       60.735    15082.105     7801.677     3688.697        4.488        1.329      250.182       65.503        0.069      333.247        2.434      859.069
12/29/2014  18:31:00     -168.144      319.639      -47.906      121.199      133.141       57.083    14689.238    17726.432     3258.459        8.420        1.784      361.167       65.708        0.033      333.172        2.310      859.097
12/29/2014  18:32:00     -133.423      305.516      -35.509       95.310       99.546       59.214     9084.083     9909.502     3506.299        6.745        1.125      333.379       57.545        0.030      333.161        2.292      859.136
12/29/2014  18:33:00     -135.522      274.742      -36.676      132.559      152.635       79.387    17571.984    23297.442     6302.302        7.117        2.359      306.349       79.425        0.067      333.182        2.327      859.180
12/29/2014  18:34:00     -134.653      239.795      -39.510       86.053       94.184       49.289     7405.088     8870.546     2429.377        4.795        0.935      275.015       50.069        0.033      333.126        2.235      859.215
12/29/2014  18:35:00     -181.289      278.688      -49.265      104.170      156.404       56.274    10851.355    24462.108     3166.744        7.571        1.924      332.465       60.207        0.033      333.081        2.160      859.165
12/29/2014  18:36:00     -164.177      386.646      -53.992      124.365      129.708       53.503    15466.558    16824.062     2862.582       10.725        1.758      420.059       41.998        0.010      333.043        2.095      859.086
12/29/2014  18:37:00      -98.216      265.464      -39.589       75.715      104.118       50.607     5732.795    10840.508     2561.112        5.041        0.957      283.050       50.404        0.032      333.094        2.180      859.030
12/29/2014  18:38:00      -47.651      239.883      -18.513       72.667       97.235       44.048     5280.519     9454.694     1940.200        3.841        0.834      244.570       40.358        0.027      333.117        2.219      858.985
12/29/2014  18:39:00     -125.249      173.318      -25.465       56.331       79.641       50.774     3173.177     6342.753     2578.025        2.923        0.605      213.837       46.684        0.048      333.104        2.197      858.933
12/29/2014  18:40:00      -26.045      185.913      -23.954       56.259       63.796       29.672     3165.038     4069.923      880.423        2.196        0.406      187.729       20.544        0.012      333.091        2.178      858.874
12/29/2014  18:41:00      -64.897      117.271        0.344       37.603       73.697       44.225     1413.970     5431.204     1955.823        1.338        0.440      134.030       41.480        0.096      333.185        2.333      858.829
12/29/2014  18:42:00       -9.277       74.441        5.171       23.477       64.996       37.578      551.174     4224.422     1412.080        0.592        0.309       75.017       32.912        0.192      333.167        2.303      858.805
12/29/2014  18:43:00      -63.221      191.855      -18.635       77.914       67.360       47.702     6070.556     4537.411     2275.487        2.702        0.644      202.004       41.376        0.042      333.115        2.216      858.785
12/29/2014  18:44:00      -61.037      122.547       -8.728       85.182       71.873       45.362     7255.915     5165.739     2057.739        1.665        0.724      136.906       36.706        0.072      333.161        2.295      858.740
12/29/2014  18:45:00     -108.523      162.999      -29.447       55.884       80.581       38.412     3123.052     6493.233     1475.462        2.515        0.555      195.822       35.739        0.033      333.161        2.292      858.740
12/29/2014  18:46:00      -29.023      138.065        0.704       59.474       86.606       37.602     3537.127     7500.604     1413.903        1.618        0.623      141.082       31.384        0.049      333.073        2.149      858.740
12/29/2014  18:47:00     -125.503      123.144      -22.509       70.098       56.860       40.924     4913.759     3233.048     1674.769        2.062        0.491      175.828       38.857        0.049      333.169        2.306      858.792
12/29/2014  18:48:00     -104.782      131.673      -27.082       45.667       44.320       27.518     2085.432     1964.259      757.235        1.693        0.240      168.277       18.735        0.012      333.235        2.416      858.837
12/29/2014  18:49:00      -81.933       77.448      -17.563       54.899       62.519       27.015     3013.861     3908.679      729.817        1.033        0.383      112.744       26.819        0.057      333.178        2.322      858.853
12/29/2014  18:50:00      -78.937      100.992      -13.815       42.228       55.593       34.206     1783.175     3090.559     1170.077        1.133        0.302      128.181       33.254        0.067      333.150        2.275      858.895
12/29/2014  18:51:00      -92.398       81.711      -24.262       54.194       62.431       28.968     2937.003     3897.612      839.166        1.174        0.384      123.345       20.113        0.027      333.189        2.341      858.922
12/29/2014  18:52:00     -129.325      137.739      -28.594       74.506       85.366       44.726     5551.131     7287.302     2000.444        2.567        0.742      188.936       39.957        0.045      333.090        2.175      858.927
12/29/2014  18:53:00     -121.258      -13.505      -12.004       58.172       74.889       30.027     3383.946     5608.319      901.603        1.246        0.495      122.008       27.395        0.050      333.066        2.138      858.978
12/29/2014  18:54:00     -102.784       11.115        4.094       93.901       65.984       55.618     8817.482     4353.945     3093.322        1.348        0.813      103.383       56.211        0.296      333.000        2.029      858.942
12/29/2014  18:55:00      -38.564       71.573       19.335       50.870       89.479       45.212     2587.784     8006.481     2044.143        0.981        0.632       81.301       26.845        0.109      333.057        2.121      858.887
12/29/2014  18:56:00     -100.245      -37.598       19.713       89.411       85.195       58.745     7994.379     7258.197     3450.940        1.527        0.935      107.064       53.636        0.251      333.036        2.088      858.884
12/29/2014  18:57:00     -121.072        5.201      -11.787       56.593       59.257       35.684     3202.769     3511.350     1273.332        1.140        0.399      121.184       30.893        0.065      333.063        2.132      858.959
12/29/2014  18:58:00     -155.813       14.442      -19.296       95.324       83.325       38.817     9086.670     6943.028     1506.795        2.119        0.877      156.481       41.096        0.069      332.988        2.008      858.974
12/29/2014  18:59:00     -143.763       -7.135      -14.914       85.402       46.848       47.749     7293.489     2194.727     2279.970        1.635        0.588      143.940       50.141        0.121      332.949        1.943      858.962
12/29/2014  19:00:00     -120.716      -11.778       -4.286       55.243       70.152       45.956     3051.827     4921.302     2111.927        1.241        0.504      121.289       44.795        0.136      332.983        2.000      858.976
12/29/2014  19:01:00     -151.440       17.253      -15.720      142.660       69.848       48.836    20351.826     4878.755     2384.931        2.554        1.381      152.420       65.373        0.184      332.990        2.011      859.015
12/29/2014  19:02:00     -118.473       75.912      -26.936       87.692      123.018       48.379     7689.900    15133.406     2340.537        2.284        1.258      140.707       45.587        0.105      333.022        2.064      859.005
12/29/2014  19:03:00     -193.349      -84.802       -9.911      113.130      100.861       51.097    12798.362    10172.981     2610.944        3.512        1.279      211.129       53.380        0.064      332.908        1.875      859.000
12/29/2014  19:04:00     -171.718       39.144      -27.741       83.165       90.616       44.874     6916.384     8211.290     2013.640        2.446        0.857      176.123       41.951        0.057      332.968        1.974      859.030
12/29/2014  19:05:00     -128.122      -37.139      -10.700       66.575       77.544       43.691     4432.275     6013.085     1908.926        1.513        0.618      133.396       29.213        0.048      332.997        2.022      859.052
12/29/2014  19:06:00     -100.291       31.811      -15.434       97.682       78.286       68.366     9541.740     6128.665     4673.842        1.582        1.017      105.215       60.875        0.335      332.945        1.936      859.044
12/29/2014  19:07:00      -44.296      -29.456        5.889      134.509       66.457       55.414    18092.680     4416.501     3070.694        1.422        1.279       53.196       61.307        1.328      332.945        1.937      858.974
12/29/2014  19:08:00     -226.220      -43.923      -27.659       87.709       87.676       41.060     7692.943     7687.152     1685.926        3.546        0.853      230.445       42.192        0.034      332.881        1.830      858.918
12/29/2014  19:09:00     -156.361       82.295      -25.130      100.199       82.282       64.503    10039.784     6770.393     4160.689        2.641        1.049      176.695       58.265        0.109      332.867        1.809      858.880
12/29/2014  19:10:00     -139.808       16.942      -21.911      133.545       86.022       54.438    17834.181     7399.773     2963.475        2.425        1.410      140.830       62.739        0.198      332.842        1.766      858.845
12/29/2014  19:11:00      -55.224       -2.014       29.065       88.734       61.339       42.610     7873.682     3762.495     1815.613        0.867        0.673       55.261       42.593        0.594      332.902        1.866      858.811
12/29/2014  19:12:00     -136.756      -30.217       -0.326       67.624       50.428       38.357     4573.032     2542.960     1471.252        1.410        0.429      140.055       30.777        0.048      332.813        1.721      858.789
12/29/2014  19:13:00     -242.705      -28.788      -24.444      106.152      124.374       51.403    11268.215    15468.825     2642.302        4.485        1.469      244.406       50.398        0.043      332.834        1.751      858.770
12/29/2014  19:14:00     -131.357       16.252      -10.938       58.433       95.486       39.161     3414.429     9117.581     1533.553        1.585        0.703      132.358       38.357        0.084      332.927        1.908      858.784
12/29/2014  19:15:00     -127.073      -35.642       -6.005       86.598       62.109       50.978     7499.163     3857.522     2598.776        1.570        0.698      131.977       54.154        0.168      332.881        1.831      858.778
12/29/2014  19:16:00     -120.146       -1.155       -6.328       73.357       80.461       52.493     5381.216     6474.000     2755.481        1.454        0.731      120.151       51.253        0.182      332.897        1.859      858.787
12/29/2014  19:17:00     -187.678      200.606      -46.939      139.109      131.032       71.311    19351.303    17169.508     5085.309        5.963        2.080      274.710       85.617        0.097      332.996        2.019      858.851
12/29/2014  19:18:00     -163.125      203.775      -44.335       96.601       96.142       56.174     9331.730     9243.191     3155.534        4.591        1.087      261.025       55.134        0.045      333.068        2.137      858.860
12/29/2014  19:19:00      -82.052      259.701      -26.514       75.718      112.963       50.646     5733.158    12760.624     2564.986        4.797        1.053      272.355       55.287        0.041      333.036        2.086      858.866
12/29/2014  19:20:00      -44.026      265.305      -28.882       52.476       74.248       33.589     2753.767     5512.721     1128.207        4.128        0.470      268.933       21.913        0.007      332.988        2.005      858.872
12/29/2014  19:21:00      -14.190      158.878      -12.162       41.329      102.943       34.156     1708.102    10597.319     1166.661        1.953        0.674      159.510       47.903        0.090      333.033        2.081      858.853
12/29/2014  19:22:00     -104.818      -18.156       -0.446       71.825       87.860       32.933     5158.857     7719.292     1084.601        1.264        0.698      106.379       24.859        0.055      333.090        2.177      858.857
12/29/2014  19:23:00     -172.845       12.910      -17.908       62.502       49.497       33.563     3906.537     2449.920     1126.506        1.892        0.374      173.326       31.144        0.032      332.953        1.950      858.843
12/29/2014  19:24:00     -109.748       -0.563       -7.578       78.331       49.651       35.504     6135.813     2465.182     1260.555        1.098        0.493      109.749       24.472        0.050      332.970        1.979      858.819
12/29/2014  19:25:00     -113.725      -20.671      -28.152       51.077       61.729       24.158     2608.832     3810.418      583.627        1.058        0.350      115.588       21.963        0.036      333.015        2.054      858.803
12/29/2014  19:26:00     -143.344      -58.600       -3.006       62.723       48.247       31.646     3934.222     2327.728     1001.485        1.563        0.363      154.860       35.083        0.051      332.931        1.914      858.810
12/29/2014  19:27:00     -176.163      -19.126      -13.316       47.056       46.581       28.988     2214.236     2169.777      840.325        1.840        0.261      177.198       27.649        0.024      332.888        1.845      858.810
12/29/2014  19:28:00     -183.938        2.147      -12.851       41.659       25.853       26.953     1735.435      668.387      726.452        1.857        0.157      183.951       25.123        0.019      332.878        1.828      858.812
12/29/2014  19:29:00      -65.375      -16.194        0.035       38.152       25.489       18.239     1455.538      649.666      332.676        0.349        0.122       67.351       16.458        0.060      332.980        1.996      858.815
12/29/2014  19:30:00      -54.291      -15.292        2.229       39.660       21.459       14.216     1572.931      460.508      202.091        0.271        0.112       56.403       17.103        0.092      333.008        2.042      858.835
12/29/2014  19:31:00      -30.704      -45.191        1.100       24.199       16.023       14.359      585.579      256.727      206.179        0.202        0.052       54.634       11.495        0.044      332.960        1.960      858.856
12/29/2014  19:32:00      -29.259      -53.447        0.586       17.919       16.645       13.847      321.101      277.046      191.742        0.225        0.039       60.932        9.514        0.024      333.002        2.032      858.855
12/29/2014  19:33:00      -47.258        7.152      -14.812       30.203       25.819       14.386      912.200      666.619      206.971        0.214        0.089       47.796       15.611        0.107      332.982        2.000      858.857
12/29/2014  19:34:00       -1.606       -4.325       -2.526       15.205       24.635       15.561      231.193      606.895      242.131        0.055        0.054        4.614        7.941        2.963      333.004        2.036      858.856
12/29/2014  19:35:00        8.385      -23.281       22.050       23.741       25.233       17.563      563.650      636.715      308.451        0.130        0.075       24.745        9.322        0.142      333.106        2.204      858.849
12/29/2014  19:36:00      -89.083      -29.456        0.742       66.794       33.197       25.933     4461.400     1102.070      672.534        0.752        0.312       93.827       32.041        0.117      333.044        2.100      858.846
12/29/2014  19:37:00       10.364       52.908        8.087       24.448       18.307       19.364      597.688      335.133      374.960        0.214        0.065       53.913       12.445        0.053      333.087        2.173      858.826
12/29/2014  19:38:00      -31.714       -6.670        8.681       22.704       38.011       23.129      515.475     1444.867      534.932        0.181        0.125       32.408       23.860        0.542      333.098        2.190      858.813
12/29/2014  19:39:00      -15.890      -69.195       -5.042       20.193       33.533       17.770      407.739     1124.429      315.765        0.346        0.092       70.996        8.744        0.015      333.105        2.202      858.814
12/29/2014  19:40:00      -31.175      -90.415       -7.453       36.563       24.846       19.517     1336.859      617.317      380.930        0.577        0.117       95.639       16.865        0.031      333.084        2.167      858.827
12/29/2014  19:41:00      -56.634      -50.857        3.584       29.906       20.935       17.564      894.385      438.265      308.502        0.372        0.082       76.117       14.886        0.038      333.142        2.263      858.846
12/29/2014  19:42:00      -45.484      -48.990        4.830       40.719       31.532       22.856     1658.041      994.268      522.388        0.383        0.159       66.849       18.646        0.078      333.151        2.279      858.865
12/29/2014  19:43:00      -12.265      -81.872       -0.697       42.576       37.101       30.215     1812.706     1376.463      912.919        0.548        0.205       82.785       24.409        0.087      333.188        2.340      858.896
12/29/2014  19:44:00      -33.555      -27.822        7.676       27.569       22.259       22.257      760.029      495.471      495.361        0.185        0.088       43.589        9.874        0.051      333.178        2.321      858.938
12/29/2014  19:45:00      -14.956        9.533        8.207       37.525       24.182       20.919     1408.115      584.767      437.613        0.141        0.122       17.735       17.815        1.009      333.156        2.285      858.970
12/29/2014  19:46:00      -56.811       12.751        4.444       36.921       23.082       18.861     1363.153      532.758      355.743        0.283        0.113       58.224       19.171        0.108      333.145        2.270      858.979
12/29/2014  19:47:00      -28.943       -8.084        6.042       31.220       32.488       20.836      974.670     1055.458      434.123        0.170        0.123       30.051        8.374        0.078      333.222        2.393      858.976
12/29/2014  19:48:00      -22.908      -51.349       -1.009       46.745       35.885       22.927     2185.082     1287.754      525.639        0.358        0.200       56.227       16.356        0.085      333.126        2.235      858.960
12/29/2014  19:49:00      -14.528      -31.237        7.690       41.333       26.057       27.470     1708.384      678.972      754.592        0.219        0.157       34.450       24.384        0.501      333.159        2.292      858.928
12/29/2014  19:50:00      -31.144      -55.809      -10.100       42.606       34.576       21.485     1815.236     1195.490      461.612        0.383        0.174       63.910       19.191        0.090      333.149        2.274      858.901
12/29/2014  19:51:00      -39.110      -46.771       -3.899       19.216       23.811       18.540      369.246      566.969      343.729        0.251        0.064       60.969        8.493        0.019      333.205        2.365      858.884
12/29/2014  19:52:00      -28.563      -62.386        9.082       27.303       35.782       29.169      745.461     1280.378      850.802        0.383        0.144       68.614       13.598        0.039      333.303        2.530      858.878
12/29/2014  19:53:00       -8.048      -52.769        1.078       37.576       35.353       28.173     1411.976     1249.842      793.738        0.315        0.173       53.380       26.214        0.241      333.234        2.414      858.893
12/29/2014  19:54:00       -6.182        9.060        8.247       35.706       21.123       16.620     1274.890      446.201      276.229        0.109        0.100       10.968       20.639        3.541      333.214        2.383      858.919
12/29/2014  19:55:00       -1.825       30.373       45.135       21.497       22.740       21.359      462.112      517.115      456.201        0.220        0.072       30.428       21.696        0.508      333.101        2.196      858.927
12/29/2014  19:56:00       -5.295       11.026       15.989       11.037       14.659       12.758      121.805      214.886      162.755        0.045        0.025       12.231        7.706        0.397      333.112        2.212      858.926
12/29/2014  19:57:00       57.956       40.562       25.778       47.994       26.086       19.794     2303.446      680.485      391.800        0.452        0.169       70.740       14.197        0.040      333.035        2.088      858.951
12/29/2014  19:58:00       92.363       38.474       18.840       33.359       27.198       31.448     1112.810      739.750      988.955        0.660        0.142      100.056       10.953        0.012      332.972        1.981      859.010
12/29/2014  19:59:00       65.131       48.789       10.862       48.702       35.414       26.619     2371.876     1254.137      708.594        0.554        0.217       81.378       15.496        0.036      332.925        1.905      859.043
12/29/2014  20:00:00      101.698       68.984       26.542       44.208       35.733       33.742     1954.312     1276.855     1138.508        1.009        0.218      122.888       21.973        0.032      332.905        1.871      859.059
12/29/2014  20:01:00      117.007       63.857       18.266       37.801       34.731       30.566     1428.919     1206.268      934.272        1.083        0.178      133.298       21.428        0.026      332.905        1.873      859.057
12/29/2014  20:02:00      134.776       61.820       10.072       41.741       35.948       29.797     1742.304     1292.273      887.856        1.300        0.196      148.277       21.379        0.021      332.898        1.862      859.039
12/29/2014  20:03:00      150.057       87.480       31.341       81.928       56.138       47.617     6712.163     3151.501     2267.407        2.164        0.607      173.694       27.732        0.025      332.882        1.832      859.024
12/29/2014  20:04:00       76.638       73.040       49.822       40.946       34.895       43.636     1676.591     1217.682     1904.059        0.924        0.240      105.869       30.104        0.081      332.877        1.827      859.005
12/29/2014  20:05:00       17.768       87.687       92.601       43.073       46.745       28.560     1855.295     2185.136      815.694        1.072        0.243       89.469       27.963        0.098      332.960        1.963      858.990
12/29/2014  20:06:00       99.393       51.855       16.357       38.092       35.723       25.539     1451.003     1276.149      652.234        0.811        0.169      112.107       19.296        0.030      332.880        1.830      858.991
12/29/2014  20:07:00      103.838       56.539       17.908       45.562       31.774       28.340     2075.931     1009.557      803.162        0.909        0.194      118.233       25.139        0.045      332.853        1.786      858.992
12/29/2014  20:08:00       88.096       47.552       11.088       51.464       35.256       30.117     2648.587     1243.006      907.049        0.747        0.240      100.111       22.958        0.053      332.859        1.797      858.996
12/29/2014  20:09:00       45.633       20.984        5.595       24.922       23.470       21.709      621.123      550.823      471.261        0.210        0.082       50.226        4.879        0.009      332.863        1.803      859.008
12/29/2014  20:10:00       57.811       48.853       18.032       30.166       24.873       24.084      910.001      618.656      580.034        0.408        0.105       75.689       17.483        0.053      332.842        1.770      859.025
12/29/2014  20:11:00       63.344       59.360       13.907       40.687       23.817       23.926     1655.450      567.261      572.471        0.526        0.140       86.811       17.187        0.039      332.892        1.849      859.049
12/29/2014  20:12:00       35.064       59.883        1.746       43.883       41.615       25.953     1925.749     1731.768      673.569        0.457        0.217       69.394       26.337        0.144      332.841        1.766      859.062
12/29/2014  20:13:00       58.838      107.451       -9.790       56.361       54.429       35.649     3176.598     2962.556     1270.834        1.126        0.370      122.506       36.806        0.090      332.846        1.774      859.057
12/29/2014  20:14:00       15.636       66.128       -0.971       28.841       52.492       32.468      831.783     2755.405     1054.185        0.463        0.232       67.951       32.659        0.231      332.868        1.812      859.048
12/29/2014  20:15:00       20.986      103.572      -10.964       35.313       49.554       24.648     1246.988     2455.637      607.531        0.780        0.216      105.676       24.201        0.052      332.856        1.791      859.042
12/29/2014  20:16:00       19.426      104.903      -18.419       25.831       30.511       16.542      667.255      930.935      273.634        0.680        0.094      106.687       16.182        0.023      332.862        1.799      859.034
12/29/2014  20:17:00        5.743      146.474      -21.933       17.556       21.476       14.592      308.199      461.225      212.932        1.148        0.049      146.587       11.072        0.006      332.855        1.790      859.015
12/29/2014  20:18:00        3.918      131.752      -23.794       28.168       27.113       14.033      793.423      735.089      196.928        0.983        0.086      131.810        8.159        0.004      332.877        1.826      859.007
12/29/2014  20:19:00        0.752      209.272      -31.154       25.886       32.793       17.549      670.099     1075.372      307.981        2.341        0.103      209.273       12.108        0.003      332.865        1.803      859.007
12/29/2014  20:20:00       -3.614      191.190      -25.570       22.040       38.260       18.778      485.751     1463.803      352.602        1.976        0.115      191.224       17.141        0.008      332.858        1.794      859.013
12/29/2014  20:21:00      -21.562      205.051      -30.679       34.565       36.938       18.379     1194.744     1364.426      337.796        2.317        0.145      206.182       17.302        0.007      332.924        1.903      859.020
12/29/2014  20:22:00      -41.611      194.040      -25.876       25.906       30.202       16.051      671.140      912.134      257.629        2.095        0.092      198.451       11.925        0.004      332.922        1.900      859.026
12/29/2014  20:23:00      -25.997      195.651      -28.524       35.899       31.771       15.967     1288.756     1009.420      254.936        2.116        0.128      197.370       10.012        0.003      332.874        1.819      859.029
12/29/2014  20:24:00      -48.773      136.483      -18.289       28.617       46.278       18.389      818.949     2141.692      338.152        1.232        0.165      144.936       19.104        0.017      333.140        2.259      859.030
12/29/2014  20:25:00      -15.600      185.910      -23.369       29.185       62.956       18.531      851.763     3963.506      343.394        2.025        0.258      186.563       21.542        0.013      332.927        1.907      859.038
12/29/2014  20:26:00      -89.919      261.979      -27.471       69.430       65.145       37.571     4820.460     4243.864     1411.599        4.397        0.524      276.981       28.360        0.010      332.953        1.947      859.038
12/29/2014  20:27:00      -65.715      145.230      -11.203       43.167       82.812       39.504     1863.349     6857.860     1560.572        1.791        0.514      159.406       42.723        0.072      333.049        2.109      859.030
12/29/2014  20:28:00      -17.843      172.767      -21.803       63.248       84.238       37.830     4000.322     7095.960     1431.120        2.158        0.626      173.686       42.462        0.060      333.042        2.096      859.050
12/29/2014  20:29:00       -5.141      179.259      -21.013       50.984       44.958       33.994     2599.393     2021.253     1155.612        1.919        0.289      179.332       28.035        0.024      332.962        1.966      859.040
12/29/2014  20:30:00      -62.518      168.078      -32.878       73.340       56.554       31.020     5378.756     3198.402      962.249        2.139        0.477      179.328       35.384        0.039      333.039        2.092      859.027
12/29/2014  20:31:00      -82.133      187.644      -28.751       47.388       53.065       30.883     2245.604     2815.873      953.735        2.440        0.301      204.832       25.647        0.016      332.971        1.978      859.014
12/29/2014  20:32:00      -56.809      148.600      -15.304       45.230       53.049       36.604     2045.722     2814.178     1339.844        1.587        0.310      159.089       34.631        0.047      333.067        2.140      858.998
12/29/2014  20:33:00      -10.666      185.140      -18.636       47.234       83.456       33.793     2231.037     6964.895     1141.988        2.254        0.517      185.447       40.235        0.047      332.939        1.924      859.006
12/29/2014  20:34:00      -43.798      205.658      -29.841       52.888       61.116       30.533     2797.166     3735.201      932.255        2.628        0.373      210.270       30.627        0.021      332.961        1.962      859.004
12/29/2014  20:35:00       -6.793      160.402      -10.046       36.599       78.838       36.853     1339.456     6215.395     1358.129        1.739        0.446      160.545       44.940        0.078      332.931        1.914      858.986
12/29/2014  20:36:00        0.648      172.485      -21.707       52.511       93.151       32.875     2757.402     8677.016     1080.741        2.137        0.626      172.486       38.152        0.049      332.936        1.920      858.981
12/29/2014  20:37:00      -58.245      202.600      -22.708       35.788       45.070       26.186     1280.797     2031.269      685.681        2.448        0.200      210.806       19.516        0.009      332.990        2.010      858.971
12/29/2014  20:38:00      -59.339       94.514      -20.450       39.361       59.839       25.928     1549.306     3580.741      672.244        0.934        0.290      111.598       23.846        0.046      333.079        2.158      858.984
12/29/2014  20:39:00      -86.084       91.237      -14.126       35.839       71.946       25.623     1284.442     5176.216      656.544        1.152        0.356      125.438       23.198        0.034      333.055        2.120      859.002
12/29/2014  20:40:00      -38.975       15.580        1.626       39.344       31.417       25.707     1547.949      986.998      660.865        0.248        0.160       41.974       19.151        0.208      333.054        2.117      859.002
12/29/2014  20:41:00      -43.971       22.650       -0.973       28.552       50.937       19.931      815.231     2594.541      397.244        0.313        0.190       49.461        8.324        0.028      333.069        2.142      859.001
12/29/2014  20:42:00      -42.142       98.497       -3.838       35.629       37.905       30.941     1269.399     1436.793      957.324        0.758        0.183      107.134       26.670        0.062      332.953        1.952      858.977
12/29/2014  20:43:00      -87.035      121.668      -31.548       45.459       69.795       28.303     2066.504     4871.299      801.044        1.555        0.387      149.593       23.354        0.024      332.940        1.930      858.971
12/29/2014  20:44:00     -151.679       71.695      -24.814       66.028       65.723       41.300     4359.724     4319.552     1705.702        1.957        0.519      167.770       37.594        0.050      333.026        2.071      858.977
12/29/2014  20:45:00     -118.981      137.787      -35.446       47.758       53.843       30.552     2280.780     2899.030      933.422        2.025        0.306      182.049       29.142        0.026      332.961        1.962      858.994
12/29/2014  20:46:00      -67.453       86.500      -22.205       33.527       34.235       18.745     1124.093     1172.067      351.376        0.759        0.132      109.691       20.639        0.035      332.880        1.833      858.998
12/29/2014  20:47:00      -64.934       22.626       -7.703       25.202       30.175       15.314      635.119      910.531      234.531        0.328        0.089       68.763       12.897        0.035      333.001        2.030      859.001
12/29/2014  20:48:00      -62.619       51.134      -19.036       37.288       23.685       22.552     1390.408      560.975      508.571        0.468        0.123       80.845       23.477        0.084      332.930        1.913      859.013
12/29/2014  20:49:00       -9.077       18.015       -4.945        9.510       14.719       12.974       90.447      216.650      168.337        0.045        0.024       20.172        8.278        0.168      332.979        1.995      859.002
12/29/2014  20:50:00      -46.911      -27.865        0.925       27.834       31.133       15.546      774.716      969.257      241.673        0.248        0.099       54.563       12.763        0.055      332.930        1.913      858.987
12/29/2014  20:51:00      -25.551      -34.110       -5.790       15.939       17.043       12.647      254.045      290.465      159.937        0.128        0.035       42.618        2.400        0.003      332.890        1.847      858.988
12/29/2014  20:52:00      -20.753      -21.225        4.553       26.016       20.764       22.090      676.835      431.153      487.955        0.125        0.080       29.684        9.881        0.111      333.001        2.031      858.995
12/29/2014  20:53:00     -113.467      -38.904      -15.642       55.142       30.596       21.370     3040.656      936.136      456.666        0.953        0.222      119.951       19.948        0.028      332.903        1.870      859.011
12/29/2014  20:54:00     -123.236      -27.801       -9.814       40.979       30.150       22.353     1679.315      909.037      499.677        0.957        0.154      126.333       21.852        0.030      332.788        1.680      859.032
12/29/2014  20:55:00      -84.078      -24.967        2.390       50.300       39.066       20.604     2530.103     1526.137      424.504        0.609        0.224       87.707       21.149        0.058      332.816        1.727      859.033
12/29/2014  20:56:00      -96.977      -14.958       -2.004       34.827       39.766       20.010     1212.905     1581.302      400.384        0.641        0.160       98.124       18.053        0.034      332.836        1.760      859.026
12/29/2014  20:57:00     -142.902      -45.976      -14.314       27.046       30.520       22.369      731.509      931.485      500.394        1.245        0.108      150.116       18.790        0.016      332.751        1.618      859.020
12/29/2014  20:58:00     -123.302      -63.406       -0.273       35.372       30.616       19.358     1251.201      937.340      374.738        1.089        0.128      138.650       16.914        0.015      332.778        1.662      859.022
12/29/2014  20:59:00      -68.238      -42.072        4.897       42.961       38.104       23.061     1845.674     1451.921      531.817        0.514        0.191       80.166       21.301        0.071      332.844        1.772      859.016
12/29/2014  21:00:00     -101.791      -46.275       -0.032       31.189       36.532       16.981      972.732     1334.604      288.365        0.755        0.130      111.816        7.607        0.005      332.806        1.709      859.021
12/29/2014  21:01:00      -34.196      -32.500        9.918       41.612       33.421       21.796     1731.541     1116.974      475.066        0.282        0.166       47.176       21.347        0.205      332.815        1.724      859.027
12/29/2014  21:02:00      -73.809      -28.076       -5.480       34.368       19.817       20.199     1181.171      392.698      408.007        0.412        0.099       78.968       18.851        0.057      332.833        1.755      859.040
12/29/2014  21:03:00      -52.985      -46.411       -1.568       39.762       32.707       28.042     1581.026     1069.720      786.327        0.420        0.172       70.438       28.596        0.165      332.837        1.762      859.062
12/29/2014  21:04:00      -30.053      -44.980        7.147       31.469       25.956       19.557      990.274      673.727      382.463        0.251        0.102       54.096       16.727        0.096      332.844        1.771      859.092
12/29/2014  21:05:00     -105.915      -48.154       -0.578       28.833       27.232       20.681      831.362      741.563      427.720        0.777        0.100      116.348       17.053        0.021      332.811        1.718      859.125
12/29/2014  21:06:00      -94.062      -48.059       -9.501       24.692       16.584       13.726      609.677      275.015      188.393        0.616        0.054      105.628        9.786        0.009      332.794        1.690      859.143
12/29/2014  21:07:00     -140.017      -36.061       -7.046       29.323       20.726       14.612      859.840      429.557      213.513        1.123        0.075      144.586       14.024        0.009      332.744        1.605      859.148
12/29/2014  21:08:00      -92.957      -41.265        1.603       45.334       40.130       17.382     2055.194     1610.433      302.128        0.716        0.198      101.705       16.796        0.027      332.757        1.626      859.138
12/29/2014  21:09:00      -99.527      -58.066       -1.361       66.476       41.105       29.617     4419.030     1689.644      877.192        1.013        0.349      115.227       16.647        0.021      332.797        1.693      859.128
12/29/2014  21:10:00      -23.726      -14.584       10.631       44.161       28.874       26.964     1950.178      833.713      727.045        0.220        0.176       27.849       27.706        0.990      332.799        1.698      859.124
12/29/2014  21:11:00      -81.585      -43.066       -4.289       45.332       45.315       18.265     2055.008     2053.437      333.608        0.648        0.222       92.254       15.501        0.028      332.792        1.686      859.127
12/29/2014  21:12:00      -71.066       15.159        0.833       47.120       30.407       20.597     2220.303      924.575      424.238        0.442        0.178       72.665       22.345        0.095      332.899        1.862      859.144
12/29/2014  21:13:00      -66.122       88.867      -21.116       39.458       39.446       25.576     1556.961     1555.959      654.152        0.824        0.188      110.768       12.727        0.013      332.891        1.848      859.141
12/29/2014  21:14:00      -25.424       92.479       -9.892       29.318       49.943       14.536      859.537     2494.269      211.304        0.643        0.178       95.910       14.949        0.024      332.843        1.770      859.138
12/29/2014  21:15:00      -58.801      -17.203       -5.300       33.004       16.950       13.436     1089.291      287.286      180.536        0.267        0.078       61.266       11.550        0.036      332.854        1.788      859.123
12/29/2014  21:16:00      -24.727        1.101       11.702       26.057       17.149       11.455      678.960      294.084      131.223        0.093        0.055       24.752       11.491        0.216      332.774        1.656      859.120
12/29/2014  21:17:00      -25.484       -5.329        1.921       24.996       33.608       17.530      624.799     1129.501      307.298        0.137        0.103       26.035       10.116        0.151      332.790        1.682      859.129
12/29/2014  21:18:00       -8.901        0.115       10.132       47.969       20.021       28.326     2300.984      400.829      802.370        0.184        0.175        8.902       25.509        8.211      332.837        1.760      859.131
12/29/2014  21:19:00      -81.914        3.790      -12.207       33.794       18.220       21.666     1142.035      331.958      469.428        0.441        0.097       82.002       15.160        0.034      332.858        1.794      859.124
12/29/2014  21:20:00      -60.243      -13.707       -0.836       20.026       22.684       13.412      401.026      514.565      179.880        0.246        0.055       61.783        9.581        0.024      332.838        1.762      859.129
12/29/2014  21:21:00      -29.970      170.357      -17.534       30.493      102.467       37.005      929.828    10499.563     1369.400        2.151        0.640      172.973       42.286        0.060      332.751        1.613      859.134
12/29/2014  21:22:00      -48.395       25.333        7.821       24.940       28.312       28.393      622.005      801.545      806.142        0.264        0.111       54.624       14.165        0.067      332.922        1.899      859.152
12/29/2014  21:23:00      -67.544       61.150       -8.781       43.042       31.323       25.890     1852.584      981.149      670.294        0.594        0.175       91.113       18.322        0.040      332.830        1.748      859.165
12/29/2014  21:24:00      -45.620       16.316       12.220       24.364       24.646       21.164      593.587      607.439      447.928        0.207        0.082       48.450        5.666        0.014      332.838        1.762      859.168
12/29/2014  21:25:00      -40.775        2.567       -1.341       21.835       14.981       13.645      476.763      224.440      186.191        0.128        0.044       40.855       11.305        0.077      332.839        1.764      859.164
12/29/2014  21:26:00       21.612        2.399       11.568       25.349       14.992       17.085      642.569      224.762      291.908        0.088        0.058       21.745       10.321        0.225      332.718        1.565      859.145
12/29/2014  21:27:00       20.699       56.164        3.647       29.350       37.674       23.336      861.400     1419.358      544.565        0.321        0.141       59.857       13.917        0.054      332.668        1.479      859.143
12/29/2014  21:28:00       32.497       65.706       -6.054       30.643       47.560       20.624      938.986     2261.973      425.368        0.452        0.181       73.303       24.894        0.115      332.650        1.452      859.142
12/29/2014  21:29:00       25.946      134.247      -18.827       32.078       44.647       25.516     1029.010     1993.333      651.049        1.136        0.184      136.732       22.639        0.027      332.605        1.376      859.150
12/29/2014  21:30:00       36.204      168.832      -11.880       57.627       99.063       44.887     3320.919     9813.522     2014.886        2.255        0.757      172.670       50.489        0.085      332.553        1.288      859.158
12/29/2014  21:31:00       13.471      161.872      -10.004       51.332       81.153       48.311     2634.952     6585.759     2333.982        1.902        0.578      162.432       49.985        0.095      332.542        1.268      859.175
12/29/2014  21:32:00       -8.988      143.075      -11.629       53.215       72.381       46.651     2831.869     5238.994     2176.278        1.546        0.512      143.357       39.626        0.076      332.533        1.257      859.220
12/29/2014  21:33:00      -45.899      161.004      -26.161       44.555       61.354       27.181     1985.174     3764.283      738.798        1.760        0.324      167.419       23.678        0.020      332.567        1.310      859.266
12/29/2014  21:34:00        4.303       82.606       -5.809       45.638       54.221       30.980     2082.788     2939.970      959.772        0.643        0.299       82.718       35.212        0.181      332.580        1.334      859.284
12/29/2014  21:35:00       39.821       97.635       -8.962       47.896       45.577       34.830     2293.997     2077.227     1213.125        0.839        0.279      105.443       33.122        0.099      332.502        1.205      859.291
12/29/2014  21:36:00       77.182       62.064        4.374       48.795       39.000       33.967     2380.979     1520.971     1153.732        0.744        0.253       99.041       11.739        0.014      332.495        1.194      859.291
12/29/2014  21:37:00       97.827      139.387       -5.867       72.645       79.006       56.551     5277.339     6241.939     3198.026        2.187        0.736      170.291       47.389        0.077      332.438        1.099      859.300
12/29/2014  21:38:00      108.100      145.813       11.665       73.543       88.205       54.914     5408.509     7780.202     3015.549        2.464        0.810      181.513       55.887        0.095      332.418        1.064      859.292
12/29/2014  21:39:00       79.230       93.452        7.433       62.864       75.202       52.518     3951.861     5655.300     2758.091        1.371        0.618      122.518       47.168        0.148      332.400        1.037      859.285
12/29/2014  21:40:00       30.195      175.343      -12.827       57.669      120.279       46.106     3325.754    14466.950     2125.766        2.587        0.996      177.924       57.509        0.104      332.389        1.018      859.273
12/29/2014  21:41:00       42.319      279.985      -29.037       74.653      131.291       58.801     5573.135    17237.454     3457.533        5.364        1.313      283.165       60.673        0.046      332.396        1.029      859.262
12/29/2014  21:42:00        6.068      262.429      -36.028       67.357       93.412       40.008     4536.927     8725.872     1600.656        4.253        0.743      262.500       41.480        0.025      332.408        1.050      859.246
12/29/2014  21:43:00      -61.427      240.898      -34.506       48.097       51.320       28.247     2313.366     2633.754      797.915        3.437        0.287      248.606       24.114        0.009      332.505        1.206      859.205
12/29/2014  21:44:00     -136.084      154.445      -35.094       57.107       80.860       46.309     3261.208     6538.402     2144.563        2.777        0.597      205.845       42.698        0.043      332.602        1.368      859.214
12/29/2014  21:45:00      -76.102      238.942      -30.070       75.903       77.578       42.686     5761.338     6018.397     1822.101        3.869        0.680      250.769       38.397        0.023      332.463        1.139      859.234
12/29/2014  21:46:00     -105.092      170.182      -15.950       79.091       83.676       46.812     6255.311     7001.595     2191.339        2.785        0.772      200.016       43.526        0.047      332.488        1.180      859.242
12/29/2014  21:47:00     -166.170      224.631      -44.227       87.099      101.464       55.168     7586.173    10295.011     3043.485        5.047        1.046      279.413       58.764        0.044      332.454        1.123      859.229
12/29/2014  21:48:00      -44.374      283.322      -29.504       59.045      103.859       50.988     3486.253    10786.647     2599.738        4.999        0.844      286.776       53.516        0.035      332.403        1.040      859.204
12/29/2014  21:49:00      -66.547      157.383      -26.110       73.969      108.628       48.575     5471.410    11800.110     2359.498        2.475        0.982      170.874       49.895        0.085      332.402        1.040      859.199
12/29/2014  21:50:00      -47.591      251.465      -21.934       69.924      110.561       44.497     4889.394    12223.708     1979.965        4.253        0.955      255.928       52.912        0.043      332.332        0.922      859.218
12/29/2014  21:51:00     -135.593      236.833      -35.123       70.922       83.325       51.506     5029.933     6943.137     2652.840        4.516        0.731      272.902       47.393        0.030      332.320        0.902      859.225
12/29/2014  21:52:00      -56.806       71.331       -2.038       56.547       58.294       41.193     3197.563     3398.163     1696.903        0.830        0.415       91.187       41.323        0.205      332.431        1.089      859.244
12/29/2014  21:53:00     -126.140      178.756      -24.126       75.323      112.735       44.921     5673.599    12709.188     2017.862        3.442        1.020      218.781       42.356        0.037      332.361        0.970      859.266
12/29/2014  21:54:00     -148.804      153.939      -31.615       73.663       96.266       48.901     5426.279     9267.120     2391.324        3.196        0.854      214.103       44.851        0.044      332.360        0.970      859.256
12/29/2014  21:55:00      -33.824      254.412      -34.882       84.351      104.061       48.538     7115.099    10828.596     2355.938        4.369        1.015      256.651       52.660        0.042      332.252        0.790      859.287
12/29/2014  21:56:00      -38.971      384.899      -46.475       61.260       81.769       40.958     3752.757     6686.201     1677.528        8.197        0.606      386.867       43.719        0.013      332.160        0.639      859.327
12/29/2014  21:57:00      -99.521      272.261      -41.625       66.678       84.622       39.041     4445.981     7160.855     1524.211        4.944        0.657      289.880       31.972        0.012      332.230        0.753      859.362
12/29/2014  21:58:00     -161.086      314.759      -43.650       72.364       92.840       54.066     5236.579     8619.290     2923.118        7.185        0.839      353.585       48.593        0.019      332.130        0.590      859.402
12/29/2014  21:59:00     -159.683      306.133      -43.929       81.573       97.880       48.894     6654.191     9580.533     2390.615        6.988        0.931      345.277       52.313        0.023      332.118        0.570      859.419
12/29/2014  22:00:00     -131.337      286.754      -39.531       83.002       95.543       58.066     6889.303     9128.448     3371.629        6.021        0.969      315.400       59.216        0.035      332.112        0.561      859.458
12/29/2014  22:01:00     -100.754      185.380      -15.345       64.039       90.712       42.155     4100.952     8228.739     1777.078        2.943        0.705      210.991       39.557        0.035      332.171        0.660      859.493
12/29/2014  22:02:00      -98.005      192.578      -24.166       63.941       95.958       39.070     4088.479     9207.939     1526.502        3.105        0.741      216.081       35.458        0.027      332.111        0.560      859.518
12/29/2014  22:03:00      -64.434      232.473      -29.664       56.384       74.085       32.060     3179.188     5488.531     1027.829        3.438        0.485      241.237       32.218        0.018      332.067        0.486      859.522
12/29/2014  22:04:00      -72.648      191.427      -26.996       59.895       64.022       33.721     3587.397     4098.859     1137.078        2.574        0.441      204.749       33.741        0.027      332.037        0.436      859.536
12/29/2014  22:05:00     -125.414      110.986      -19.706       62.441       88.506       43.841     3898.939     7833.393     1922.005        2.104        0.683      167.471       46.218        0.076      332.043        0.448      859.553
12/29/2014  22:06:00     -105.424      162.589      -13.713       74.067      105.039       54.740     5485.885    11033.159     2996.481        2.862        0.976      193.777       57.474        0.088      331.993        0.363      859.580
12/29/2014  22:07:00     -141.092      240.900      -38.769       96.564      109.815       51.936     9324.574    12059.231     2697.357        5.176        1.204      279.177       50.427        0.033      331.925        0.252      859.577
12/29/2014  22:08:00     -182.296      190.798      -53.463       68.932       75.599       40.170     4751.660     5715.187     1613.592        4.228        0.604      263.886       43.580        0.027      331.938        0.274      859.574
12/29/2014  22:09:00     -111.284       94.647      -19.513       61.802       64.931       33.469     3819.510     4216.019     1120.176        1.544        0.458      146.089       36.267        0.062      331.982        0.347      859.585
12/29/2014  22:10:00     -149.696      223.211      -35.630       70.288      102.284       53.517     4940.468    10461.924     2864.077        4.588        0.913      268.760       55.747        0.043      331.924        0.251      859.592
12/29/2014  22:11:00     -161.681      182.271      -36.057       69.464       85.525       42.290     4825.313     7314.533     1788.450        3.729        0.696      243.646       46.431        0.036      331.904        0.217      859.604
12/29/2014  22:12:00     -169.522      160.902      -30.391       80.174       91.907       48.209     6427.930     8446.941     2324.084        3.637        0.860      233.725       47.660        0.042      331.922        0.248      859.589
12/29/2014  22:13:00     -158.673      180.200      -28.922       83.471      129.657       50.815     6967.421    16810.969     2582.210        4.242        1.318      240.102       56.101        0.055      331.904        0.218      859.597
12/29/2014  22:14:00     -168.395      152.545      -41.662       81.505       96.250       52.562     6642.993     9264.117     2762.728        3.601        0.933      227.216       53.851        0.056      331.845        0.120      859.578
12/29/2014  22:15:00     -116.164      203.893      -21.622       84.031      147.892       61.023     7061.166    21872.131     3723.822        4.409        1.633      234.662       66.100        0.079      331.820        0.081      859.577
12/29/2014  22:16:00     -182.188      212.394      -38.943       91.541      131.907       59.301     8379.756    17399.528     3516.594        5.455        1.465      279.828       58.608        0.044      331.854        0.134      859.561
12/29/2014  22:17:00     -197.715      270.323      -56.425      123.725      151.215       80.648    15307.871    22865.970     6504.164        8.000        2.234      334.912       78.737        0.055      331.756       -0.027      859.570
12/29/2014  22:18:00     -133.215      226.353      -32.498       85.873      114.440       55.018     7374.134    13096.467     3026.968        4.676        1.175      262.644       51.152        0.038      331.741       -0.051      859.589
12/29/2014  22:19:00     -144.096      171.371      -28.163       80.646      115.738       47.395     6503.833    13395.188     2246.278        3.653        1.107      223.901       50.234        0.050      331.744       -0.047      859.620
12/29/2014  22:20:00     -136.161      193.960      -31.022       76.537       88.463       37.865     5857.899     7825.692     1433.791        3.612        0.756      236.982       34.551        0.021      331.746       -0.042      859.647
12/29/2014  22:21:00     -108.153      205.148      -25.515       82.139      120.122       42.900     6746.759    14429.227     1840.439        3.872        1.151      231.911       37.136        0.026      331.803        0.051      859.678
12/29/2014  22:22:00     -102.937      159.876      -19.549       52.341       95.567       49.328     2739.595     9133.033     2433.206        2.542        0.715      190.148       41.117        0.047      331.742       -0.051      859.707
12/29/2014  22:23:00     -162.478      157.991      -28.075       99.101       86.060       59.780     9820.979     7406.341     3573.598        3.647        1.040      226.628       55.957        0.061      331.751       -0.031      859.727
12/29/2014  22:24:00     -113.055      286.374      -32.307       72.928      114.752       59.754     5318.552    13168.101     3570.582        5.894        1.103      307.882       51.828        0.028      331.722       -0.083      859.726
12/29/2014  22:25:00     -183.634      316.234      -51.482      101.611       92.678       67.537    10324.839     8589.166     4561.198        7.992        1.174      365.685       69.070        0.036      331.727       -0.075      859.732
12/29/2014  22:26:00     -156.904      136.346      -43.304       93.956       92.365       46.066     8827.811     8531.345     2122.092        3.228        0.974      207.868       48.509        0.054      331.763       -0.014      859.731
12/29/2014  22:27:00     -212.972      244.759      -45.001      100.045      105.010       62.426    10009.081    11027.128     3897.035        6.611        1.247      324.444       59.793        0.034      331.710       -0.103      859.741
12/29/2014  22:28:00     -165.288      203.269      -37.028       68.733       96.559       57.123     4724.171     9323.548     3262.981        4.366        0.866      261.989       50.454        0.037      331.725       -0.078      859.753
12/29/2014  22:29:00     -112.880      240.364      -38.556      107.040      128.915       53.378    11457.618    16619.132     2849.259        5.146        1.546      265.550       61.864        0.054      331.701       -0.117      859.758
12/29/2014  22:30:00     -109.647      268.018      -35.842       62.622      104.799       46.688     3921.538    10982.854     2179.786        5.111        0.854      289.579       52.005        0.032      331.698       -0.122      859.729
12/29/2014  22:31:00     -190.967      236.145      -49.783       99.043       95.448       54.163     9809.430     9110.225     2933.631        5.828        1.093      303.699       58.484        0.037      331.718       -0.088      859.709
12/29/2014  22:32:00     -184.082      250.261      -42.976      103.736      117.070       61.882    10761.222    13705.462     3829.334        6.332        1.415      310.672       63.579        0.042      331.730       -0.070      859.710
12/29/2014  22:33:00     -138.164      271.640      -33.611       77.544      105.491       56.291     6013.115    11128.262     3168.698        5.715        1.016      304.758       57.571        0.036      331.714       -0.096      859.729
12/29/2014  22:34:00     -178.891      257.382      -49.839       64.161       98.912       47.929     4116.619     9783.621     2297.174        5.846        0.810      313.445       42.861        0.019      331.697       -0.123      859.729
12/29/2014  22:35:00      -95.036      214.148      -18.255       61.227       80.744       42.412     3748.780     6519.580     1798.779        3.364        0.603      234.288       35.058        0.022      331.761       -0.018      859.740
12/29/2014  22:36:00      -79.751      232.316      -24.440       55.791       90.031       45.723     3112.590     8105.568     2090.608        3.712        0.665      245.624       37.527        0.023      331.769       -0.004      859.748
12/29/2014  22:37:00     -110.756      202.099      -28.763       67.951       98.750       51.037     4617.313     9751.629     2604.751        3.545        0.849      230.458       52.652        0.052      331.791        0.031      859.756
12/29/2014  22:38:00     -100.686      227.231      -22.276       62.104       86.318       42.898     3856.873     7450.742     1840.262        3.771        0.657      248.539       35.884        0.021      331.778        0.012      859.754
12/29/2014  22:39:00     -136.748      205.216      -32.161       79.939      109.231       58.764     6390.208    11931.360     3453.242        4.181        1.089      246.604       55.847        0.051      331.741       -0.050      859.749
12/29/2014  22:40:00     -138.646      254.374      -36.695       64.716      129.614       51.078     4188.176    16799.752     2608.943        5.443        1.180      289.705       58.199        0.040      331.730       -0.070      859.767
12/29/2014  22:41:00     -124.599      140.562      -22.568       66.489       82.211       40.375     4420.736     6758.717     1630.149        2.430        0.640      187.836       32.708        0.030      331.756       -0.026      859.783
12/29/2014  22:42:00     -167.411      224.597      -45.108       58.664      112.084       43.466     3441.434    12562.711     1889.299        4.920        0.895      280.126       39.275        0.020      331.735       -0.062      859.793
12/29/2014  22:43:00     -130.998      245.350      -32.777       49.462       64.375       37.380     2446.469     4144.116     1397.280        4.321        0.399      278.132       29.604        0.011      331.751       -0.035      859.793
12/29/2014  22:44:00     -138.358      185.446      -13.355      114.297      121.537       58.927    13063.861    14771.133     3472.422        4.250        1.565      231.373       50.893        0.048      331.741       -0.050      859.773
12/29/2014  22:45:00     -131.494      142.524      -20.222       61.799       75.291       56.363     3819.075     5668.790     3176.739        2.534        0.633      193.917       45.488        0.055      331.749       -0.038      859.772
12/29/2014  22:46:00     -187.583      165.115      -38.765       98.886       88.465       53.685     9778.432     7826.142     2882.052        4.222        1.024      249.901       54.402        0.047      331.710       -0.102      859.780
12/29/2014  22:47:00     -195.499      255.974      -46.620       97.453       97.965       56.132     9497.175     9597.147     3150.832        6.408        1.112      322.090       56.525        0.031      331.678       -0.156      859.778
12/29/2014  22:48:00     -126.814      190.553      -28.559       62.418       88.075       47.048     3896.039     7757.170     2213.541        3.353        0.693      228.894       35.309        0.024      331.732       -0.066      859.787
12/29/2014  22:49:00     -138.011      175.640      -29.860       73.241       72.081       48.931     5364.190     5195.711     2394.283        3.187        0.648      223.375       32.159        0.021      331.711       -0.099      859.792
12/29/2014  22:50:00     -150.876      293.791      -43.859      102.424      117.682       49.343    10490.663    13848.945     2434.687        6.888        1.339      330.268       46.627        0.020      331.695       -0.128      859.786
12/29/2014  22:51:00     -153.759      169.659      -29.044       77.577       70.975       50.567     6018.199     5037.462     2556.997        3.344        0.681      228.967       51.137        0.050      331.774        0.004      859.779
12/29/2014  22:52:00     -119.841      183.686      -12.414       71.041      105.291       53.313     5046.764    11086.208     2842.289        3.361        0.949      219.323       49.024        0.050      331.729       -0.070      859.780
12/29/2014  22:53:00     -137.032      166.879      -24.613       68.264       74.134       40.752     4659.953     5495.835     1660.753        2.952        0.591      215.932       31.445        0.021      331.753       -0.031      859.769
12/29/2014  22:54:00     -121.549      202.377      -30.489       75.360      105.611       58.263     5679.107    11153.609     3394.565        3.844        1.011      236.073       55.309        0.055      331.726       -0.076      859.769
12/29/2014  22:55:00     -128.729      243.025      -37.958       92.867      115.109       57.447     8624.372    13250.120     3300.184        5.112        1.259      275.014       57.586        0.044      331.712       -0.099      859.777
12/29/2014  22:56:00     -164.379      332.396      -44.305      103.704      105.994       68.474    10754.589    11234.678     4688.677        8.307        1.334      370.821       62.458        0.028      331.695       -0.126      859.793
12/29/2014  22:57:00     -170.385      237.651      -37.083      101.252      141.311       53.436    10251.901    19968.844     2855.381        5.997        1.654      292.419       52.583        0.032      331.741       -0.050      859.780
12/29/2014  22:58:00     -171.519      260.176      -40.983       92.338      125.294       57.496     8526.274    15698.477     3305.750        6.315        1.377      311.625       59.558        0.037      331.743       -0.047      859.779
12/29/2014  22:59:00     -132.476      335.673      -29.048      118.376      107.616       73.394    14012.899    11581.307     5386.608        8.102        1.549      360.869       66.468        0.034      331.766       -0.010      859.759
12/29/2014  23:00:00     -107.530      259.303      -20.448       74.282      160.503       56.573     5517.755    25761.059     3200.538        5.684        1.724      280.715       59.000        0.044      331.733       -0.065      859.772
12/29/2014  23:01:00     -160.985      230.697      -35.938       87.381       99.658       59.675     7635.487     9931.721     3561.084        5.077        1.056      281.313       53.638        0.036      331.738       -0.056      859.798
12/29/2014  23:02:00     -142.093      314.998      -28.017       88.675      100.423       65.292     7863.264    10084.854     4263.056        7.120        1.111      345.564       65.402        0.036      331.720       -0.085      859.811
12/29/2014  23:03:00      -89.242      233.303      -29.409       75.008      118.599       41.723     5626.156    14065.829     1740.848        4.234        1.072      249.789       41.071        0.027      331.759       -0.021      859.814
12/29/2014  23:04:00     -103.179      326.046      -32.677       72.413      114.910       44.662     5243.698    13204.235     1994.739        6.923        1.022      341.982       34.103        0.010      331.752       -0.033      859.823
12/29/2014  23:05:00     -172.058      143.170      -17.976      135.066      107.991       72.689    18242.938    11662.137     5283.705        4.280        1.759      223.834       67.753        0.092      331.769       -0.005      859.814
12/29/2014  23:06:00     -131.471      228.752      -33.166       81.424      105.298       60.363     6629.929    11087.675     3643.679        4.603        1.068      263.841       63.707        0.058      331.743       -0.048      859.823
12/29/2014  23:07:00     -111.045      246.161      -31.651       97.934       88.601       52.221     9591.133     7850.117     2727.025        4.704        1.008      270.049       56.600        0.044      331.718       -0.089      859.823
12/29/2014  23:08:00     -197.186      314.532      -46.562      119.252      119.691       75.833    14221.051    14325.934     5750.576        8.713        1.715      371.231       67.200        0.033      331.671       -0.167      859.821
12/29/2014  23:09:00     -101.524      266.873      -32.410       77.137       94.984       44.196     5950.076     9021.963     1953.248        4.975        0.846      285.532       27.728        0.009      331.724       -0.081      859.810
12/29/2014  23:10:00     -117.979      193.209      -20.287       85.302       92.234       50.591     7276.452     8507.074     2559.402        3.500        0.917      226.382       44.549        0.039      331.753       -0.031      859.832
12/29/2014  23:11:00     -111.537      189.172      -24.994       89.328      123.630       56.701     7979.545    15284.399     3214.986        3.766        1.324      219.605       62.600        0.081      331.749       -0.038      859.832
12/29/2014  23:12:00     -109.767      150.228      -30.504       77.688       77.570       43.332     6035.460     6017.126     1877.687        2.474        0.697      186.057       39.536        0.045      331.741       -0.051      859.820
12/29/2014  23:13:00     -130.535      217.620      -28.821       99.921      108.129       57.960     9984.239    11691.844     3359.399        4.513        1.252      253.767       62.077        0.060      331.660       -0.185      859.810
12/29/2014  23:14:00      -79.480      195.858      -21.598      100.261       89.282       54.148    10052.351     7971.336     2932.014        3.305        1.048      211.370       53.679        0.064      331.703       -0.112      859.800
12/29/2014  23:15:00     -117.219      168.775      -18.383      126.740      109.366       50.374    16062.915    11960.916     2537.580        3.656        1.528      205.488       48.898        0.057      331.761       -0.018      859.779
12/29/2014  23:16:00     -104.322      227.078      -18.739       85.995      111.538       51.447     7395.169    12440.667     2646.814        4.264        1.124      249.895       45.431        0.033      331.681       -0.150      859.779
12/29/2014  23:17:00      -77.878      279.377      -27.187       86.791      143.983       56.152     7532.705    20731.042     3153.096        5.813        1.571      290.028       50.830        0.031      331.659       -0.185      859.768
12/29/2014  23:18:00     -101.402      176.711      -23.692       78.060       98.382       44.574     6093.341     9679.045     1986.866        2.991        0.888      203.738       43.979        0.047      331.726       -0.075      859.766
12/29/2014  23:19:00     -112.294      182.834      -33.635       87.349      116.884       57.833     7629.828    13661.895     3344.673        3.590        1.232      214.565       65.699        0.094      331.688       -0.136      859.773
12/29/2014  23:20:00      -81.144      275.022      -30.176       98.476      129.925       54.849     9697.468    16880.527     3008.392        5.635        1.479      286.743       49.061        0.029      331.653       -0.195      859.777
12/29/2014  23:21:00      -54.773      112.149      -11.728       75.465       71.576       38.026     5695.020     5123.181     1445.989        1.399        0.613      124.810       41.114        0.109      331.707       -0.105      859.782
12/29/2014  23:22:00     -106.815      101.583      -14.513       84.825       64.407       47.029     7195.232     4148.201     2211.748        1.774        0.678      147.406       44.818        0.092      331.667       -0.170      859.779
12/29/2014  23:23:00      -72.161      121.738      -25.762       70.954       56.838       44.763     5034.410     3230.525     2003.728        1.548        0.513      141.518       36.933        0.068      331.727       -0.073      859.789
12/29/2014  23:24:00     -139.360      111.324      -16.856       76.162       86.847       48.311     5800.685     7542.340     2333.973        2.388        0.784      178.366       50.485        0.080      331.652       -0.196      859.817
12/29/2014  23:25:00      -95.250      216.047      -35.958       81.450       92.779       45.216     6634.151     8607.869     2044.503        3.716        0.864      236.112       41.230        0.030      331.592       -0.297      859.821
12/29/2014  23:26:00     -108.481      325.514      -34.018      103.885      106.882       59.787    10792.151    11423.702     3574.501        7.233        1.290      343.115       54.617        0.025      331.549       -0.366      859.826
12/29/2014  23:27:00      -82.102      187.059      -18.301       65.654      108.091       52.681     4310.410    11683.715     2775.280        3.041        0.938      204.284       49.956        0.060      331.651       -0.199      859.818
12/29/2014  23:28:00     -128.139      167.541      -29.649       68.580       92.981       47.016     4703.186     8645.452     2210.512        3.046        0.778      210.926       49.686        0.055      331.642       -0.213      859.825
12/29/2014  23:29:00     -185.058      184.039      -31.328       88.966      118.917       54.593     7915.005    14141.194     2980.401        4.706        1.252      260.992       51.120        0.038      331.537       -0.388      859.813
12/29/2014  23:30:00     -177.113      190.419      -46.152       90.877       85.411       54.674     8258.719     7295.028     2989.210        4.415        0.927      260.054       54.190        0.043      331.519       -0.418      859.813
12/29/2014  23:31:00      -86.939      114.327       -7.913       72.755       84.346       48.470     5293.355     7114.315     2349.357        1.772        0.738      143.629       49.895        0.121      331.592       -0.294      859.816
12/29/2014  23:32:00     -117.898      139.525       -4.498       91.021       86.304       58.141     8284.739     7448.321     3380.333        2.625        0.956      182.667       59.619        0.107      331.625       -0.240      859.810
12/29/2014  23:33:00     -233.044      185.349      -41.327      117.417       83.769       65.309    13786.763     7017.225     4265.230        5.772        1.253      297.765       65.657        0.049      331.573       -0.327      859.813
12/29/2014  23:34:00     -180.637      233.861      -32.126       87.672      133.387       59.489     7686.441    17792.136     3538.976        5.868        1.451      295.501       55.051        0.035      331.498       -0.451      859.807
12/29/2014  23:35:00     -190.723      229.493      -45.681       99.537      109.662       60.684     9907.559    12025.822     3682.497        5.837        1.281      298.399       62.770        0.044      331.500       -0.449      859.799
12/29/2014  23:36:00     -164.300      188.254      -32.851       79.569      109.315       61.904     6331.301    11949.828     3832.085        4.281        1.106      249.867       62.012        0.062      331.487       -0.471      859.797
12/29/2014  23:37:00      -96.214      172.833      -21.220       66.092       76.497       43.948     4368.215     5851.751     1931.400        2.586        0.608      197.808       39.418        0.040      331.545       -0.374      859.796
12/29/2014  23:38:00     -146.979      194.266      -27.258       86.576      114.843       57.531     7495.435    13188.881     3309.800        4.203        1.200      243.602       61.270        0.063      331.517       -0.420      859.791
12/29/2014  23:39:00     -187.441      217.801      -41.396      114.681       85.162       60.716    13151.830     7252.496     3686.447        5.418        1.205      287.353       70.376        0.060      331.514       -0.427      859.799
12/29/2014  23:40:00     -120.304      132.429       -4.612       99.646       58.846       51.593     9929.294     3462.800     2661.803        2.404        0.803      178.915       46.857        0.069      331.558       -0.352      859.803
12/29/2014  23:41:00     -132.064      159.193      -31.019       90.800       87.789       42.820     8244.660     7706.846     1833.544        3.076        0.889      206.841       39.983        0.037      331.591       -0.297      859.821
12/29/2014  23:42:00     -213.165      205.835      -47.613      112.669      141.427       69.623    12694.390    20001.635     4847.376        6.380        1.877      296.323       77.456        0.068      331.494       -0.457      859.830
12/29/2014  23:43:00     -166.211      334.134      -38.407      134.330      168.467       73.872    18044.495    28381.180     5457.021        9.630        2.594      373.191       61.016        0.027      331.451       -0.529      859.824
12/29/2014  23:44:00      -91.251      438.564      -55.079       79.247      107.311       58.152     6280.128    11515.557     3381.704       11.243        1.059      447.957       44.170        0.010      331.371       -0.659      859.824
12/29/2014  23:45:00     -141.828      262.498      -15.720      179.429      133.557       70.661    32194.610    17837.366     4992.945        7.214        2.751      298.363       61.705        0.043      331.439       -0.546      859.815
12/29/2014  23:46:00     -153.419      218.617      -31.238      104.870      108.823       65.285    10997.678    11842.347     4262.196        4.970        1.355      267.078       68.287        0.065      331.404       -0.607      859.840
12/29/2014  23:47:00      -98.248      309.701      -24.540       90.844      132.660       63.517     8252.720    17598.576     4034.445        6.802        1.494      324.911       68.966        0.045      331.362       -0.674      859.839
12/29/2014  23:48:00      -95.655      276.977      -29.230       80.253      116.158       53.503     6440.527    13492.582     2862.609        5.475        1.140      293.030       47.997        0.027      331.339       -0.713      859.841
12/29/2014  23:49:00     -235.626      309.672      -65.836      120.656      147.402       79.037    14557.964    21727.372     6246.887        9.913        2.127      389.122       78.230        0.040      331.233       -0.887      859.840
12/29/2014  23:50:00     -226.832      356.900      -66.587      126.022      122.221       70.052    15881.422    14938.088     4907.291       10.949        1.786      422.883       66.211        0.025      331.198       -0.945      859.832
12/29/2014  23:51:00     -180.086      212.805      -33.592      137.694      101.644       73.345    18959.512    10331.408     5379.430        5.675        1.734      278.778       76.798        0.076      331.246       -0.866      859.840
12/29/2014  23:52:00     -189.470      239.508      -42.901      106.694      117.000       62.156    11383.613    13689.064     3863.417        6.201        1.447      305.389       72.123        0.056      331.222       -0.905      859.845
12/29/2014  23:53:00     -224.854      292.847      -50.092      149.868      136.673       79.754    22460.545    18679.475     6360.698        9.316        2.375      369.214       90.261        0.060      331.196       -0.947      859.852
12/29/2014  23:54:00     -196.720      280.117      -52.720       91.488      131.655       60.302     8370.121    17332.940     3636.321        7.464        1.467      342.293       65.990        0.037      331.204       -0.934      859.833
12/29/2014  23:55:00     -208.271      253.728      -53.464      109.477      121.050       62.887    11985.280    14653.137     3954.793        7.060        1.530      328.261       75.939        0.054      331.166       -0.997      859.833
12/29/2014  23:56:00     -162.613      333.974      -50.125       74.078      138.937       62.976     5487.573    19303.385     3966.006        8.462        1.438      371.459       71.845        0.037      331.173       -0.985      859.821
12/29/2014  23:57:00     -135.799      319.958      -38.649       91.540      132.356       57.781     8379.650    17518.169     3338.628        7.577        1.462      347.584       47.665        0.019      331.174       -0.983      859.805
12/29/2014  23:58:00     -174.843      380.110      -50.269      111.340      105.616       69.396    12396.632    11154.696     4815.804       10.297        1.418      418.394       67.530        0.026      331.146       -1.029      859.814
12/29/2014  23:59:00     -148.929      300.042      -46.759       88.468      116.591       57.200     7826.557    13593.477     3271.855        6.954        1.235      334.970       52.341        0.024      331.213       -0.919      859.797
